<?xml version='1.0' encoding='UTF-8'?>
<gpx xmlns="http://www.topografix.com/GPX/1/1" creator="www.balnam.be" version="1.1" xmlns:xsi="http://www.w3.org/2001/XMLSchema-instance" xsi:schemaLocation="http://www.topografix.com/GPX/1/1 http://www.topografix.com/GPX/1/1/gpx.xsd">
<trk>
<name>brmae1</name>
<cmt>v</cmt>
<desc>Autre-Eglise Chemin n°1 Rue de la brasserie</desc>
<link href="https://chemins.be/autreeglise/chemin/1"/><trkseg>
<trkpt lat="50.685547" lon="4.911641"><time>2026-05-09T18:39:31Z</time></trkpt>
<trkpt lat="50.682791" lon="4.906094"><time>2026-05-09T18:49:31Z</time></trkpt>
</trkseg></trk>
<trk>
<name>brmae1</name>
<cmt>d</cmt>
<desc>Autre-Eglise Chemin n°1 Rue de la brasserie</desc>
<link href="https://chemins.be/autreeglise/chemin/1"/><trkseg>
<trkpt lat="50.682791" lon="4.906094"><time>2026-05-09T18:49:31Z</time></trkpt>
<trkpt lat="50.681441" lon="4.905015"><time>2026-05-09T18:59:31Z</time></trkpt>
</trkseg></trk>
<trk>
<name>brmae1</name>
<cmt>q</cmt>
<desc>Autre-Eglise Chemin n°1 Rue de la brasserie</desc>
<link href="https://chemins.be/autreeglise/chemin/1"/><trkseg>
<trkpt lat="50.681441" lon="4.905015"><time>2026-05-09T18:59:31Z</time></trkpt>
<trkpt lat="50.680887" lon="4.904573"><time>2026-05-09T19:09:31Z</time></trkpt>
</trkseg></trk>
<trk>
<name>brmae1</name>
<cmt>d</cmt>
<desc>Autre-Eglise Chemin n°1 Rue de la brasserie</desc>
<link href="https://chemins.be/autreeglise/chemin/1"/><trkseg>
<trkpt lat="50.680887" lon="4.904573"><time>2026-05-09T19:09:31Z</time></trkpt>
<trkpt lat="50.680177" lon="4.903861"><time>2026-05-09T19:19:31Z</time></trkpt>
<trkpt lat="50.679367" lon="4.903581"><time>2026-05-09T19:29:31Z</time></trkpt>
<trkpt lat="50.678427" lon="4.901841"><time>2026-05-09T19:39:31Z</time></trkpt>
<trkpt lat="50.678327" lon="4.901601"><time>2026-05-09T19:49:31Z</time></trkpt>
</trkseg></trk>
<trk>
<name>brmae1</name>
<cmt>v</cmt>
<desc>Autre-Eglise Chemin n°1 Rue de la brasserie</desc>
<link href="https://chemins.be/autreeglise/chemin/1"/><trkseg>
<trkpt lat="50.678327" lon="4.901601"><time>2026-05-09T19:49:31Z</time></trkpt>
<trkpt lat="50.677177" lon="4.899801"><time>2026-05-09T19:59:31Z</time></trkpt>
<trkpt lat="50.676887" lon="4.899431"><time>2026-05-09T20:09:31Z</time></trkpt>
<trkpt lat="50.676177" lon="4.898771"><time>2026-05-09T20:19:31Z</time></trkpt>
<trkpt lat="50.675057" lon="4.898551"><time>2026-05-09T20:29:31Z</time></trkpt>
<trkpt lat="50.673497" lon="4.898381"><time>2026-05-09T20:39:31Z</time></trkpt>
</trkseg></trk>
<trk>
<name>brmae1</name>
<cmt>r</cmt>
<desc>Autre-Eglise Chemin n°1 Rue de la brasserie</desc>
<link href="https://chemins.be/autreeglise/chemin/1"/><trkseg>
<trkpt lat="50.673497" lon="4.898381"><time>2026-05-09T20:39:31Z</time></trkpt>
<trkpt lat="50.673127" lon="4.898371"><time>2026-05-09T20:49:31Z</time></trkpt>
<trkpt lat="50.671467" lon="4.898031"><time>2026-05-09T20:59:31Z</time></trkpt>
<trkpt lat="50.670986" lon="4.897295"><time>2026-05-09T21:09:31Z</time></trkpt>
<trkpt lat="50.669167" lon="4.895271"><time>2026-05-09T21:19:31Z</time></trkpt>
</trkseg></trk>
<trk>
<name>brmae1</name>
<cmt>v</cmt>
<desc>Autre-Eglise Chemin n°1 Rue de la brasserie</desc>
<link href="https://chemins.be/autreeglise/chemin/1"/><trkseg>
<trkpt lat="50.669167" lon="4.895271"><time>2026-05-09T21:19:31Z</time></trkpt>
<trkpt lat="50.665826" lon="4.892661"><time>2026-05-09T21:29:31Z</time></trkpt>
<trkpt lat="50.663576" lon="4.891561"><time>2026-05-09T21:39:31Z</time></trkpt>
<trkpt lat="50.662376" lon="4.892251"><time>2026-05-09T21:49:31Z</time></trkpt>
<trkpt lat="50.660534" lon="4.892617"><time>2026-05-09T21:59:31Z</time></trkpt>
<trkpt lat="50.659410" lon="4.893461"><time>2026-05-09T22:09:31Z</time></trkpt>
<trkpt lat="50.657316" lon="4.895621"><time>2026-05-09T22:19:31Z</time></trkpt>
<trkpt lat="50.655574" lon="4.896858"><time>2026-05-09T22:29:31Z</time></trkpt>
</trkseg></trk>
<trk>
<name>brmae1</name>
<cmt>r</cmt>
<desc>Autre-Eglise Chemin n°1 Rue de la brasserie</desc>
<link href="https://chemins.be/autreeglise/chemin/1"/><trkseg>
<trkpt lat="50.655574" lon="4.896858"><time>2026-05-09T22:29:31Z</time></trkpt>
<trkpt lat="50.655326" lon="4.897471"><time>2026-05-09T22:39:31Z</time></trkpt>
<trkpt lat="50.654996" lon="4.896961"><time>2026-05-09T22:49:31Z</time></trkpt>
<trkpt lat="50.654249" lon="4.897140"><time>2026-05-09T22:59:31Z</time></trkpt>
</trkseg></trk>
<trk>
<name>brmae1</name>
<cmt>v</cmt>
<desc>Autre-Eglise Chemin n°1 Rue de la brasserie</desc>
<link href="https://chemins.be/autreeglise/chemin/1"/><trkseg>
<trkpt lat="50.654249" lon="4.897140"><time>2026-05-09T22:59:31Z</time></trkpt>
<trkpt lat="50.653480" lon="4.897344"><time>2026-05-09T23:09:31Z</time></trkpt>
</trkseg>
</trk>
<trk>
<name>brmae11</name>
<cmt>v</cmt>
<desc>Autre-Eglise Chemin n°11 </desc>
<link href="https://chemins.be/autreeglise/chemin/11"/><trkseg>
<trkpt lat="50.669081" lon="4.903788"><time>2026-05-09T18:39:31Z</time></trkpt>
<trkpt lat="50.667808" lon="4.903282"><time>2026-05-09T18:49:31Z</time></trkpt>
<trkpt lat="50.667280" lon="4.902492"><time>2026-05-09T18:59:31Z</time></trkpt>
</trkseg>
</trk>
<trk>
<name>brmae12</name>
<cmt>v</cmt>
<desc>Autre-Eglise Chemin n°12 Rue de la Linière</desc>
<link href="https://chemins.be/autreeglise/chemin/12"/><trkseg>
<trkpt lat="50.678968" lon="4.921334"><time>2026-05-09T18:39:31Z</time></trkpt>
<trkpt lat="50.678764" lon="4.920334"><time>2026-05-09T18:49:31Z</time></trkpt>
<trkpt lat="50.677673" lon="4.916806"><time>2026-05-09T18:59:31Z</time></trkpt>
<trkpt lat="50.677656" lon="4.915507"><time>2026-05-09T19:09:31Z</time></trkpt>
<trkpt lat="50.677557" lon="4.913681"><time>2026-05-09T19:19:31Z</time></trkpt>
<trkpt lat="50.677489" lon="4.912803"><time>2026-05-09T19:29:31Z</time></trkpt>
<trkpt lat="50.677309" lon="4.909094"><time>2026-05-09T19:39:31Z</time></trkpt>
<trkpt lat="50.677240" lon="4.908343"><time>2026-05-09T19:49:31Z</time></trkpt>
<trkpt lat="50.677136" lon="4.907592"><time>2026-05-09T19:59:31Z</time></trkpt>
</trkseg>
</trk>
<trk>
<name>brmae12bis</name>
<cmt>v</cmt>
<desc>Autre-Eglise Chemin n°12bis </desc>
<link href="https://chemins.be/autreeglise/chemin/12bis"/><trkseg>
<trkpt lat="50.678884" lon="4.921046"><time>2026-05-09T18:39:31Z</time></trkpt>
<trkpt lat="50.678761" lon="4.921171"><time>2026-05-09T18:49:31Z</time></trkpt>
<trkpt lat="50.678710" lon="4.921626"><time>2026-05-09T18:59:31Z</time></trkpt>
</trkseg>
</trk>
<trk>
<name>brmae13</name>
<cmt>v</cmt>
<desc>Autre-Eglise Chemin n°13 </desc>
<link href="https://chemins.be/autreeglise/chemin/13"/><trkseg>
<trkpt lat="50.677121" lon="4.889057"><time>2026-05-09T18:39:31Z</time></trkpt>
<trkpt lat="50.677742" lon="4.892828"><time>2026-05-09T18:49:31Z</time></trkpt>
<trkpt lat="50.678394" lon="4.895451"><time>2026-05-09T18:59:31Z</time></trkpt>
<trkpt lat="50.678908" lon="4.897560"><time>2026-05-09T19:09:31Z</time></trkpt>
<trkpt lat="50.679078" lon="4.898121"><time>2026-05-09T19:19:31Z</time></trkpt>
<trkpt lat="50.679161" lon="4.898475"><time>2026-05-09T19:29:31Z</time></trkpt>
<trkpt lat="50.679390" lon="4.899026"><time>2026-05-09T19:39:31Z</time></trkpt>
<trkpt lat="50.680347" lon="4.901332"><time>2026-05-09T19:49:31Z</time></trkpt>
<trkpt lat="50.681551" lon="4.903767"><time>2026-05-09T19:59:31Z</time></trkpt>
<trkpt lat="50.681937" lon="4.904235"><time>2026-05-09T20:09:31Z</time></trkpt>
<trkpt lat="50.682098" lon="4.904762"><time>2026-05-09T20:19:31Z</time></trkpt>
<trkpt lat="50.682744" lon="4.905902"><time>2026-05-09T20:29:31Z</time></trkpt>
</trkseg>
</trk>
<trk>
<name>brmae14</name>
<cmt>v</cmt>
<desc>Autre-Eglise Chemin n°14 </desc>
<link href="https://chemins.be/autreeglise/chemin/14"/><trkseg>
<trkpt lat="50.675026" lon="4.905472"><time>2026-05-09T18:39:31Z</time></trkpt>
<trkpt lat="50.674980" lon="4.904764"><time>2026-05-09T18:49:31Z</time></trkpt>
</trkseg></trk>
<trk>
<name>brmae14</name>
<cmt>d</cmt>
<desc>Autre-Eglise Chemin n°14 </desc>
<link href="https://chemins.be/autreeglise/chemin/14"/><trkseg>
<trkpt lat="50.674980" lon="4.904764"><time>2026-05-09T18:49:31Z</time></trkpt>
<trkpt lat="50.676903" lon="4.899349"><time>2026-05-09T18:59:31Z</time></trkpt>
</trkseg></trk>
<trk>
<name>brmae14</name>
<cmt>v</cmt>
<desc>Autre-Eglise Chemin n°14 </desc>
<link href="https://chemins.be/autreeglise/chemin/14"/><trkseg>
<trkpt lat="50.676903" lon="4.899349"><time>2026-05-09T18:59:31Z</time></trkpt>
<trkpt lat="50.677653" lon="4.896732"><time>2026-05-09T19:09:31Z</time></trkpt>
<trkpt lat="50.678314" lon="4.895565"><time>2026-05-09T19:19:31Z</time></trkpt>
</trkseg>
</trk>
<trk>
<name>brmae16</name>
<cmt>b</cmt>
<desc>Autre-Eglise Chemin n°16 </desc>
<link href="https://chemins.be/autreeglise/chemin/16"/><trkseg>
<trkpt lat="50.666402" lon="4.911388"><time>2026-05-09T18:39:31Z</time></trkpt>
<trkpt lat="50.666613" lon="4.912409"><time>2026-05-09T18:49:31Z</time></trkpt>
<trkpt lat="50.666801" lon="4.912637"><time>2026-05-09T18:59:31Z</time></trkpt>
<trkpt lat="50.666960" lon="4.913078"><time>2026-05-09T19:09:31Z</time></trkpt>
<trkpt lat="50.667092" lon="4.914208"><time>2026-05-09T19:19:31Z</time></trkpt>
</trkseg>
</trk>
<trk>
<name>brmae17</name>
<cmt>v</cmt>
<desc>Autre-Eglise Chemin n°17 </desc>
<link href="https://chemins.be/autreeglise/chemin/17"/><trkseg>
<trkpt lat="50.666885" lon="4.917781"><time>2026-05-09T18:39:31Z</time></trkpt>
<trkpt lat="50.667680" lon="4.917060"><time>2026-05-09T18:49:31Z</time></trkpt>
</trkseg>
</trk>
<trk>
<name>brmae18</name>
<cmt>d</cmt>
<desc>Autre-Eglise Chemin n°18 </desc>
<link href="https://chemins.be/autreeglise/chemin/18"/><trkseg>
<trkpt lat="50.669409" lon="4.931326"><time>2026-05-09T18:39:31Z</time></trkpt>
<trkpt lat="50.669027" lon="4.931516"><time>2026-05-09T18:49:31Z</time></trkpt>
</trkseg></trk>
<trk>
<name>brmae18</name>
<cmt>v</cmt>
<desc>Autre-Eglise Chemin n°18 </desc>
<link href="https://chemins.be/autreeglise/chemin/18"/><trkseg>
<trkpt lat="50.669027" lon="4.931516"><time>2026-05-09T18:49:31Z</time></trkpt>
<trkpt lat="50.666771" lon="4.932045"><time>2026-05-09T18:59:31Z</time></trkpt>
</trkseg>
</trk>
<trk>
<name>brmae19</name>
<cmt>q</cmt>
<desc>Autre-Eglise Chemin n°19 Impasse du Piroy</desc>
<link href="https://chemins.be/autreeglise/chemin/19"/><trkseg>
<trkpt lat="50.664036" lon="4.919024"><time>2026-05-09T18:39:31Z</time></trkpt>
<trkpt lat="50.664457" lon="4.918500"><time>2026-05-09T18:49:31Z</time></trkpt>
</trkseg></trk>
<trk>
<name>brmae19</name>
<cmt>s</cmt>
<desc>Autre-Eglise Chemin n°19 Impasse du Piroy</desc>
<link href="https://chemins.be/autreeglise/chemin/19"/><trkseg>
<trkpt lat="50.664457" lon="4.918500"><time>2026-05-09T18:49:31Z</time></trkpt>
<trkpt lat="50.664651" lon="4.918307"><time>2026-05-09T18:59:31Z</time></trkpt>
<trkpt lat="50.664700" lon="4.917938"><time>2026-05-09T19:09:31Z</time></trkpt>
<trkpt lat="50.665327" lon="4.917215"><time>2026-05-09T19:19:31Z</time></trkpt>
</trkseg></trk>
<trk>
<name>brmae19</name>
<cmt>r</cmt>
<desc>Autre-Eglise Chemin n°19 Impasse du Piroy</desc>
<link href="https://chemins.be/autreeglise/chemin/19"/><trkseg>
<trkpt lat="50.665327" lon="4.917215"><time>2026-05-09T19:19:31Z</time></trkpt>
<trkpt lat="50.665914" lon="4.918373"><time>2026-05-09T19:29:31Z</time></trkpt>
</trkseg>
</trk>
<trk>
<name>brmae19bis</name>
<cmt>d</cmt>
<desc>Autre-Eglise Chemin n°19bis </desc>
<link href="https://chemins.be/autreeglise/chemin/19bis"/><trkseg>
<trkpt lat="50.665322" lon="4.917205"><time>2026-05-09T18:39:31Z</time></trkpt>
<trkpt lat="50.665093" lon="4.916752"><time>2026-05-09T18:49:31Z</time></trkpt>
</trkseg>
</trk>
<trk>
<name>brmae2</name>
<cmt>r</cmt>
<desc>Autre-Eglise Chemin n°2 Chemins des Meuniers</desc>
<link href="https://chemins.be/autreeglise/chemin/2"/><trkseg>
<trkpt lat="50.668131" lon="4.920164"><time>2026-05-09T18:39:31Z</time></trkpt>
<trkpt lat="50.669793" lon="4.919773"><time>2026-05-09T18:49:31Z</time></trkpt>
</trkseg></trk>
<trk>
<name>brmae2</name>
<cmt>v</cmt>
<desc>Autre-Eglise Chemin n°2 Chemins des Meuniers</desc>
<link href="https://chemins.be/autreeglise/chemin/2"/><trkseg>
<trkpt lat="50.669793" lon="4.919773"><time>2026-05-09T18:49:31Z</time></trkpt>
<trkpt lat="50.671038" lon="4.919621"><time>2026-05-09T18:59:31Z</time></trkpt>
<trkpt lat="50.673531" lon="4.919675"><time>2026-05-09T19:09:31Z</time></trkpt>
<trkpt lat="50.675555" lon="4.918335"><time>2026-05-09T19:19:31Z</time></trkpt>
<trkpt lat="50.676199" lon="4.917739"><time>2026-05-09T19:29:31Z</time></trkpt>
<trkpt lat="50.676680" lon="4.917334"><time>2026-05-09T19:39:31Z</time></trkpt>
<trkpt lat="50.677662" lon="4.916823"><time>2026-05-09T19:49:31Z</time></trkpt>
<trkpt lat="50.678317" lon="4.916418"><time>2026-05-09T19:59:31Z</time></trkpt>
<trkpt lat="50.680792" lon="4.914201"><time>2026-05-09T20:09:31Z</time></trkpt>
<trkpt lat="50.682146" lon="4.913279"><time>2026-05-09T20:19:31Z</time></trkpt>
<trkpt lat="50.684515" lon="4.912020"><time>2026-05-09T20:29:31Z</time></trkpt>
<trkpt lat="50.685771" lon="4.911540"><time>2026-05-09T20:39:31Z</time></trkpt>
</trkseg>
</trk>
<trk>
<name>brmae20</name>
<cmt>v</cmt>
<desc>Autre-Eglise Chemin n°20 Rue d'Offus</desc>
<link href="https://chemins.be/autreeglise/chemin/20"/><trkseg>
<trkpt lat="50.655439" lon="4.899137"><time>2026-05-09T18:39:31Z</time></trkpt>
<trkpt lat="50.654622" lon="4.901163"><time>2026-05-09T18:49:31Z</time></trkpt>
<trkpt lat="50.654229" lon="4.903349"><time>2026-05-09T18:59:31Z</time></trkpt>
</trkseg>
</trk>
<trk>
<name>brmae21</name>
<cmt>v</cmt>
<desc>Autre-Eglise Sentier n°21 Rue de Malcampé</desc>
<link href="https://chemins.be/autreeglise/sentier/21"/><trkseg>
<trkpt lat="50.655038" lon="4.907481"><time>2026-05-09T18:39:31Z</time></trkpt>
<trkpt lat="50.656362" lon="4.906945"><time>2026-05-09T18:49:31Z</time></trkpt>
<trkpt lat="50.658055" lon="4.905677"><time>2026-05-09T18:59:31Z</time></trkpt>
</trkseg></trk>
<trk>
<name>brmae21</name>
<cmt>d</cmt>
<desc>Autre-Eglise Sentier n°21 Rue de Malcampé</desc>
<link href="https://chemins.be/autreeglise/sentier/21"/><trkseg>
<trkpt lat="50.658055" lon="4.905677"><time>2026-05-09T18:59:31Z</time></trkpt>
<trkpt lat="50.659426" lon="4.904870"><time>2026-05-09T19:09:31Z</time></trkpt>
<trkpt lat="50.660612" lon="4.903135"><time>2026-05-09T19:19:31Z</time></trkpt>
</trkseg></trk>
<trk>
<name>brmae21</name>
<cmt>q</cmt>
<desc>Autre-Eglise Sentier n°21 Rue de Malcampé</desc>
<link href="https://chemins.be/autreeglise/sentier/21"/><trkseg>
<trkpt lat="50.660612" lon="4.903135"><time>2026-05-09T19:19:31Z</time></trkpt>
<trkpt lat="50.661048" lon="4.902501"><time>2026-05-09T19:29:31Z</time></trkpt>
<trkpt lat="50.661428" lon="4.902432"><time>2026-05-09T19:39:31Z</time></trkpt>
</trkseg></trk>
<trk>
<name>brmae21</name>
<cmt>v</cmt>
<desc>Autre-Eglise Sentier n°21 Rue de Malcampé</desc>
<link href="https://chemins.be/autreeglise/sentier/21"/><trkseg>
<trkpt lat="50.661428" lon="4.902432"><time>2026-05-09T19:39:31Z</time></trkpt>
<trkpt lat="50.662410" lon="4.901294"><time>2026-05-09T19:49:31Z</time></trkpt>
</trkseg></trk>
<trk>
<name>brmae21</name>
<cmt>d</cmt>
<desc>Autre-Eglise Sentier n°21 Rue de Malcampé</desc>
<link href="https://chemins.be/autreeglise/sentier/21"/><trkseg>
<trkpt lat="50.662410" lon="4.901294"><time>2026-05-09T19:49:31Z</time></trkpt>
<trkpt lat="50.664715" lon="4.898621"><time>2026-05-09T19:59:31Z</time></trkpt>
<trkpt lat="50.665454" lon="4.897814"><time>2026-05-09T20:09:31Z</time></trkpt>
<trkpt lat="50.666243" lon="4.897838"><time>2026-05-09T20:19:31Z</time></trkpt>
<trkpt lat="50.669458" lon="4.895497"><time>2026-05-09T20:29:31Z</time></trkpt>
</trkseg>
</trk>
<trk>
<name>brmae21bis</name>
<cmt>d</cmt>
<desc>Autre-Eglise Sentier n°21bis </desc>
<link href="https://chemins.be/autreeglise/sentier/21bis"/><trkseg>
<trkpt lat="50.662427" lon="4.901325"><time>2026-05-09T18:39:31Z</time></trkpt>
<trkpt lat="50.662938" lon="4.901983"><time>2026-05-09T18:49:31Z</time></trkpt>
</trkseg></trk>
<trk>
<name>brmae21bis</name>
<cmt>v</cmt>
<desc>Autre-Eglise Sentier n°21bis </desc>
<link href="https://chemins.be/autreeglise/sentier/21bis"/><trkseg>
<trkpt lat="50.662938" lon="4.901983"><time>2026-05-09T18:49:31Z</time></trkpt>
<trkpt lat="50.664261" lon="4.902776"><time>2026-05-09T18:59:31Z</time></trkpt>
<trkpt lat="50.666349" lon="4.902865"><time>2026-05-09T19:09:31Z</time></trkpt>
<trkpt lat="50.667276" lon="4.902535"><time>2026-05-09T19:19:31Z</time></trkpt>
</trkseg>
</trk>
<trk>
<name>brmae22</name>
<cmt>v</cmt>
<desc>Autre-Eglise Sentier n°22 Chemins des Meuniers</desc>
<link href="https://chemins.be/autreeglise/sentier/22"/><trkseg>
<trkpt lat="50.671515" lon="4.908357"><time>2026-05-09T18:39:31Z</time></trkpt>
<trkpt lat="50.672358" lon="4.910271"><time>2026-05-09T18:49:31Z</time></trkpt>
<trkpt lat="50.673977" lon="4.915956"><time>2026-05-09T18:59:31Z</time></trkpt>
</trkseg></trk>
<trk>
<name>brmae22</name>
<cmt>d</cmt>
<desc>Autre-Eglise Sentier n°22 Chemins des Meuniers</desc>
<link href="https://chemins.be/autreeglise/sentier/22"/><trkseg>
<trkpt lat="50.673977" lon="4.915956"><time>2026-05-09T18:59:31Z</time></trkpt>
<trkpt lat="50.674738" lon="4.918922"><time>2026-05-09T19:09:31Z</time></trkpt>
</trkseg></trk>
<trk>
<name>brmae22</name>
<cmt>v</cmt>
<desc>Autre-Eglise Sentier n°22 Chemins des Meuniers</desc>
<link href="https://chemins.be/autreeglise/sentier/22"/><trkseg>
<trkpt lat="50.674738" lon="4.918922"><time>2026-05-09T19:09:31Z</time></trkpt>
<trkpt lat="50.674425" lon="4.919089"><time>2026-05-09T19:19:31Z</time></trkpt>
</trkseg></trk>
<trk>
<name>brmae22</name>
<cmt>d</cmt>
<desc>Autre-Eglise Sentier n°22 Chemins des Meuniers</desc>
<link href="https://chemins.be/autreeglise/sentier/22"/><trkseg>
<trkpt lat="50.674425" lon="4.919089"><time>2026-05-09T19:19:31Z</time></trkpt>
<trkpt lat="50.674563" lon="4.919652"><time>2026-05-09T19:29:31Z</time></trkpt>
<trkpt lat="50.675035" lon="4.921081"><time>2026-05-09T19:39:31Z</time></trkpt>
<trkpt lat="50.676146" lon="4.925255"><time>2026-05-09T19:49:31Z</time></trkpt>
</trkseg>
</trk>
<trk>
<name>brmae23</name>
<cmt>s</cmt>
<desc>Autre-Eglise Sentier n°23 </desc>
<link href="https://chemins.be/autreeglise/sentier/23"/><trkseg>
<trkpt lat="50.671421" lon="4.908216"><time>2026-05-09T18:39:31Z</time></trkpt>
<trkpt lat="50.669425" lon="4.912885"><time>2026-05-09T18:49:31Z</time></trkpt>
<trkpt lat="50.667619" lon="4.915289"><time>2026-05-09T18:59:31Z</time></trkpt>
</trkseg>
</trk>
<trk>
<name>brmae24</name>
<cmt>d</cmt>
<desc>Autre-Eglise Sentier n°24 </desc>
<link href="https://chemins.be/autreeglise/sentier/24"/><trkseg>
<trkpt lat="50.668867" lon="4.910162"><time>2026-05-09T18:39:31Z</time></trkpt>
<trkpt lat="50.670043" lon="4.906407"><time>2026-05-09T18:49:31Z</time></trkpt>
<trkpt lat="50.670494" lon="4.904970"><time>2026-05-09T18:59:31Z</time></trkpt>
</trkseg></trk>
<trk>
<name>brmae24</name>
<cmt>s</cmt>
<desc>Autre-Eglise Sentier n°24 </desc>
<link href="https://chemins.be/autreeglise/sentier/24"/><trkseg>
<trkpt lat="50.670494" lon="4.904970"><time>2026-05-09T18:59:31Z</time></trkpt>
<trkpt lat="50.670543" lon="4.904163"><time>2026-05-09T19:09:31Z</time></trkpt>
<trkpt lat="50.670798" lon="4.903056"><time>2026-05-09T19:19:31Z</time></trkpt>
<trkpt lat="50.670562" lon="4.902621"><time>2026-05-09T19:29:31Z</time></trkpt>
<trkpt lat="50.670367" lon="4.901939"><time>2026-05-09T19:39:31Z</time></trkpt>
<trkpt lat="50.670465" lon="4.901334"><time>2026-05-09T19:49:31Z</time></trkpt>
<trkpt lat="50.670081" lon="4.900432"><time>2026-05-09T19:59:31Z</time></trkpt>
</trkseg>
</trk>
<trk>
<name>brmae25</name>
<cmt>s</cmt>
<desc>Autre-Eglise Sentier n°25 </desc>
<link href="https://chemins.be/autreeglise/sentier/25"/><trkseg>
<trkpt lat="50.663524" lon="4.924912"><time>2026-05-09T18:39:31Z</time></trkpt>
<trkpt lat="50.663707" lon="4.924646"><time>2026-05-09T18:49:31Z</time></trkpt>
<trkpt lat="50.663932" lon="4.923817"><time>2026-05-09T18:59:31Z</time></trkpt>
<trkpt lat="50.664394" lon="4.920304"><time>2026-05-09T19:09:31Z</time></trkpt>
<trkpt lat="50.664480" lon="4.919654"><time>2026-05-09T19:19:31Z</time></trkpt>
<trkpt lat="50.664699" lon="4.917988"><time>2026-05-09T19:29:31Z</time></trkpt>
<trkpt lat="50.665128" lon="4.916621"><time>2026-05-09T19:39:31Z</time></trkpt>
</trkseg></trk>
<trk>
<name>brmae25</name>
<cmt>q</cmt>
<desc>Autre-Eglise Sentier n°25 </desc>
<link href="https://chemins.be/autreeglise/sentier/25"/><trkseg>
<trkpt lat="50.665128" lon="4.916621"><time>2026-05-09T19:39:31Z</time></trkpt>
<trkpt lat="50.665435" lon="4.916214"><time>2026-05-09T19:49:31Z</time></trkpt>
<trkpt lat="50.666053" lon="4.914793"><time>2026-05-09T19:59:31Z</time></trkpt>
</trkseg></trk>
<trk>
<name>brmae25</name>
<cmt>v</cmt>
<desc>Autre-Eglise Sentier n°25 </desc>
<link href="https://chemins.be/autreeglise/sentier/25"/><trkseg>
<trkpt lat="50.666053" lon="4.914793"><time>2026-05-09T19:59:31Z</time></trkpt>
<trkpt lat="50.666159" lon="4.913394"><time>2026-05-09T20:09:31Z</time></trkpt>
<trkpt lat="50.665945" lon="4.912995"><time>2026-05-09T20:19:31Z</time></trkpt>
</trkseg></trk>
<trk>
<name>brmae25</name>
<cmt>d</cmt>
<desc>Autre-Eglise Sentier n°25 </desc>
<link href="https://chemins.be/autreeglise/sentier/25"/><trkseg>
<trkpt lat="50.665945" lon="4.912995"><time>2026-05-09T20:19:31Z</time></trkpt>
<trkpt lat="50.665634" lon="4.912284"><time>2026-05-09T20:29:31Z</time></trkpt>
<trkpt lat="50.665309" lon="4.912394"><time>2026-05-09T20:39:31Z</time></trkpt>
<trkpt lat="50.663855" lon="4.909958"><time>2026-05-09T20:49:31Z</time></trkpt>
<trkpt lat="50.663251" lon="4.908587"><time>2026-05-09T20:59:31Z</time></trkpt>
<trkpt lat="50.662510" lon="4.906087"><time>2026-05-09T21:09:31Z</time></trkpt>
<trkpt lat="50.661542" lon="4.903879"><time>2026-05-09T21:19:31Z</time></trkpt>
<trkpt lat="50.660973" lon="4.902579"><time>2026-05-09T21:29:31Z</time></trkpt>
<trkpt lat="50.660422" lon="4.900820"><time>2026-05-09T21:39:31Z</time></trkpt>
<trkpt lat="50.660701" lon="4.898009"><time>2026-05-09T21:49:31Z</time></trkpt>
</trkseg></trk>
<trk>
<name>brmae25</name>
<cmt>v</cmt>
<desc>Autre-Eglise Sentier n°25 </desc>
<link href="https://chemins.be/autreeglise/sentier/25"/><trkseg>
<trkpt lat="50.660701" lon="4.898009"><time>2026-05-09T21:49:31Z</time></trkpt>
<trkpt lat="50.659429" lon="4.893438"><time>2026-05-09T21:59:31Z</time></trkpt>
</trkseg></trk>
<trk>
<name>brmae25</name>
<cmt>d</cmt>
<desc>Autre-Eglise Sentier n°25 </desc>
<link href="https://chemins.be/autreeglise/sentier/25"/><trkseg>
<trkpt lat="50.659429" lon="4.893438"><time>2026-05-09T21:59:31Z</time></trkpt>
<trkpt lat="50.659796" lon="4.891250"><time>2026-05-09T22:09:31Z</time></trkpt>
</trkseg>
</trk>
<trk>
<name>brmae25bis</name>
<cmt>d</cmt>
<desc>Autre-Eglise Sentier n°25bis </desc>
<link href="https://chemins.be/autreeglise/sentier/25bis"/><trkseg>
<trkpt lat="50.663078" lon="4.923895"><time>2026-05-09T18:39:31Z</time></trkpt>
<trkpt lat="50.664041" lon="4.922972"><time>2026-05-09T18:49:31Z</time></trkpt>
</trkseg>
</trk>
<trk>
<name>brmae27</name>
<cmt>v</cmt>
<desc>Autre-Eglise Sentier n°27 </desc>
<link href="https://chemins.be/autreeglise/sentier/27"/><trkseg>
<trkpt lat="50.663652" lon="4.925131"><time>2026-05-09T18:39:31Z</time></trkpt>
<trkpt lat="50.663165" lon="4.925525"><time>2026-05-09T18:49:31Z</time></trkpt>
</trkseg></trk>
<trk>
<name>brmae27</name>
<cmt>d</cmt>
<desc>Autre-Eglise Sentier n°27 </desc>
<link href="https://chemins.be/autreeglise/sentier/27"/><trkseg>
<trkpt lat="50.663165" lon="4.925525"><time>2026-05-09T18:49:31Z</time></trkpt>
<trkpt lat="50.663263" lon="4.925920"><time>2026-05-09T18:59:31Z</time></trkpt>
<trkpt lat="50.662821" lon="4.928446"><time>2026-05-09T19:09:31Z</time></trkpt>
</trkseg></trk>
<trk>
<name>brmae27</name>
<cmt>b</cmt>
<desc>Autre-Eglise Sentier n°27 </desc>
<link href="https://chemins.be/autreeglise/sentier/27"/><trkseg>
<trkpt lat="50.662821" lon="4.928446"><time>2026-05-09T19:09:31Z</time></trkpt>
<trkpt lat="50.662306" lon="4.928943"><time>2026-05-09T19:19:31Z</time></trkpt>
</trkseg></trk>
<trk>
<name>brmae27</name>
<cmt>d</cmt>
<desc>Autre-Eglise Sentier n°27 </desc>
<link href="https://chemins.be/autreeglise/sentier/27"/><trkseg>
<trkpt lat="50.662306" lon="4.928943"><time>2026-05-09T19:19:31Z</time></trkpt>
<trkpt lat="50.660731" lon="4.930463"><time>2026-05-09T19:29:31Z</time></trkpt>
</trkseg>
</trk>
<trk>
<name>brmae28</name>
<cmt>d</cmt>
<desc>Autre-Eglise Sentier n°28 </desc>
<link href="https://chemins.be/autreeglise/sentier/28"/><trkseg>
<trkpt lat="50.662799" lon="4.928489"><time>2026-05-09T18:39:31Z</time></trkpt>
<trkpt lat="50.663577" lon="4.930781"><time>2026-05-09T18:49:31Z</time></trkpt>
</trkseg>
</trk>
<trk>
<name>brmae29</name>
<cmt>d</cmt>
<desc>Autre-Eglise Sentier n°29 </desc>
<link href="https://chemins.be/autreeglise/sentier/29"/><trkseg>
<trkpt lat="50.660624" lon="4.922184"><time>2026-05-09T18:39:31Z</time></trkpt>
<trkpt lat="50.659730" lon="4.925030"><time>2026-05-09T18:49:31Z</time></trkpt>
<trkpt lat="50.660471" lon="4.926412"><time>2026-05-09T18:59:31Z</time></trkpt>
</trkseg></trk>
<trk>
<name>brmae29</name>
<cmt>r</cmt>
<desc>Autre-Eglise Sentier n°29 </desc>
<link href="https://chemins.be/autreeglise/sentier/29"/><trkseg>
<trkpt lat="50.660471" lon="4.926412"><time>2026-05-09T18:59:31Z</time></trkpt>
<trkpt lat="50.660328" lon="4.926559"><time>2026-05-09T19:09:31Z</time></trkpt>
</trkseg></trk>
<trk>
<name>brmae29</name>
<cmt>d</cmt>
<desc>Autre-Eglise Sentier n°29 </desc>
<link href="https://chemins.be/autreeglise/sentier/29"/><trkseg>
<trkpt lat="50.660328" lon="4.926559"><time>2026-05-09T19:09:31Z</time></trkpt>
<trkpt lat="50.660471" lon="4.929933"><time>2026-05-09T19:19:31Z</time></trkpt>
</trkseg>
</trk>
<trk>
<name>brmae3</name>
<cmt>v</cmt>
<desc>Autre-Eglise Chemin n°3 Rue du Piroy / Vieux Chemin de Jauche</desc>
<link href="https://chemins.be/autreeglise/chemin/3"/><trkseg>
<trkpt lat="50.663906" lon="4.891881"><time>2026-05-09T18:39:31Z</time></trkpt>
<trkpt lat="50.666194" lon="4.897769"><time>2026-05-09T18:49:31Z</time></trkpt>
<trkpt lat="50.667289" lon="4.902540"><time>2026-05-09T18:59:31Z</time></trkpt>
<trkpt lat="50.667880" lon="4.905934"><time>2026-05-09T19:09:31Z</time></trkpt>
</trkseg></trk>
<trk>
<name>brmae3</name>
<cmt>d</cmt>
<desc>Autre-Eglise Chemin n°3 Rue du Piroy / Vieux Chemin de Jauche</desc>
<link href="https://chemins.be/autreeglise/chemin/3"/><trkseg>
<trkpt lat="50.667880" lon="4.905934"><time>2026-05-09T19:09:31Z</time></trkpt>
<trkpt lat="50.668267" lon="4.908029"><time>2026-05-09T19:19:31Z</time></trkpt>
</trkseg></trk>
<trk>
<name>brmae3</name>
<cmt>v</cmt>
<desc>Autre-Eglise Chemin n°3 Rue du Piroy / Vieux Chemin de Jauche</desc>
<link href="https://chemins.be/autreeglise/chemin/3"/><trkseg>
<trkpt lat="50.668267" lon="4.908029"><time>2026-05-09T19:19:31Z</time></trkpt>
<trkpt lat="50.668759" lon="4.910455"><time>2026-05-09T19:29:31Z</time></trkpt>
<trkpt lat="50.671056" lon="4.919675"><time>2026-05-09T19:39:31Z</time></trkpt>
<trkpt lat="50.672150" lon="4.923946"><time>2026-05-09T19:49:31Z</time></trkpt>
<trkpt lat="50.673589" lon="4.927797"><time>2026-05-09T19:59:31Z</time></trkpt>
</trkseg>
</trk>
<trk>
<name>brmae30</name>
<cmt>b</cmt>
<desc>Autre-Eglise Sentier n°30 </desc>
<link href="https://chemins.be/autreeglise/sentier/30"/><trkseg>
<trkpt lat="50.663808" lon="4.925377"><time>2026-05-09T18:39:31Z</time></trkpt>
<trkpt lat="50.664097" lon="4.926186"><time>2026-05-09T18:49:31Z</time></trkpt>
<trkpt lat="50.664158" lon="4.926337"><time>2026-05-09T18:59:31Z</time></trkpt>
<trkpt lat="50.665247" lon="4.927630"><time>2026-05-09T19:09:31Z</time></trkpt>
</trkseg>
</trk>
<trk>
<name>brmae31</name>
<cmt>s</cmt>
<desc>Autre-Eglise Sentier n°31 </desc>
<link href="https://chemins.be/autreeglise/sentier/31"/><trkseg>
<trkpt lat="50.663936" lon="4.923846"><time>2026-05-09T18:39:31Z</time></trkpt>
<trkpt lat="50.665361" lon="4.922970"><time>2026-05-09T18:49:31Z</time></trkpt>
</trkseg></trk>
<trk>
<name>brmae31</name>
<cmt>b</cmt>
<desc>Autre-Eglise Sentier n°31 </desc>
<link href="https://chemins.be/autreeglise/sentier/31"/><trkseg>
<trkpt lat="50.665361" lon="4.922970"><time>2026-05-09T18:49:31Z</time></trkpt>
<trkpt lat="50.665795" lon="4.922472"><time>2026-05-09T18:59:31Z</time></trkpt>
<trkpt lat="50.666863" lon="4.921244"><time>2026-05-09T19:09:31Z</time></trkpt>
</trkseg></trk>
<trk>
<name>brmae31</name>
<cmt>s</cmt>
<desc>Autre-Eglise Sentier n°31 </desc>
<link href="https://chemins.be/autreeglise/sentier/31"/><trkseg>
<trkpt lat="50.666863" lon="4.921244"><time>2026-05-09T19:09:31Z</time></trkpt>
<trkpt lat="50.667608" lon="4.920387"><time>2026-05-09T19:19:31Z</time></trkpt>
</trkseg>
</trk>
<trk>
<name>brmae32</name>
<cmt>s</cmt>
<desc>Autre-Eglise Sentier n°32 Chemins des Meuniers</desc>
<link href="https://chemins.be/autreeglise/sentier/32"/><trkseg>
<trkpt lat="50.668065" lon="4.918258"><time>2026-05-09T18:39:31Z</time></trkpt>
<trkpt lat="50.668891" lon="4.918735"><time>2026-05-09T18:49:31Z</time></trkpt>
<trkpt lat="50.669747" lon="4.919799"><time>2026-05-09T18:59:31Z</time></trkpt>
</trkseg></trk>
<trk>
<name>brmae32</name>
<cmt>v</cmt>
<desc>Autre-Eglise Sentier n°32 Chemins des Meuniers</desc>
<link href="https://chemins.be/autreeglise/sentier/32"/><trkseg>
<trkpt lat="50.669747" lon="4.919799"><time>2026-05-09T18:59:31Z</time></trkpt>
<trkpt lat="50.671097" lon="4.919577"><time>2026-05-09T19:09:31Z</time></trkpt>
<trkpt lat="50.673384" lon="4.919656"><time>2026-05-09T19:19:31Z</time></trkpt>
<trkpt lat="50.673706" lon="4.919513"><time>2026-05-09T19:29:31Z</time></trkpt>
</trkseg></trk>
<trk>
<name>brmae32</name>
<cmt>d</cmt>
<desc>Autre-Eglise Sentier n°32 Chemins des Meuniers</desc>
<link href="https://chemins.be/autreeglise/sentier/32"/><trkseg>
<trkpt lat="50.673706" lon="4.919513"><time>2026-05-09T19:29:31Z</time></trkpt>
<trkpt lat="50.675515" lon="4.920797"><time>2026-05-09T19:39:31Z</time></trkpt>
<trkpt lat="50.677149" lon="4.921540"><time>2026-05-09T19:49:31Z</time></trkpt>
<trkpt lat="50.679010" lon="4.921339"><time>2026-05-09T19:59:31Z</time></trkpt>
</trkseg>
</trk>
<trk>
<name>brmae33</name>
<cmt>q</cmt>
<desc>Autre-Eglise Sentier n°33 </desc>
<link href="https://chemins.be/autreeglise/sentier/33"/><trkseg>
<trkpt lat="50.676345" lon="4.898913"><time>2026-05-09T18:39:31Z</time></trkpt>
<trkpt lat="50.677161" lon="4.898778"><time>2026-05-09T18:49:31Z</time></trkpt>
<trkpt lat="50.679051" lon="4.898155"><time>2026-05-09T18:59:31Z</time></trkpt>
</trkseg>
</trk>
<trk>
<name>brmae34</name>
<cmt>d</cmt>
<desc>Autre-Eglise Sentier n°34 </desc>
<link href="https://chemins.be/autreeglise/sentier/34"/><trkseg>
<trkpt lat="50.660870" lon="4.917774"><time>2026-05-09T18:39:31Z</time></trkpt>
<trkpt lat="50.660905" lon="4.916133"><time>2026-05-09T18:49:31Z</time></trkpt>
<trkpt lat="50.660232" lon="4.912914"><time>2026-05-09T18:59:31Z</time></trkpt>
<trkpt lat="50.659589" lon="4.910764"><time>2026-05-09T19:09:31Z</time></trkpt>
<trkpt lat="50.659638" lon="4.909688"><time>2026-05-09T19:19:31Z</time></trkpt>
</trkseg>
</trk>
<trk>
<name>brmae35</name>
<cmt>d</cmt>
<desc>Autre-Eglise Sentier n°35 </desc>
<link href="https://chemins.be/autreeglise/sentier/35"/><trkseg>
<trkpt lat="50.663452" lon="4.917036"><time>2026-05-09T18:39:31Z</time></trkpt>
<trkpt lat="50.663539" lon="4.916413"><time>2026-05-09T18:49:31Z</time></trkpt>
<trkpt lat="50.663664" lon="4.915268"><time>2026-05-09T18:59:31Z</time></trkpt>
<trkpt lat="50.663267" lon="4.914599"><time>2026-05-09T19:09:31Z</time></trkpt>
<trkpt lat="50.663528" lon="4.913826"><time>2026-05-09T19:19:31Z</time></trkpt>
<trkpt lat="50.662815" lon="4.912556"><time>2026-05-09T19:29:31Z</time></trkpt>
<trkpt lat="50.662750" lon="4.906822"><time>2026-05-09T19:39:31Z</time></trkpt>
</trkseg>
</trk>
<trk>
<name>brmae36</name>
<cmt>v</cmt>
<desc>Autre-Eglise Sentier n°36 </desc>
<link href="https://chemins.be/autreeglise/sentier/36"/><trkseg>
<trkpt lat="50.670294" lon="4.885161"><time>2026-05-09T18:39:31Z</time></trkpt>
<trkpt lat="50.666845" lon="4.887323"><time>2026-05-09T18:49:31Z</time></trkpt>
<trkpt lat="50.665974" lon="4.888130"><time>2026-05-09T18:59:31Z</time></trkpt>
<trkpt lat="50.664604" lon="4.890671"><time>2026-05-09T19:09:31Z</time></trkpt>
<trkpt lat="50.663581" lon="4.891529"><time>2026-05-09T19:19:31Z</time></trkpt>
</trkseg>
</trk>
<trk>
<name>brmae37</name>
<cmt>d</cmt>
<desc>Autre-Eglise Sentier n°37 </desc>
<link href="https://chemins.be/autreeglise/sentier/37"/><trkseg>
<trkpt lat="50.676356" lon="4.906571"><time>2026-05-09T18:39:31Z</time></trkpt>
<trkpt lat="50.677226" lon="4.908666"><time>2026-05-09T18:49:31Z</time></trkpt>
<trkpt lat="50.679858" lon="4.911859"><time>2026-05-09T18:59:31Z</time></trkpt>
<trkpt lat="50.680761" lon="4.914159"><time>2026-05-09T19:09:31Z</time></trkpt>
</trkseg></trk>
<trk>
<name>brmae37</name>
<cmt>s</cmt>
<desc>Autre-Eglise Sentier n°37 </desc>
<link href="https://chemins.be/autreeglise/sentier/37"/><trkseg>
<trkpt lat="50.680761" lon="4.914159"><time>2026-05-09T19:09:31Z</time></trkpt>
<trkpt lat="50.682492" lon="4.915897"><time>2026-05-09T19:19:31Z</time></trkpt>
</trkseg>
</trk>
<trk>
<name>brmae38</name>
<cmt>d</cmt>
<desc>Autre-Eglise Sentier n°38 </desc>
<link href="https://chemins.be/autreeglise/sentier/38"/><trkseg>
<trkpt lat="50.675422" lon="4.905323"><time>2026-05-09T18:39:31Z</time></trkpt>
<trkpt lat="50.677173" lon="4.907503"><time>2026-05-09T18:49:31Z</time></trkpt>
<trkpt lat="50.678892" lon="4.908721"><time>2026-05-09T18:59:31Z</time></trkpt>
<trkpt lat="50.679115" lon="4.909803"><time>2026-05-09T19:09:31Z</time></trkpt>
<trkpt lat="50.679539" lon="4.909597"><time>2026-05-09T19:19:31Z</time></trkpt>
<trkpt lat="50.681916" lon="4.910713"><time>2026-05-09T19:29:31Z</time></trkpt>
<trkpt lat="50.683319" lon="4.912610"><time>2026-05-09T19:39:31Z</time></trkpt>
</trkseg>
</trk>
<trk>
<name>brmae39</name>
<cmt>d</cmt>
<desc>Autre-Eglise Sentier n°39 </desc>
<link href="https://chemins.be/autreeglise/sentier/39"/><trkseg>
<trkpt lat="50.655441" lon="4.899083"><time>2026-05-09T18:39:31Z</time></trkpt>
<trkpt lat="50.656141" lon="4.898150"><time>2026-05-09T18:49:31Z</time></trkpt>
<trkpt lat="50.656624" lon="4.897667"><time>2026-05-09T18:59:31Z</time></trkpt>
<trkpt lat="50.657094" lon="4.895918"><time>2026-05-09T19:09:31Z</time></trkpt>
</trkseg>
</trk>
<trk>
<name>brmae4</name>
<cmt>r</cmt>
<desc>Autre-Eglise Chemin n°4 Rue du Fodia</desc>
<link href="https://chemins.be/autreeglise/chemin/4"/><trkseg>
<trkpt lat="50.660931" lon="4.922074"><time>2026-05-09T18:39:31Z</time></trkpt>
<trkpt lat="50.659296" lon="4.921786"><time>2026-05-09T18:49:31Z</time></trkpt>
<trkpt lat="50.658802" lon="4.921228"><time>2026-05-09T18:59:31Z</time></trkpt>
<trkpt lat="50.656568" lon="4.920708"><time>2026-05-09T19:09:31Z</time></trkpt>
<trkpt lat="50.654658" lon="4.920813"><time>2026-05-09T19:19:31Z</time></trkpt>
<trkpt lat="50.653388" lon="4.920055"><time>2026-05-09T19:29:31Z</time></trkpt>
<trkpt lat="50.652227" lon="4.919096"><time>2026-05-09T19:39:31Z</time></trkpt>
<trkpt lat="50.651510" lon="4.919554"><time>2026-05-09T19:49:31Z</time></trkpt>
</trkseg>
</trk>
<trk>
<name>brmae40</name>
<cmt>s</cmt>
<desc>Autre-Eglise Sentier n°40 </desc>
<link href="https://chemins.be/autreeglise/sentier/40"/><trkseg>
<trkpt lat="50.658680" lon="4.925339"><time>2026-05-09T18:39:31Z</time></trkpt>
<trkpt lat="50.658734" lon="4.928567"><time>2026-05-09T18:49:31Z</time></trkpt>
</trkseg>
</trk>
<trk>
<name>brmae41</name>
<cmt>d</cmt>
<desc>Autre-Eglise Sentier n°41 </desc>
<link href="https://chemins.be/autreeglise/sentier/41"/><trkseg>
<trkpt lat="50.664515" lon="4.924663"><time>2026-05-09T18:39:31Z</time></trkpt>
<trkpt lat="50.663568" lon="4.923285"><time>2026-05-09T18:49:31Z</time></trkpt>
<trkpt lat="50.662472" lon="4.920859"><time>2026-05-09T18:59:31Z</time></trkpt>
</trkseg>
</trk>
<trk>
<name>brmae42</name>
<cmt>d</cmt>
<desc>Autre-Eglise Sentier n°42 Rue du Piroy</desc>
<link href="https://chemins.be/autreeglise/sentier/42"/><trkseg>
<trkpt lat="50.665372" lon="4.922919"><time>2026-05-09T18:39:31Z</time></trkpt>
<trkpt lat="50.665515" lon="4.921748"><time>2026-05-09T18:49:31Z</time></trkpt>
<trkpt lat="50.665929" lon="4.918348"><time>2026-05-09T18:59:31Z</time></trkpt>
</trkseg></trk>
<trk>
<name>brmae42</name>
<cmt>r</cmt>
<desc>Autre-Eglise Sentier n°42 Rue du Piroy</desc>
<link href="https://chemins.be/autreeglise/sentier/42"/><trkseg>
<trkpt lat="50.665929" lon="4.918348"><time>2026-05-09T18:59:31Z</time></trkpt>
<trkpt lat="50.666286" lon="4.918147"><time>2026-05-09T19:09:31Z</time></trkpt>
</trkseg></trk>
<trk>
<name>brmae42</name>
<cmt>v</cmt>
<desc>Autre-Eglise Sentier n°42 Rue du Piroy</desc>
<link href="https://chemins.be/autreeglise/sentier/42"/><trkseg>
<trkpt lat="50.666286" lon="4.918147"><time>2026-05-09T19:09:31Z</time></trkpt>
<trkpt lat="50.666112" lon="4.917580"><time>2026-05-09T19:19:31Z</time></trkpt>
<trkpt lat="50.666034" lon="4.917056"><time>2026-05-09T19:29:31Z</time></trkpt>
<trkpt lat="50.666080" lon="4.914821"><time>2026-05-09T19:39:31Z</time></trkpt>
</trkseg>
</trk>
<trk>
<name>brmae43</name>
<cmt>v</cmt>
<desc>Autre-Eglise Sentier n°43 </desc>
<link href="https://chemins.be/autreeglise/sentier/43"/><trkseg>
<trkpt lat="50.664887" lon="4.910409"><time>2026-05-09T18:39:31Z</time></trkpt>
<trkpt lat="50.663919" lon="4.908740"><time>2026-05-09T18:49:31Z</time></trkpt>
<trkpt lat="50.663503" lon="4.908684"><time>2026-05-09T18:59:31Z</time></trkpt>
<trkpt lat="50.663233" lon="4.908465"><time>2026-05-09T19:09:31Z</time></trkpt>
</trkseg>
</trk>
<trk>
<name>brmae45</name>
<cmt>v</cmt>
<desc>Autre-Eglise Sentier n°45 Rue de Bomal</desc>
<link href="https://chemins.be/autreeglise/sentier/45"/><trkseg>
<trkpt lat="50.671736" lon="4.898129"><time>2026-05-09T18:39:31Z</time></trkpt>
<trkpt lat="50.672448" lon="4.901262"><time>2026-05-09T18:49:31Z</time></trkpt>
</trkseg></trk>
<trk>
<name>brmae45</name>
<cmt>r</cmt>
<desc>Autre-Eglise Sentier n°45 Rue de Bomal</desc>
<link href="https://chemins.be/autreeglise/sentier/45"/><trkseg>
<trkpt lat="50.672448" lon="4.901262"><time>2026-05-09T18:49:31Z</time></trkpt>
<trkpt lat="50.672853" lon="4.900961"><time>2026-05-09T18:59:31Z</time></trkpt>
</trkseg></trk>
<trk>
<name>brmae45</name>
<cmt>s</cmt>
<desc>Autre-Eglise Sentier n°45 Rue de Bomal</desc>
<link href="https://chemins.be/autreeglise/sentier/45"/><trkseg>
<trkpt lat="50.672853" lon="4.900961"><time>2026-05-09T18:59:31Z</time></trkpt>
<trkpt lat="50.673400" lon="4.902386"><time>2026-05-09T19:09:31Z</time></trkpt>
<trkpt lat="50.673722" lon="4.904265"><time>2026-05-09T19:19:31Z</time></trkpt>
<trkpt lat="50.673531" lon="4.904497"><time>2026-05-09T19:29:31Z</time></trkpt>
</trkseg>
</trk>
<trk>
<name>brmae47</name>
<cmt>b</cmt>
<desc>Autre-Eglise Sentier n°47 </desc>
<link href="https://chemins.be/autreeglise/sentier/47"/><trkseg>
<trkpt lat="50.667178" lon="4.922423"><time>2026-05-09T18:39:31Z</time></trkpt>
<trkpt lat="50.667512" lon="4.923045"><time>2026-05-09T18:49:31Z</time></trkpt>
<trkpt lat="50.668198" lon="4.923393"><time>2026-05-09T18:59:31Z</time></trkpt>
<trkpt lat="50.668739" lon="4.922929"><time>2026-05-09T19:09:31Z</time></trkpt>
</trkseg>
</trk>
<trk>
<name>brmae48</name>
<cmt>d</cmt>
<desc>Autre-Eglise Sentier n°48 </desc>
<link href="https://chemins.be/autreeglise/sentier/48"/><trkseg>
<trkpt lat="50.674975" lon="4.904734"><time>2026-05-09T18:39:31Z</time></trkpt>
<trkpt lat="50.674899" lon="4.903407"><time>2026-05-09T18:49:31Z</time></trkpt>
<trkpt lat="50.674964" lon="4.901682"><time>2026-05-09T18:59:31Z</time></trkpt>
<trkpt lat="50.675410" lon="4.898665"><time>2026-05-09T19:09:31Z</time></trkpt>
</trkseg>
</trk>
<trk>
<name>brmae50</name>
<cmt>v</cmt>
<desc>Autre-Eglise Chemin n°50 Rue Bois des Cuves</desc>
<link href="https://chemins.be/autreeglise/chemin/50"/><trkseg>
<trkpt lat="50.665575" lon="4.911741"><time>2026-05-09T18:39:31Z</time></trkpt>
<trkpt lat="50.664870" lon="4.910446"><time>2026-05-09T18:49:31Z</time></trkpt>
<trkpt lat="50.663857" lon="4.908705"><time>2026-05-09T18:59:31Z</time></trkpt>
<trkpt lat="50.663509" lon="4.908641"><time>2026-05-09T19:09:31Z</time></trkpt>
<trkpt lat="50.663232" lon="4.908459"><time>2026-05-09T19:19:31Z</time></trkpt>
</trkseg>
</trk>
<trk>
<name>brmae51</name>
<cmt>r</cmt>
<desc>Autre-Eglise Chemin n°51 Rue du Piroy</desc>
<link href="https://chemins.be/autreeglise/chemin/51"/><trkseg>
<trkpt lat="50.667020" lon="4.915425"><time>2026-05-09T18:39:31Z</time></trkpt>
<trkpt lat="50.667060" lon="4.914550"><time>2026-05-09T18:49:31Z</time></trkpt>
<trkpt lat="50.667088" lon="4.914073"><time>2026-05-09T18:59:31Z</time></trkpt>
<trkpt lat="50.667405" lon="4.913680"><time>2026-05-09T19:09:31Z</time></trkpt>
<trkpt lat="50.667861" lon="4.913398"><time>2026-05-09T19:19:31Z</time></trkpt>
</trkseg>
</trk>
<trk>
<name>brmae52</name>
<cmt>v</cmt>
<desc>Autre-Eglise Chemin n°52 Rue Neuve</desc>
<link href="https://chemins.be/autreeglise/chemin/52"/><trkseg>
<trkpt lat="50.666702" lon="4.916413"><time>2026-05-09T18:39:31Z</time></trkpt>
<trkpt lat="50.666819" lon="4.916457"><time>2026-05-09T18:49:31Z</time></trkpt>
<trkpt lat="50.667594" lon="4.916084"><time>2026-05-09T18:59:31Z</time></trkpt>
</trkseg>
</trk>
<trk>
<name>brmae53</name>
<cmt>v</cmt>
<desc>Autre-Eglise Chemin n°53 Impasse de Fagneton</desc>
<link href="https://chemins.be/autreeglise/chemin/53"/><trkseg>
<trkpt lat="50.658894" lon="4.915732"><time>2026-05-09T18:39:31Z</time></trkpt>
<trkpt lat="50.658324" lon="4.916268"><time>2026-05-09T18:49:31Z</time></trkpt>
<trkpt lat="50.658024" lon="4.916551"><time>2026-05-09T18:59:31Z</time></trkpt>
</trkseg>
</trk>
<trk>
<name>brmae54</name>
<cmt>v</cmt>
<desc>Autre-Eglise Chemin n°54 Rue de la Source</desc>
<link href="https://chemins.be/autreeglise/chemin/54"/><trkseg>
<trkpt lat="50.658181" lon="4.913921"><time>2026-05-09T18:39:31Z</time></trkpt>
<trkpt lat="50.657583" lon="4.914466"><time>2026-05-09T18:49:31Z</time></trkpt>
<trkpt lat="50.657333" lon="4.915084"><time>2026-05-09T18:59:31Z</time></trkpt>
<trkpt lat="50.657488" lon="4.916015"><time>2026-05-09T19:09:31Z</time></trkpt>
</trkseg>
</trk>
<trk>
<name>brmae6</name>
<cmt>v</cmt>
<desc>Autre-Eglise Chemin n°6 Rue de Frambay</desc>
<link href="https://chemins.be/autreeglise/chemin/6"/><trkseg>
<trkpt lat="50.665440" lon="4.928492"><time>2026-05-09T18:39:31Z</time></trkpt>
<trkpt lat="50.665603" lon="4.929178"><time>2026-05-09T18:49:31Z</time></trkpt>
<trkpt lat="50.666123" lon="4.930467"><time>2026-05-09T18:59:31Z</time></trkpt>
<trkpt lat="50.666500" lon="4.931427"><time>2026-05-09T19:09:31Z</time></trkpt>
<trkpt lat="50.666628" lon="4.932029"><time>2026-05-09T19:19:31Z</time></trkpt>
<trkpt lat="50.667256" lon="4.934045"><time>2026-05-09T19:29:31Z</time></trkpt>
<trkpt lat="50.667847" lon="4.935336"><time>2026-05-09T19:39:31Z</time></trkpt>
</trkseg>
</trk>
<trk>
<name>brmae7</name>
<cmt>v</cmt>
<desc>Autre-Eglise Chemin n°7 Rue de Frambay</desc>
<link href="https://chemins.be/autreeglise/chemin/7"/><trkseg>
<trkpt lat="50.665557" lon="4.928536"><time>2026-05-09T18:39:31Z</time></trkpt>
<trkpt lat="50.667071" lon="4.929544"><time>2026-05-09T18:49:31Z</time></trkpt>
<trkpt lat="50.668792" lon="4.930739"><time>2026-05-09T18:59:31Z</time></trkpt>
<trkpt lat="50.668935" lon="4.930741"><time>2026-05-09T19:09:31Z</time></trkpt>
<trkpt lat="50.669490" lon="4.931356"><time>2026-05-09T19:19:31Z</time></trkpt>
<trkpt lat="50.670160" lon="4.932142"><time>2026-05-09T19:29:31Z</time></trkpt>
</trkseg>
</trk>
<trk>
<name>brmae9</name>
<cmt>v</cmt>
<desc>Autre-Eglise Chemin n°9 </desc>
<link href="https://chemins.be/autreeglise/chemin/9"/><trkseg>
<trkpt lat="50.654461" lon="4.909850"><time>2026-05-09T18:39:31Z</time></trkpt>
<trkpt lat="50.654654" lon="4.913685"><time>2026-05-09T18:49:31Z</time></trkpt>
<trkpt lat="50.654427" lon="4.915366"><time>2026-05-09T18:59:31Z</time></trkpt>
<trkpt lat="50.654940" lon="4.916777"><time>2026-05-09T19:09:31Z</time></trkpt>
<trkpt lat="50.655039" lon="4.918183"><time>2026-05-09T19:19:31Z</time></trkpt>
<trkpt lat="50.656496" lon="4.920778"><time>2026-05-09T19:29:31Z</time></trkpt>
<trkpt lat="50.658699" lon="4.925436"><time>2026-05-09T19:39:31Z</time></trkpt>
<trkpt lat="50.660204" lon="4.926517"><time>2026-05-09T19:49:31Z</time></trkpt>
</trkseg>
</trk>
<trk>
<name>brmaei10</name>
<cmt>v</cmt>
<desc>Autre-Eglise Chemin n°i10 RAVel</desc>
<link href="https://chemins.be/autreeglise/chemin/i10"/><trkseg>
<trkpt lat="50.657093" lon="4.903734"><time>2026-05-09T18:39:31Z</time></trkpt>
<trkpt lat="50.658104" lon="4.901674"><time>2026-05-09T18:49:31Z</time></trkpt>
<trkpt lat="50.658435" lon="4.901038"><time>2026-05-09T18:59:31Z</time></trkpt>
</trkseg>
</trk>
<trk>
<name>brmaei2</name>
<cmt>v</cmt>
<desc>Autre-Eglise Sentier n°i2 </desc>
<link href="https://chemins.be/autreeglise/sentier/i2"/><trkseg>
<trkpt lat="50.665636" lon="4.911789"><time>2026-05-09T18:39:31Z</time></trkpt>
<trkpt lat="50.665769" lon="4.912243"><time>2026-05-09T18:49:31Z</time></trkpt>
<trkpt lat="50.665982" lon="4.912826"><time>2026-05-09T18:59:31Z</time></trkpt>
<trkpt lat="50.665963" lon="4.913038"><time>2026-05-09T19:09:31Z</time></trkpt>
</trkseg>
</trk>
<trk>
<name>brmaei3</name>
<cmt>s</cmt>
<desc>Autre-Eglise Chemin n°i3 Ruelle</desc>
<link href="https://chemins.be/autreeglise/chemin/i3"/><trkseg>
<trkpt lat="50.666720" lon="4.916604"><time>2026-05-09T18:39:31Z</time></trkpt>
<trkpt lat="50.666048" lon="4.916746"><time>2026-05-09T18:49:31Z</time></trkpt>
</trkseg>
</trk>
<trk>
<name>brmaei4</name>
<cmt>v</cmt>
<desc>Autre-Eglise Chemin n°i4 </desc>
<link href="https://chemins.be/autreeglise/chemin/i4"/><trkseg>
<trkpt lat="50.668666" lon="4.906160"><time>2026-05-09T18:39:31Z</time></trkpt>
<trkpt lat="50.668568" lon="4.905997"><time>2026-05-09T18:49:31Z</time></trkpt>
<trkpt lat="50.667928" lon="4.905916"><time>2026-05-09T18:59:31Z</time></trkpt>
<trkpt lat="50.667202" lon="4.906109"><time>2026-05-09T19:09:31Z</time></trkpt>
</trkseg>
</trk>
<trk>
<name>brmaei5</name>
<cmt>v</cmt>
<desc>Autre-Eglise Chemin n°i5 RAVeL</desc>
<link href="https://chemins.be/autreeglise/chemin/i5"/><trkseg>
<trkpt lat="50.654005" lon="4.896383"><time>2026-05-09T18:39:31Z</time></trkpt>
<trkpt lat="50.655161" lon="4.896748"><time>2026-05-09T18:49:31Z</time></trkpt>
</trkseg>
</trk>
<trk>
<name>brmaei6</name>
<cmt>v</cmt>
<desc>Autre-Eglise Chemin n°i6 </desc>
<link href="https://chemins.be/autreeglise/chemin/i6"/><trkseg>
<trkpt lat="50.668771" lon="4.930735"><time>2026-05-09T18:39:31Z</time></trkpt>
<trkpt lat="50.669039" lon="4.931525"><time>2026-05-09T18:49:31Z</time></trkpt>
</trkseg>
</trk>
<trk>
<name>brmaei7</name>
<cmt>q</cmt>
<desc>Autre-Eglise Sentier n°i7 </desc>
<link href="https://chemins.be/autreeglise/sentier/i7"/><trkseg>
<trkpt lat="50.662287" lon="4.928960"><time>2026-05-09T18:39:31Z</time></trkpt>
<trkpt lat="50.661979" lon="4.932387"><time>2026-05-09T18:49:31Z</time></trkpt>
<trkpt lat="50.661911" lon="4.932700"><time>2026-05-09T18:59:31Z</time></trkpt>
</trkseg>
</trk>
<trk>
<name>brmaeL142</name>
<cmt>v</cmt>
<desc>Autre-Eglise Chemin n°L142 RAVeL / RAVeL L142</desc>
<link href="https://chemins.be/autreeglise/chemin/L142"/><trkseg>
<trkpt lat="50.654986" lon="4.896351"><time>2026-05-09T18:39:31Z</time></trkpt>
<trkpt lat="50.657369" lon="4.899686"><time>2026-05-09T18:49:31Z</time></trkpt>
<trkpt lat="50.658408" lon="4.901095"><time>2026-05-09T18:59:31Z</time></trkpt>
<trkpt lat="50.660406" lon="4.902981"><time>2026-05-09T19:09:31Z</time></trkpt>
<trkpt lat="50.663656" lon="4.905171"><time>2026-05-09T19:19:31Z</time></trkpt>
<trkpt lat="50.667175" lon="4.906114"><time>2026-05-09T19:29:31Z</time></trkpt>
<trkpt lat="50.667966" lon="4.906221"><time>2026-05-09T19:39:31Z</time></trkpt>
<trkpt lat="50.668638" lon="4.906293"><time>2026-05-09T19:49:31Z</time></trkpt>
<trkpt lat="50.673776" lon="4.906904"><time>2026-05-09T19:59:31Z</time></trkpt>
<trkpt lat="50.676947" lon="4.906821"><time>2026-05-09T20:09:31Z</time></trkpt>
<trkpt lat="50.682081" lon="4.904568"><time>2026-05-09T20:19:31Z</time></trkpt>
</trkseg>
</trk>
<trk>
<name>brmaeL147</name>
<cmt>v</cmt>
<desc>Autre-Eglise Chemin n°L147 RAVel / RAVel L147</desc>
<link href="https://chemins.be/autreeglise/chemin/L147"/><trkseg>
<trkpt lat="50.654963" lon="4.896435"><time>2026-05-09T18:39:31Z</time></trkpt>
<trkpt lat="50.657348" lon="4.899743"><time>2026-05-09T18:49:31Z</time></trkpt>
</trkseg></trk>
<trk>
<name>brmaeL147</name>
<cmt>d</cmt>
<desc>Autre-Eglise Chemin n°L147 RAVel / RAVel L147</desc>
<link href="https://chemins.be/autreeglise/chemin/L147"/><trkseg>
<trkpt lat="50.657348" lon="4.899743"><time>2026-05-09T18:49:31Z</time></trkpt>
<trkpt lat="50.658105" lon="4.901702"><time>2026-05-09T18:59:31Z</time></trkpt>
</trkseg></trk>
<trk>
<name>brmaeL147</name>
<cmt>v</cmt>
<desc>Autre-Eglise Chemin n°L147 RAVel / RAVel L147</desc>
<link href="https://chemins.be/autreeglise/chemin/L147"/><trkseg>
<trkpt lat="50.658105" lon="4.901702"><time>2026-05-09T18:59:31Z</time></trkpt>
<trkpt lat="50.659383" lon="4.905013"><time>2026-05-09T19:09:31Z</time></trkpt>
<trkpt lat="50.664825" lon="4.919899"><time>2026-05-09T19:19:31Z</time></trkpt>
<trkpt lat="50.665491" lon="4.921675"><time>2026-05-09T19:29:31Z</time></trkpt>
<trkpt lat="50.669609" lon="4.932800"><time>2026-05-09T19:39:31Z</time></trkpt>
<trkpt lat="50.666076" lon="4.923266"><time>2026-05-09T19:49:31Z</time></trkpt>
</trkseg>
</trk>
<trk>
<name>brmaep1</name>
<cmt>s</cmt>
<desc>Autre-Eglise Chemin particulier n°p1 </desc>
<link href="https://chemins.be/autreeglise/chemin/p1"/><trkseg>
<trkpt lat="50.671461" lon="4.908025"><time>2026-05-09T18:39:31Z</time></trkpt>
<trkpt lat="50.670990" lon="4.906554"><time>2026-05-09T18:49:31Z</time></trkpt>
<trkpt lat="50.670289" lon="4.904291"><time>2026-05-09T18:59:31Z</time></trkpt>
</trkseg>
</trk>
<trk>
<name>brmbm11</name>
<cmt>v</cmt>
<desc>Bomal(Ramillies) Chemin n°11 </desc>
<link href="https://chemins.be/bomalramillies/chemin/11"/><trkseg>
<trkpt lat="50.672442" lon="4.893915"><time>2026-05-09T18:39:31Z</time></trkpt>
<trkpt lat="50.672768" lon="4.892917"><time>2026-05-09T18:49:31Z</time></trkpt>
<trkpt lat="50.672886" lon="4.891154"><time>2026-05-09T18:59:31Z</time></trkpt>
</trkseg></trk>
<trk>
<name>brmbm11</name>
<cmt>d</cmt>
<desc>Bomal(Ramillies) Chemin n°11 </desc>
<link href="https://chemins.be/bomalramillies/chemin/11"/><trkseg>
<trkpt lat="50.672886" lon="4.891154"><time>2026-05-09T18:59:31Z</time></trkpt>
<trkpt lat="50.674281" lon="4.883455"><time>2026-05-09T19:09:31Z</time></trkpt>
<trkpt lat="50.674448" lon="4.881427"><time>2026-05-09T19:19:31Z</time></trkpt>
<trkpt lat="50.674869" lon="4.877779"><time>2026-05-09T19:29:31Z</time></trkpt>
</trkseg>
</trk>
<trk>
<name>brmbm12</name>
<cmt>v</cmt>
<desc>Bomal(Ramillies) Chemin n°12 Rue Saint-Roch</desc>
<link href="https://chemins.be/bomalramillies/chemin/12"/><trkseg>
<trkpt lat="50.681287" lon="4.865506"><time>2026-05-09T18:39:31Z</time></trkpt>
<trkpt lat="50.680975" lon="4.867759"><time>2026-05-09T18:49:31Z</time></trkpt>
<trkpt lat="50.677810" lon="4.871562"><time>2026-05-09T18:59:31Z</time></trkpt>
<trkpt lat="50.676757" lon="4.873097"><time>2026-05-09T19:09:31Z</time></trkpt>
<trkpt lat="50.676187" lon="4.873700"><time>2026-05-09T19:19:31Z</time></trkpt>
<trkpt lat="50.675585" lon="4.874536"><time>2026-05-09T19:29:31Z</time></trkpt>
<trkpt lat="50.674746" lon="4.877017"><time>2026-05-09T19:39:31Z</time></trkpt>
<trkpt lat="50.673192" lon="4.880229"><time>2026-05-09T19:49:31Z</time></trkpt>
</trkseg>
</trk>
<trk>
<name>brmbm14</name>
<cmt>s</cmt>
<desc>Bomal(Ramillies) Chemin n°14 </desc>
<link href="https://chemins.be/bomalramillies/chemin/14"/><trkseg>
<trkpt lat="50.670531" lon="4.871777"><time>2026-05-09T18:39:31Z</time></trkpt>
<trkpt lat="50.670698" lon="4.872556"><time>2026-05-09T18:49:31Z</time></trkpt>
<trkpt lat="50.670771" lon="4.873386"><time>2026-05-09T18:59:31Z</time></trkpt>
</trkseg>
</trk>
<trk>
<name>brmbm15</name>
<cmt>d</cmt>
<desc>Bomal(Ramillies) Sentier n°15 </desc>
<link href="https://chemins.be/bomalramillies/sentier/15"/><trkseg>
<trkpt lat="50.670703" lon="4.873314"><time>2026-05-09T18:39:31Z</time></trkpt>
<trkpt lat="50.670979" lon="4.873915"><time>2026-05-09T18:49:31Z</time></trkpt>
<trkpt lat="50.670667" lon="4.875224"><time>2026-05-09T18:59:31Z</time></trkpt>
<trkpt lat="50.669914" lon="4.875782"><time>2026-05-09T19:09:31Z</time></trkpt>
</trkseg>
</trk>
<trk>
<name>brmbm16</name>
<cmt>d</cmt>
<desc>Bomal(Ramillies) Sentier n°16 Rue de la Bruyère</desc>
<link href="https://chemins.be/bomalramillies/sentier/16"/><trkseg>
<trkpt lat="50.674611" lon="4.876256"><time>2026-05-09T18:39:31Z</time></trkpt>
<trkpt lat="50.674923" lon="4.873234"><time>2026-05-09T18:49:31Z</time></trkpt>
<trkpt lat="50.675032" lon="4.869157"><time>2026-05-09T18:59:31Z</time></trkpt>
<trkpt lat="50.674724" lon="4.868013"><time>2026-05-09T19:09:31Z</time></trkpt>
<trkpt lat="50.675176" lon="4.865059"><time>2026-05-09T19:19:31Z</time></trkpt>
</trkseg></trk>
<trk>
<name>brmbm16</name>
<cmt>r</cmt>
<desc>Bomal(Ramillies) Sentier n°16 Rue de la Bruyère</desc>
<link href="https://chemins.be/bomalramillies/sentier/16"/><trkseg>
<trkpt lat="50.675176" lon="4.865059"><time>2026-05-09T19:19:31Z</time></trkpt>
<trkpt lat="50.676143" lon="4.864137"><time>2026-05-09T19:29:31Z</time></trkpt>
<trkpt lat="50.676879" lon="4.863898"><time>2026-05-09T19:39:31Z</time></trkpt>
</trkseg></trk>
<trk>
<name>brmbm16</name>
<cmt>d</cmt>
<desc>Bomal(Ramillies) Sentier n°16 Rue de la Bruyère</desc>
<link href="https://chemins.be/bomalramillies/sentier/16"/><trkseg>
<trkpt lat="50.676879" lon="4.863898"><time>2026-05-09T19:39:31Z</time></trkpt>
<trkpt lat="50.678420" lon="4.861737"><time>2026-05-09T19:49:31Z</time></trkpt>
</trkseg>
</trk>
<trk>
<name>brmbm17</name>
<cmt>d</cmt>
<desc>Bomal(Ramillies) Sentier n°17 </desc>
<link href="https://chemins.be/bomalramillies/sentier/17"/><trkseg>
<trkpt lat="50.668899" lon="4.858268"><time>2026-05-09T18:39:31Z</time></trkpt>
<trkpt lat="50.666919" lon="4.861066"><time>2026-05-09T18:49:31Z</time></trkpt>
<trkpt lat="50.666168" lon="4.863075"><time>2026-05-09T18:59:31Z</time></trkpt>
</trkseg>
</trk>
<trk>
<name>brmbm18</name>
<cmt>d</cmt>
<desc>Bomal(Ramillies) Sentier n°18 </desc>
<link href="https://chemins.be/bomalramillies/sentier/18"/><trkseg>
<trkpt lat="50.682157" lon="4.866815"><time>2026-05-09T18:39:31Z</time></trkpt>
<trkpt lat="50.684058" lon="4.870016"><time>2026-05-09T18:49:31Z</time></trkpt>
</trkseg>
</trk>
<trk>
<name>brmbm19</name>
<cmt>q</cmt>
<desc>Bomal(Ramillies) Sentier n°19 </desc>
<link href="https://chemins.be/bomalramillies/sentier/19"/><trkseg>
<trkpt lat="50.677031" lon="4.872685"><time>2026-05-09T18:39:31Z</time></trkpt>
<trkpt lat="50.675168" lon="4.869509"><time>2026-05-09T18:49:31Z</time></trkpt>
<trkpt lat="50.673169" lon="4.868479"><time>2026-05-09T18:59:31Z</time></trkpt>
</trkseg>
</trk>
<trk>
<name>brmbm2</name>
<cmt>v</cmt>
<desc>Bomal(Ramillies) Chemin n°2 </desc>
<link href="https://chemins.be/bomalramillies/chemin/2"/><trkseg>
<trkpt lat="50.673303" lon="4.880258"><time>2026-05-09T18:39:31Z</time></trkpt>
<trkpt lat="50.674440" lon="4.881492"><time>2026-05-09T18:49:31Z</time></trkpt>
<trkpt lat="50.675327" lon="4.882162"><time>2026-05-09T18:59:31Z</time></trkpt>
<trkpt lat="50.676187" lon="4.882652"><time>2026-05-09T19:09:31Z</time></trkpt>
<trkpt lat="50.676751" lon="4.883210"><time>2026-05-09T19:19:31Z</time></trkpt>
<trkpt lat="50.677281" lon="4.883357"><time>2026-05-09T19:29:31Z</time></trkpt>
<trkpt lat="50.678219" lon="4.883560"><time>2026-05-09T19:39:31Z</time></trkpt>
<trkpt lat="50.679459" lon="4.881998"><time>2026-05-09T19:49:31Z</time></trkpt>
</trkseg>
</trk>
<trk>
<name>brmbm20</name>
<cmt>d</cmt>
<desc>Bomal(Ramillies) Chemin n°20 Rue Croix Bouvier</desc>
<link href="https://chemins.be/bomalramillies/chemin/20"/><trkseg>
<trkpt lat="50.670662" lon="4.875303"><time>2026-05-09T18:39:31Z</time></trkpt>
<trkpt lat="50.672040" lon="4.878741"><time>2026-05-09T18:49:31Z</time></trkpt>
</trkseg></trk>
<trk>
<name>brmbm20</name>
<cmt>v</cmt>
<desc>Bomal(Ramillies) Chemin n°20 Rue Croix Bouvier</desc>
<link href="https://chemins.be/bomalramillies/chemin/20"/><trkseg>
<trkpt lat="50.672040" lon="4.878741"><time>2026-05-09T18:49:31Z</time></trkpt>
<trkpt lat="50.672593" lon="4.879328"><time>2026-05-09T18:59:31Z</time></trkpt>
</trkseg></trk>
<trk>
<name>brmbm20</name>
<cmt>q</cmt>
<desc>Bomal(Ramillies) Chemin n°20 Rue Croix Bouvier</desc>
<link href="https://chemins.be/bomalramillies/chemin/20"/><trkseg>
<trkpt lat="50.672593" lon="4.879328"><time>2026-05-09T18:59:31Z</time></trkpt>
<trkpt lat="50.673953" lon="4.878541"><time>2026-05-09T19:09:31Z</time></trkpt>
</trkseg>
</trk>
<trk>
<name>brmbm21</name>
<cmt>b</cmt>
<desc>Bomal(Ramillies) Sentier n°21 </desc>
<link href="https://chemins.be/bomalramillies/sentier/21"/><trkseg>
<trkpt lat="50.673654" lon="4.864696"><time>2026-05-09T18:39:31Z</time></trkpt>
<trkpt lat="50.673910" lon="4.865837"><time>2026-05-09T18:49:31Z</time></trkpt>
<trkpt lat="50.674034" lon="4.866394"><time>2026-05-09T18:59:31Z</time></trkpt>
</trkseg></trk>
<trk>
<name>brmbm21</name>
<cmt>d</cmt>
<desc>Bomal(Ramillies) Sentier n°21 </desc>
<link href="https://chemins.be/bomalramillies/sentier/21"/><trkseg>
<trkpt lat="50.674034" lon="4.866394"><time>2026-05-09T18:59:31Z</time></trkpt>
<trkpt lat="50.674162" lon="4.866963"><time>2026-05-09T19:09:31Z</time></trkpt>
<trkpt lat="50.673670" lon="4.867973"><time>2026-05-09T19:19:31Z</time></trkpt>
</trkseg></trk>
<trk>
<name>brmbm21</name>
<cmt>v</cmt>
<desc>Bomal(Ramillies) Sentier n°21 </desc>
<link href="https://chemins.be/bomalramillies/sentier/21"/><trkseg>
<trkpt lat="50.673670" lon="4.867973"><time>2026-05-09T19:19:31Z</time></trkpt>
<trkpt lat="50.673158" lon="4.868390"><time>2026-05-09T19:29:31Z</time></trkpt>
</trkseg>
</trk>
<trk>
<name>brmbm22</name>
<cmt>q</cmt>
<desc>Bomal(Ramillies) Sentier n°22 </desc>
<link href="https://chemins.be/bomalramillies/sentier/22"/><trkseg>
<trkpt lat="50.676260" lon="4.848822"><time>2026-05-09T18:39:31Z</time></trkpt>
<trkpt lat="50.676897" lon="4.850444"><time>2026-05-09T18:49:31Z</time></trkpt>
<trkpt lat="50.677048" lon="4.852228"><time>2026-05-09T18:59:31Z</time></trkpt>
<trkpt lat="50.678012" lon="4.854385"><time>2026-05-09T19:09:31Z</time></trkpt>
<trkpt lat="50.678949" lon="4.860783"><time>2026-05-09T19:19:31Z</time></trkpt>
</trkseg>
</trk>
<trk>
<name>brmbm23</name>
<cmt>v</cmt>
<desc>Bomal(Ramillies) Chemin n°23 </desc>
<link href="https://chemins.be/bomalramillies/chemin/23"/><trkseg>
<trkpt lat="50.681330" lon="4.865604"><time>2026-05-09T18:39:31Z</time></trkpt>
<trkpt lat="50.682113" lon="4.866755"><time>2026-05-09T18:49:31Z</time></trkpt>
<trkpt lat="50.682124" lon="4.867922"><time>2026-05-09T18:59:31Z</time></trkpt>
<trkpt lat="50.681134" lon="4.871784"><time>2026-05-09T19:09:31Z</time></trkpt>
<trkpt lat="50.677284" lon="4.883474"><time>2026-05-09T19:19:31Z</time></trkpt>
<trkpt lat="50.676228" lon="4.885803"><time>2026-05-09T19:29:31Z</time></trkpt>
<trkpt lat="50.674657" lon="4.889186"><time>2026-05-09T19:39:31Z</time></trkpt>
<trkpt lat="50.673397" lon="4.891520"><time>2026-05-09T19:49:31Z</time></trkpt>
<trkpt lat="50.673333" lon="4.891658"><time>2026-05-09T19:59:31Z</time></trkpt>
<trkpt lat="50.672804" lon="4.892806"><time>2026-05-09T20:09:31Z</time></trkpt>
</trkseg>
</trk>
<trk>
<name>brmbm3</name>
<cmt>v</cmt>
<desc>Bomal(Ramillies) Chemin n°3 Rue du Golet / Rue de l'Ourchet</desc>
<link href="https://chemins.be/bomalramillies/chemin/3"/><trkseg>
<trkpt lat="50.668899" lon="4.873439"><time>2026-05-09T18:39:31Z</time></trkpt>
<trkpt lat="50.670445" lon="4.871786"><time>2026-05-09T18:49:31Z</time></trkpt>
<trkpt lat="50.670778" lon="4.871504"><time>2026-05-09T18:59:31Z</time></trkpt>
</trkseg></trk>
<trk>
<name>brmbm3</name>
<cmt>r</cmt>
<desc>Bomal(Ramillies) Chemin n°3 Rue du Golet / Rue de l'Ourchet</desc>
<link href="https://chemins.be/bomalramillies/chemin/3"/><trkseg>
<trkpt lat="50.670778" lon="4.871504"><time>2026-05-09T18:59:31Z</time></trkpt>
<trkpt lat="50.670592" lon="4.870812"><time>2026-05-09T19:09:31Z</time></trkpt>
<trkpt lat="50.670672" lon="4.870042"><time>2026-05-09T19:19:31Z</time></trkpt>
<trkpt lat="50.671438" lon="4.869159"><time>2026-05-09T19:29:31Z</time></trkpt>
<trkpt lat="50.671745" lon="4.868349"><time>2026-05-09T19:39:31Z</time></trkpt>
<trkpt lat="50.671591" lon="4.865265"><time>2026-05-09T19:49:31Z</time></trkpt>
<trkpt lat="50.671666" lon="4.864701"><time>2026-05-09T19:59:31Z</time></trkpt>
</trkseg>
</trk>
<trk>
<name>brmbm4</name>
<cmt>v</cmt>
<desc>Bomal(Ramillies) Chemin n°4 Rue de l'Ourchet / Rue de la Tombe / Rue de la Campagnette</desc>
<link href="https://chemins.be/bomalramillies/chemin/4"/><trkseg>
<trkpt lat="50.664878" lon="4.853263"><time>2026-05-09T18:39:31Z</time></trkpt>
<trkpt lat="50.667489" lon="4.856540"><time>2026-05-09T18:49:31Z</time></trkpt>
<trkpt lat="50.669395" lon="4.858685"><time>2026-05-09T18:59:31Z</time></trkpt>
<trkpt lat="50.671030" lon="4.861197"><time>2026-05-09T19:09:31Z</time></trkpt>
</trkseg></trk>
<trk>
<name>brmbm4</name>
<cmt>r</cmt>
<desc>Bomal(Ramillies) Chemin n°4 Rue de l'Ourchet / Rue de la Tombe / Rue de la Campagnette</desc>
<link href="https://chemins.be/bomalramillies/chemin/4"/><trkseg>
<trkpt lat="50.671030" lon="4.861197"><time>2026-05-09T19:09:31Z</time></trkpt>
<trkpt lat="50.671628" lon="4.862725"><time>2026-05-09T19:19:31Z</time></trkpt>
<trkpt lat="50.671662" lon="4.864721"><time>2026-05-09T19:29:31Z</time></trkpt>
<trkpt lat="50.672340" lon="4.865888"><time>2026-05-09T19:39:31Z</time></trkpt>
<trkpt lat="50.672432" lon="4.867558"><time>2026-05-09T19:49:31Z</time></trkpt>
<trkpt lat="50.673042" lon="4.867961"><time>2026-05-09T19:59:31Z</time></trkpt>
<trkpt lat="50.673641" lon="4.870811"><time>2026-05-09T20:09:31Z</time></trkpt>
<trkpt lat="50.673787" lon="4.873267"><time>2026-05-09T20:19:31Z</time></trkpt>
</trkseg></trk>
<trk>
<name>brmbm4</name>
<cmt>v</cmt>
<desc>Bomal(Ramillies) Chemin n°4 Rue de l'Ourchet / Rue de la Tombe / Rue de la Campagnette</desc>
<link href="https://chemins.be/bomalramillies/chemin/4"/><trkseg>
<trkpt lat="50.673787" lon="4.873267"><time>2026-05-09T20:19:31Z</time></trkpt>
<trkpt lat="50.673920" lon="4.874383"><time>2026-05-09T20:29:31Z</time></trkpt>
<trkpt lat="50.674753" lon="4.877024"><time>2026-05-09T20:39:31Z</time></trkpt>
<trkpt lat="50.675090" lon="4.878608"><time>2026-05-09T20:49:31Z</time></trkpt>
<trkpt lat="50.675953" lon="4.880654"><time>2026-05-09T20:59:31Z</time></trkpt>
<trkpt lat="50.676224" lon="4.882582"><time>2026-05-09T21:09:31Z</time></trkpt>
<trkpt lat="50.676107" lon="4.884561"><time>2026-05-09T21:19:31Z</time></trkpt>
<trkpt lat="50.676264" lon="4.885765"><time>2026-05-09T21:29:31Z</time></trkpt>
<trkpt lat="50.676806" lon="4.887144"><time>2026-05-09T21:39:31Z</time></trkpt>
<trkpt lat="50.677068" lon="4.888816"><time>2026-05-09T21:49:31Z</time></trkpt>
</trkseg>
</trk>
<trk>
<name>brmbm6</name>
<cmt>v</cmt>
<desc>Bomal(Ramillies) Chemin n°6 Rue de l'Abyme</desc>
<link href="https://chemins.be/bomalramillies/chemin/6"/><trkseg>
<trkpt lat="50.664023" lon="4.854423"><time>2026-05-09T18:39:31Z</time></trkpt>
<trkpt lat="50.665155" lon="4.856306"><time>2026-05-09T18:49:31Z</time></trkpt>
<trkpt lat="50.665506" lon="4.857556"><time>2026-05-09T18:59:31Z</time></trkpt>
<trkpt lat="50.665927" lon="4.861901"><time>2026-05-09T19:09:31Z</time></trkpt>
<trkpt lat="50.666526" lon="4.864250"><time>2026-05-09T19:19:31Z</time></trkpt>
<trkpt lat="50.667230" lon="4.867099"><time>2026-05-09T19:29:31Z</time></trkpt>
<trkpt lat="50.667249" lon="4.868063"><time>2026-05-09T19:39:31Z</time></trkpt>
<trkpt lat="50.667224" lon="4.870400"><time>2026-05-09T19:49:31Z</time></trkpt>
<trkpt lat="50.667208" lon="4.871957"><time>2026-05-09T19:59:31Z</time></trkpt>
<trkpt lat="50.668085" lon="4.873944"><time>2026-05-09T20:09:31Z</time></trkpt>
</trkseg>
</trk>
<trk>
<name>brmbm7</name>
<cmt>r</cmt>
<desc>Bomal(Ramillies) Chemin n°7 Rue de l'Ourchet</desc>
<link href="https://chemins.be/bomalramillies/chemin/7"/><trkseg>
<trkpt lat="50.671654" lon="4.862656"><time>2026-05-09T18:39:31Z</time></trkpt>
<trkpt lat="50.672323" lon="4.862098"><time>2026-05-09T18:49:31Z</time></trkpt>
<trkpt lat="50.672291" lon="4.861012"><time>2026-05-09T18:59:31Z</time></trkpt>
<trkpt lat="50.672792" lon="4.860412"><time>2026-05-09T19:09:31Z</time></trkpt>
<trkpt lat="50.673466" lon="4.858558"><time>2026-05-09T19:19:31Z</time></trkpt>
<trkpt lat="50.674325" lon="4.852962"><time>2026-05-09T19:29:31Z</time></trkpt>
</trkseg>
</trk>
<trk>
<name>brmbm7bis</name>
<cmt>r</cmt>
<desc>Bomal(Ramillies) Chemin n°7bis </desc>
<link href="https://chemins.be/bomalramillies/chemin/7bis"/><trkseg>
<trkpt lat="50.672338" lon="4.862062"><time>2026-05-09T18:39:31Z</time></trkpt>
<trkpt lat="50.672769" lon="4.861954"><time>2026-05-09T18:49:31Z</time></trkpt>
<trkpt lat="50.673191" lon="4.862121"><time>2026-05-09T18:59:31Z</time></trkpt>
</trkseg></trk>
<trk>
<name>brmbm7bis</name>
<cmt>v</cmt>
<desc>Bomal(Ramillies) Chemin n°7bis </desc>
<link href="https://chemins.be/bomalramillies/chemin/7bis"/><trkseg>
<trkpt lat="50.673191" lon="4.862121"><time>2026-05-09T18:59:31Z</time></trkpt>
<trkpt lat="50.673430" lon="4.862119"><time>2026-05-09T19:09:31Z</time></trkpt>
</trkseg></trk>
<trk>
<name>brmbm7bis</name>
<cmt>d</cmt>
<desc>Bomal(Ramillies) Chemin n°7bis </desc>
<link href="https://chemins.be/bomalramillies/chemin/7bis"/><trkseg>
<trkpt lat="50.673430" lon="4.862119"><time>2026-05-09T19:09:31Z</time></trkpt>
<trkpt lat="50.673988" lon="4.862025"><time>2026-05-09T19:19:31Z</time></trkpt>
</trkseg>
</trk>
<trk>
<name>brmbm8</name>
<cmt>v</cmt>
<desc>Bomal(Ramillies) Chemin n°8 </desc>
<link href="https://chemins.be/bomalramillies/chemin/8"/><trkseg>
<trkpt lat="50.672588" lon="4.853993"><time>2026-05-09T18:39:31Z</time></trkpt>
<trkpt lat="50.671114" lon="4.854062"><time>2026-05-09T18:49:31Z</time></trkpt>
<trkpt lat="50.667504" lon="4.856620"><time>2026-05-09T18:59:31Z</time></trkpt>
<trkpt lat="50.665525" lon="4.857527"><time>2026-05-09T19:09:31Z</time></trkpt>
</trkseg>
</trk>
<trk>
<name>brmbm9</name>
<cmt>r</cmt>
<desc>Bomal(Ramillies) Chemin n°9 </desc>
<link href="https://chemins.be/bomalramillies/chemin/9"/><trkseg>
<trkpt lat="50.675562" lon="4.851217"><time>2026-05-09T18:39:31Z</time></trkpt>
<trkpt lat="50.674929" lon="4.852114"><time>2026-05-09T18:49:31Z</time></trkpt>
<trkpt lat="50.674244" lon="4.852871"><time>2026-05-09T18:59:31Z</time></trkpt>
<trkpt lat="50.672628" lon="4.853996"><time>2026-05-09T19:09:31Z</time></trkpt>
<trkpt lat="50.671342" lon="4.855978"><time>2026-05-09T19:19:31Z</time></trkpt>
</trkseg></trk>
<trk>
<name>brmbm9</name>
<cmt>v</cmt>
<desc>Bomal(Ramillies) Chemin n°9 </desc>
<link href="https://chemins.be/bomalramillies/chemin/9"/><trkseg>
<trkpt lat="50.671342" lon="4.855978"><time>2026-05-09T19:19:31Z</time></trkpt>
<trkpt lat="50.669434" lon="4.858746"><time>2026-05-09T19:29:31Z</time></trkpt>
<trkpt lat="50.668904" lon="4.860063"><time>2026-05-09T19:39:31Z</time></trkpt>
<trkpt lat="50.668335" lon="4.861476"><time>2026-05-09T19:49:31Z</time></trkpt>
<trkpt lat="50.668158" lon="4.862089"><time>2026-05-09T19:59:31Z</time></trkpt>
<trkpt lat="50.667385" lon="4.864524"><time>2026-05-09T20:09:31Z</time></trkpt>
<trkpt lat="50.667323" lon="4.864978"><time>2026-05-09T20:19:31Z</time></trkpt>
<trkpt lat="50.667236" lon="4.867055"><time>2026-05-09T20:29:31Z</time></trkpt>
</trkseg>
</trk>
<trk>
<name>brmbmi1</name>
<cmt>q</cmt>
<desc>Bomal(Ramillies) Sentier n°i1 </desc>
<link href="https://chemins.be/bomalramillies/sentier/i1"/><trkseg>
<trkpt lat="50.673197" lon="4.868773"><time>2026-05-09T18:39:31Z</time></trkpt>
<trkpt lat="50.670752" lon="4.871441"><time>2026-05-09T18:49:31Z</time></trkpt>
</trkseg>
</trk>
<trk>
<name>brmbmi2</name>
<cmt>q</cmt>
<desc>Bomal(Ramillies) Sentier n°i2 </desc>
<link href="https://chemins.be/bomalramillies/sentier/i2"/><trkseg>
<trkpt lat="50.670689" lon="4.870074"><time>2026-05-09T18:39:31Z</time></trkpt>
<trkpt lat="50.667321" lon="4.871363"><time>2026-05-09T18:49:31Z</time></trkpt>
</trkseg>
</trk>
<trk>
<name>brmbmi3</name>
<cmt>r</cmt>
<desc>Bomal(Ramillies) Chemin n°i3 Chemin de Bomal</desc>
<link href="https://chemins.be/bomalramillies/chemin/i3"/><trkseg>
<trkpt lat="50.664930" lon="4.851635"><time>2026-05-09T18:39:31Z</time></trkpt>
<trkpt lat="50.667437" lon="4.849396"><time>2026-05-09T18:49:31Z</time></trkpt>
</trkseg>
</trk>
<trk>
<name>brmgr1</name>
<cmt>s</cmt>
<desc>Grand-Rosiere-Hottomont Chemin n°1 Rue de l'Ornois</desc>
<link href="https://chemins.be/grandrosierehottomont/chemin/1"/><trkseg>
<trkpt lat="50.632191" lon="4.857281"><time>2026-05-09T18:39:31Z</time></trkpt>
<trkpt lat="50.630098" lon="4.856708"><time>2026-05-09T18:49:31Z</time></trkpt>
<trkpt lat="50.628757" lon="4.854955"><time>2026-05-09T18:59:31Z</time></trkpt>
<trkpt lat="50.626561" lon="4.851230"><time>2026-05-09T19:09:31Z</time></trkpt>
</trkseg></trk>
<trk>
<name>brmgr1</name>
<cmt>r</cmt>
<desc>Grand-Rosiere-Hottomont Chemin n°1 Rue de l'Ornois</desc>
<link href="https://chemins.be/grandrosierehottomont/chemin/1"/><trkseg>
<trkpt lat="50.626561" lon="4.851230"><time>2026-05-09T19:09:31Z</time></trkpt>
<trkpt lat="50.622630" lon="4.849677"><time>2026-05-09T19:19:31Z</time></trkpt>
</trkseg></trk>
<trk>
<name>brmgr1</name>
<cmt>v</cmt>
<desc>Grand-Rosiere-Hottomont Chemin n°1 Rue de l'Ornois</desc>
<link href="https://chemins.be/grandrosierehottomont/chemin/1"/><trkseg>
<trkpt lat="50.622630" lon="4.849677"><time>2026-05-09T19:19:31Z</time></trkpt>
<trkpt lat="50.620652" lon="4.847382"><time>2026-05-09T19:29:31Z</time></trkpt>
<trkpt lat="50.619088" lon="4.847222"><time>2026-05-09T19:39:31Z</time></trkpt>
</trkseg>
</trk>
<trk>
<name>brmgr10</name>
<cmt>r</cmt>
<desc>Grand-Rosiere-Hottomont Chemin n°10 Rue d'Albroux</desc>
<link href="https://chemins.be/grandrosierehottomont/chemin/10"/><trkseg>
<trkpt lat="50.628080" lon="4.870055"><time>2026-05-09T18:39:31Z</time></trkpt>
<trkpt lat="50.627618" lon="4.870392"><time>2026-05-09T18:49:31Z</time></trkpt>
<trkpt lat="50.626914" lon="4.870906"><time>2026-05-09T18:59:31Z</time></trkpt>
<trkpt lat="50.626678" lon="4.870970"><time>2026-05-09T19:09:31Z</time></trkpt>
<trkpt lat="50.626337" lon="4.870355"><time>2026-05-09T19:19:31Z</time></trkpt>
<trkpt lat="50.625478" lon="4.870838"><time>2026-05-09T19:29:31Z</time></trkpt>
<trkpt lat="50.623364" lon="4.871206"><time>2026-05-09T19:39:31Z</time></trkpt>
<trkpt lat="50.621945" lon="4.871893"><time>2026-05-09T19:49:31Z</time></trkpt>
</trkseg>
</trk>
<trk>
<name>brmgr12</name>
<cmt>r</cmt>
<desc>Grand-Rosiere-Hottomont Chemin n°12 </desc>
<link href="https://chemins.be/grandrosierehottomont/chemin/12"/><trkseg>
<trkpt lat="50.626480" lon="4.851328"><time>2026-05-09T18:39:31Z</time></trkpt>
<trkpt lat="50.627991" lon="4.851159"><time>2026-05-09T18:49:31Z</time></trkpt>
<trkpt lat="50.629311" lon="4.851484"><time>2026-05-09T18:59:31Z</time></trkpt>
</trkseg>
</trk>
<trk>
<name>brmgr13</name>
<cmt>v</cmt>
<desc>Grand-Rosiere-Hottomont Chemin n°13 </desc>
<link href="https://chemins.be/grandrosierehottomont/chemin/13"/><trkseg>
<trkpt lat="50.629003" lon="4.871141"><time>2026-05-09T18:39:31Z</time></trkpt>
<trkpt lat="50.629738" lon="4.871799"><time>2026-05-09T18:49:31Z</time></trkpt>
<trkpt lat="50.630130" lon="4.872454"><time>2026-05-09T18:59:31Z</time></trkpt>
</trkseg>
</trk>
<trk>
<name>brmgr15</name>
<cmt>v</cmt>
<desc>Grand-Rosiere-Hottomont Chemin n°15 </desc>
<link href="https://chemins.be/grandrosierehottomont/chemin/15"/><trkseg>
<trkpt lat="50.633072" lon="4.859353"><time>2026-05-09T18:39:31Z</time></trkpt>
<trkpt lat="50.633967" lon="4.858161"><time>2026-05-09T18:49:31Z</time></trkpt>
</trkseg>
</trk>
<trk>
<name>brmgr17</name>
<cmt>r</cmt>
<desc>Grand-Rosiere-Hottomont Sentier n°17 </desc>
<link href="https://chemins.be/grandrosierehottomont/sentier/17"/><trkseg>
<trkpt lat="50.631632" lon="4.851041"><time>2026-05-09T18:39:31Z</time></trkpt>
<trkpt lat="50.631766" lon="4.851283"><time>2026-05-09T18:49:31Z</time></trkpt>
<trkpt lat="50.631920" lon="4.851087"><time>2026-05-09T18:59:31Z</time></trkpt>
<trkpt lat="50.632487" lon="4.850965"><time>2026-05-09T19:09:31Z</time></trkpt>
<trkpt lat="50.632541" lon="4.850853"><time>2026-05-09T19:19:31Z</time></trkpt>
</trkseg>
</trk>
<trk>
<name>brmgr2</name>
<cmt>s</cmt>
<desc>Grand-Rosiere-Hottomont Chemin n°2 </desc>
<link href="https://chemins.be/grandrosierehottomont/chemin/2"/><trkseg>
<trkpt lat="50.625999" lon="4.885772"><time>2026-05-09T18:39:31Z</time></trkpt>
<trkpt lat="50.622868" lon="4.884871"><time>2026-05-09T18:49:31Z</time></trkpt>
<trkpt lat="50.620935" lon="4.882897"><time>2026-05-09T18:59:31Z</time></trkpt>
</trkseg>
</trk>
<trk>
<name>brmgr20</name>
<cmt>r</cmt>
<desc>Grand-Rosiere-Hottomont Chemin n°20 Rue Fontaine aux Corbeaux</desc>
<link href="https://chemins.be/grandrosierehottomont/chemin/20"/><trkseg>
<trkpt lat="50.627044" lon="4.877240"><time>2026-05-09T18:39:31Z</time></trkpt>
<trkpt lat="50.626798" lon="4.878043"><time>2026-05-09T18:49:31Z</time></trkpt>
<trkpt lat="50.626630" lon="4.879285"><time>2026-05-09T18:59:31Z</time></trkpt>
</trkseg>
</trk>
<trk>
<name>brmgr21</name>
<cmt>v</cmt>
<desc>Grand-Rosiere-Hottomont Chemin n°21 </desc>
<link href="https://chemins.be/grandrosierehottomont/chemin/21"/><trkseg>
<trkpt lat="50.631320" lon="4.889441"><time>2026-05-09T18:39:31Z</time></trkpt>
<trkpt lat="50.632322" lon="4.893564"><time>2026-05-09T18:49:31Z</time></trkpt>
</trkseg>
</trk>
<trk>
<name>brmgr23</name>
<cmt>s</cmt>
<desc>Grand-Rosiere-Hottomont Sentier n°23 </desc>
<link href="https://chemins.be/grandrosierehottomont/sentier/23"/><trkseg>
<trkpt lat="50.626624" lon="4.857816"><time>2026-05-09T18:39:31Z</time></trkpt>
<trkpt lat="50.627749" lon="4.853051"><time>2026-05-09T18:49:31Z</time></trkpt>
<trkpt lat="50.627488" lon="4.851084"><time>2026-05-09T18:59:31Z</time></trkpt>
<trkpt lat="50.627260" lon="4.849682"><time>2026-05-09T19:09:31Z</time></trkpt>
<trkpt lat="50.627310" lon="4.848283"><time>2026-05-09T19:19:31Z</time></trkpt>
<trkpt lat="50.627206" lon="4.847392"><time>2026-05-09T19:29:31Z</time></trkpt>
<trkpt lat="50.627512" lon="4.845105"><time>2026-05-09T19:39:31Z</time></trkpt>
<trkpt lat="50.627375" lon="4.843606"><time>2026-05-09T19:49:31Z</time></trkpt>
</trkseg>
</trk>
<trk>
<name>brmgr24</name>
<cmt>s</cmt>
<desc>Grand-Rosiere-Hottomont Sentier n°24 </desc>
<link href="https://chemins.be/grandrosierehottomont/sentier/24"/><trkseg>
<trkpt lat="50.630809" lon="4.862948"><time>2026-05-09T18:39:31Z</time></trkpt>
<trkpt lat="50.629287" lon="4.859413"><time>2026-05-09T18:49:31Z</time></trkpt>
<trkpt lat="50.626740" lon="4.858030"><time>2026-05-09T18:59:31Z</time></trkpt>
</trkseg>
</trk>
<trk>
<name>brmgr25</name>
<cmt>q</cmt>
<desc>Grand-Rosiere-Hottomont Sentier n°25 </desc>
<link href="https://chemins.be/grandrosierehottomont/sentier/25"/><trkseg>
<trkpt lat="50.631205" lon="4.852238"><time>2026-05-09T18:39:31Z</time></trkpt>
<trkpt lat="50.630783" lon="4.854018"><time>2026-05-09T18:49:31Z</time></trkpt>
</trkseg></trk>
<trk>
<name>brmgr25</name>
<cmt>s</cmt>
<desc>Grand-Rosiere-Hottomont Sentier n°25 </desc>
<link href="https://chemins.be/grandrosierehottomont/sentier/25"/><trkseg>
<trkpt lat="50.630783" lon="4.854018"><time>2026-05-09T18:49:31Z</time></trkpt>
<trkpt lat="50.630152" lon="4.856680"><time>2026-05-09T18:59:31Z</time></trkpt>
</trkseg>
</trk>
<trk>
<name>brmgr25bis</name>
<cmt>s</cmt>
<desc>Grand-Rosiere-Hottomont Sentier n°25bis </desc>
<link href="https://chemins.be/grandrosierehottomont/sentier/25bis"/><trkseg>
<trkpt lat="50.630191" lon="4.858462"><time>2026-05-09T18:39:31Z</time></trkpt>
<trkpt lat="50.629007" lon="4.855533"><time>2026-05-09T18:49:31Z</time></trkpt>
</trkseg>
</trk>
<trk>
<name>brmgr26</name>
<cmt>s</cmt>
<desc>Grand-Rosiere-Hottomont Sentier n°26 </desc>
<link href="https://chemins.be/grandrosierehottomont/sentier/26"/><trkseg>
<trkpt lat="50.630890" lon="4.862992"><time>2026-05-09T18:39:31Z</time></trkpt>
<trkpt lat="50.631693" lon="4.862307"><time>2026-05-09T18:49:31Z</time></trkpt>
<trkpt lat="50.633070" lon="4.861940"><time>2026-05-09T18:59:31Z</time></trkpt>
</trkseg>
</trk>
<trk>
<name>brmgr27</name>
<cmt>r</cmt>
<desc>Grand-Rosiere-Hottomont Sentier n°27 </desc>
<link href="https://chemins.be/grandrosierehottomont/sentier/27"/><trkseg>
<trkpt lat="50.633555" lon="4.861470"><time>2026-05-09T18:39:31Z</time></trkpt>
<trkpt lat="50.633995" lon="4.860870"><time>2026-05-09T18:49:31Z</time></trkpt>
<trkpt lat="50.634161" lon="4.860682"><time>2026-05-09T18:59:31Z</time></trkpt>
</trkseg></trk>
<trk>
<name>brmgr27</name>
<cmt>q</cmt>
<desc>Grand-Rosiere-Hottomont Sentier n°27 </desc>
<link href="https://chemins.be/grandrosierehottomont/sentier/27"/><trkseg>
<trkpt lat="50.634161" lon="4.860682"><time>2026-05-09T18:59:31Z</time></trkpt>
<trkpt lat="50.634971" lon="4.859609"><time>2026-05-09T19:09:31Z</time></trkpt>
</trkseg>
</trk>
<trk>
<name>brmgr28</name>
<cmt>q</cmt>
<desc>Grand-Rosiere-Hottomont Sentier n°28 </desc>
<link href="https://chemins.be/grandrosierehottomont/sentier/28"/><trkseg>
<trkpt lat="50.631451" lon="4.851350"><time>2026-05-09T18:39:31Z</time></trkpt>
<trkpt lat="50.630835" lon="4.850468"><time>2026-05-09T18:49:31Z</time></trkpt>
<trkpt lat="50.630877" lon="4.848913"><time>2026-05-09T18:59:31Z</time></trkpt>
<trkpt lat="50.628958" lon="4.847820"><time>2026-05-09T19:09:31Z</time></trkpt>
<trkpt lat="50.627326" lon="4.846602"><time>2026-05-09T19:19:31Z</time></trkpt>
</trkseg>
</trk>
<trk>
<name>brmgr29</name>
<cmt>s</cmt>
<desc>Grand-Rosiere-Hottomont Sentier n°29 </desc>
<link href="https://chemins.be/grandrosierehottomont/sentier/29"/><trkseg>
<trkpt lat="50.631829" lon="4.866337"><time>2026-05-09T18:39:31Z</time></trkpt>
<trkpt lat="50.631500" lon="4.865486"><time>2026-05-09T18:49:31Z</time></trkpt>
<trkpt lat="50.631016" lon="4.865014"><time>2026-05-09T18:59:31Z</time></trkpt>
<trkpt lat="50.630919" lon="4.864688"><time>2026-05-09T19:09:31Z</time></trkpt>
<trkpt lat="50.630416" lon="4.864443"><time>2026-05-09T19:19:31Z</time></trkpt>
</trkseg>
</trk>
<trk>
<name>brmgr3</name>
<cmt>v</cmt>
<desc>Grand-Rosiere-Hottomont Chemin n°3 Rue Fontaine aux Corbeaux / Sentier GR Réouvert / Rue Try des Gros</desc>
<link href="https://chemins.be/grandrosierehottomont/chemin/3"/><trkseg>
<trkpt lat="50.627798" lon="4.887135"><time>2026-05-09T18:39:31Z</time></trkpt>
<trkpt lat="50.629001" lon="4.884032"><time>2026-05-09T18:49:31Z</time></trkpt>
<trkpt lat="50.629183" lon="4.881973"><time>2026-05-09T18:59:31Z</time></trkpt>
<trkpt lat="50.629263" lon="4.881313"><time>2026-05-09T19:09:31Z</time></trkpt>
<trkpt lat="50.629006" lon="4.880922"><time>2026-05-09T19:19:31Z</time></trkpt>
<trkpt lat="50.628494" lon="4.879176"><time>2026-05-09T19:29:31Z</time></trkpt>
<trkpt lat="50.627905" lon="4.877660"><time>2026-05-09T19:39:31Z</time></trkpt>
<trkpt lat="50.627069" lon="4.877164"><time>2026-05-09T19:49:31Z</time></trkpt>
</trkseg></trk>
<trk>
<name>brmgr3</name>
<cmt>r</cmt>
<desc>Grand-Rosiere-Hottomont Chemin n°3 Rue Fontaine aux Corbeaux / Sentier GR Réouvert / Rue Try des Gros</desc>
<link href="https://chemins.be/grandrosierehottomont/chemin/3"/><trkseg>
<trkpt lat="50.627069" lon="4.877164"><time>2026-05-09T19:49:31Z</time></trkpt>
<trkpt lat="50.625978" lon="4.876310"><time>2026-05-09T19:59:31Z</time></trkpt>
<trkpt lat="50.625192" lon="4.875157"><time>2026-05-09T20:09:31Z</time></trkpt>
</trkseg></trk>
<trk>
<name>brmgr3</name>
<cmt>d</cmt>
<desc>Grand-Rosiere-Hottomont Chemin n°3 Rue Fontaine aux Corbeaux / Sentier GR Réouvert / Rue Try des Gros</desc>
<link href="https://chemins.be/grandrosierehottomont/chemin/3"/><trkseg>
<trkpt lat="50.625192" lon="4.875157"><time>2026-05-09T20:09:31Z</time></trkpt>
<trkpt lat="50.624835" lon="4.874630"><time>2026-05-09T20:19:31Z</time></trkpt>
<trkpt lat="50.622583" lon="4.873603"><time>2026-05-09T20:29:31Z</time></trkpt>
<trkpt lat="50.621884" lon="4.871893"><time>2026-05-09T20:39:31Z</time></trkpt>
</trkseg></trk>
<trk>
<name>brmgr3</name>
<cmt>r</cmt>
<desc>Grand-Rosiere-Hottomont Chemin n°3 Rue Fontaine aux Corbeaux / Sentier GR Réouvert / Rue Try des Gros</desc>
<link href="https://chemins.be/grandrosierehottomont/chemin/3"/><trkseg>
<trkpt lat="50.621884" lon="4.871893"><time>2026-05-09T20:39:31Z</time></trkpt>
<trkpt lat="50.620832" lon="4.871693"><time>2026-05-09T20:49:31Z</time></trkpt>
<trkpt lat="50.618644" lon="4.872565"><time>2026-05-09T20:59:31Z</time></trkpt>
</trkseg>
</trk>
<trk>
<name>brmgr30</name>
<cmt>s</cmt>
<desc>Grand-Rosiere-Hottomont Sentier n°30 </desc>
<link href="https://chemins.be/grandrosierehottomont/sentier/30"/><trkseg>
<trkpt lat="50.630407" lon="4.864471"><time>2026-05-09T18:39:31Z</time></trkpt>
<trkpt lat="50.630516" lon="4.864316"><time>2026-05-09T18:49:31Z</time></trkpt>
<trkpt lat="50.630714" lon="4.864121"><time>2026-05-09T18:59:31Z</time></trkpt>
<trkpt lat="50.630826" lon="4.863245"><time>2026-05-09T19:09:31Z</time></trkpt>
</trkseg>
</trk>
<trk>
<name>brmgr31</name>
<cmt>s</cmt>
<desc>Grand-Rosiere-Hottomont Sentier n°31 </desc>
<link href="https://chemins.be/grandrosierehottomont/sentier/31"/><trkseg>
<trkpt lat="50.626318" lon="4.870392"><time>2026-05-09T18:39:31Z</time></trkpt>
<trkpt lat="50.627294" lon="4.869385"><time>2026-05-09T18:49:31Z</time></trkpt>
</trkseg></trk>
<trk>
<name>brmgr31</name>
<cmt>q</cmt>
<desc>Grand-Rosiere-Hottomont Sentier n°31 </desc>
<link href="https://chemins.be/grandrosierehottomont/sentier/31"/><trkseg>
<trkpt lat="50.627294" lon="4.869385"><time>2026-05-09T18:49:31Z</time></trkpt>
<trkpt lat="50.628168" lon="4.868928"><time>2026-05-09T18:59:31Z</time></trkpt>
<trkpt lat="50.628506" lon="4.868464"><time>2026-05-09T19:09:31Z</time></trkpt>
<trkpt lat="50.628978" lon="4.867819"><time>2026-05-09T19:19:31Z</time></trkpt>
</trkseg></trk>
<trk>
<name>brmgr31</name>
<cmt>s</cmt>
<desc>Grand-Rosiere-Hottomont Sentier n°31 </desc>
<link href="https://chemins.be/grandrosierehottomont/sentier/31"/><trkseg>
<trkpt lat="50.628978" lon="4.867819"><time>2026-05-09T19:19:31Z</time></trkpt>
<trkpt lat="50.629551" lon="4.867034"><time>2026-05-09T19:29:31Z</time></trkpt>
<trkpt lat="50.629636" lon="4.866244"><time>2026-05-09T19:39:31Z</time></trkpt>
<trkpt lat="50.630637" lon="4.865406"><time>2026-05-09T19:49:31Z</time></trkpt>
<trkpt lat="50.631016" lon="4.865057"><time>2026-05-09T19:59:31Z</time></trkpt>
</trkseg>
</trk>
<trk>
<name>brmgr32</name>
<cmt>v</cmt>
<desc>Grand-Rosiere-Hottomont Sentier n°32 </desc>
<link href="https://chemins.be/grandrosierehottomont/sentier/32"/><trkseg>
<trkpt lat="50.627712" lon="4.870350"><time>2026-05-09T18:39:31Z</time></trkpt>
<trkpt lat="50.627257" lon="4.869455"><time>2026-05-09T18:49:31Z</time></trkpt>
</trkseg></trk>
<trk>
<name>brmgr32</name>
<cmt>q</cmt>
<desc>Grand-Rosiere-Hottomont Sentier n°32 </desc>
<link href="https://chemins.be/grandrosierehottomont/sentier/32"/><trkseg>
<trkpt lat="50.627257" lon="4.869455"><time>2026-05-09T18:49:31Z</time></trkpt>
<trkpt lat="50.627454" lon="4.867620"><time>2026-05-09T18:59:31Z</time></trkpt>
<trkpt lat="50.627432" lon="4.864341"><time>2026-05-09T19:09:31Z</time></trkpt>
<trkpt lat="50.626990" lon="4.862527"><time>2026-05-09T19:19:31Z</time></trkpt>
<trkpt lat="50.625594" lon="4.858908"><time>2026-05-09T19:29:31Z</time></trkpt>
</trkseg>
</trk>
<trk>
<name>brmgr33</name>
<cmt>s</cmt>
<desc>Grand-Rosiere-Hottomont Sentier n°33 </desc>
<link href="https://chemins.be/grandrosierehottomont/sentier/33"/><trkseg>
<trkpt lat="50.630188" lon="4.867521"><time>2026-05-09T18:39:31Z</time></trkpt>
<trkpt lat="50.630108" lon="4.867266"><time>2026-05-09T18:49:31Z</time></trkpt>
<trkpt lat="50.629578" lon="4.867049"><time>2026-05-09T18:59:31Z</time></trkpt>
</trkseg>
</trk>
<trk>
<name>brmgr34</name>
<cmt>q</cmt>
<desc>Grand-Rosiere-Hottomont Sentier n°34 </desc>
<link href="https://chemins.be/grandrosierehottomont/sentier/34"/><trkseg>
<trkpt lat="50.628743" lon="4.868835"><time>2026-05-09T18:39:31Z</time></trkpt>
<trkpt lat="50.628538" lon="4.868479"><time>2026-05-09T18:49:31Z</time></trkpt>
</trkseg>
</trk>
<trk>
<name>brmgr35</name>
<cmt>q</cmt>
<desc>Grand-Rosiere-Hottomont Sentier n°35 </desc>
<link href="https://chemins.be/grandrosierehottomont/sentier/35"/><trkseg>
<trkpt lat="50.629268" lon="4.859582"><time>2026-05-09T18:39:31Z</time></trkpt>
<trkpt lat="50.628302" lon="4.860604"><time>2026-05-09T18:49:31Z</time></trkpt>
<trkpt lat="50.627531" lon="4.862221"><time>2026-05-09T18:59:31Z</time></trkpt>
<trkpt lat="50.624840" lon="4.865091"><time>2026-05-09T19:09:31Z</time></trkpt>
</trkseg>
</trk>
<trk>
<name>brmgr36</name>
<cmt>v</cmt>
<desc>Grand-Rosiere-Hottomont Sentier n°36 </desc>
<link href="https://chemins.be/grandrosierehottomont/sentier/36"/><trkseg>
<trkpt lat="50.627203" lon="4.869469"><time>2026-05-09T18:39:31Z</time></trkpt>
<trkpt lat="50.625820" lon="4.867221"><time>2026-05-09T18:49:31Z</time></trkpt>
<trkpt lat="50.624411" lon="4.864214"><time>2026-05-09T18:59:31Z</time></trkpt>
<trkpt lat="50.622702" lon="4.863235"><time>2026-05-09T19:09:31Z</time></trkpt>
</trkseg></trk>
<trk>
<name>brmgr36</name>
<cmt>d</cmt>
<desc>Grand-Rosiere-Hottomont Sentier n°36 </desc>
<link href="https://chemins.be/grandrosierehottomont/sentier/36"/><trkseg>
<trkpt lat="50.622702" lon="4.863235"><time>2026-05-09T19:09:31Z</time></trkpt>
<trkpt lat="50.622201" lon="4.862308"><time>2026-05-09T19:19:31Z</time></trkpt>
<trkpt lat="50.620480" lon="4.861399"><time>2026-05-09T19:29:31Z</time></trkpt>
</trkseg>
</trk>
<trk>
<name>brmgr37</name>
<cmt>q</cmt>
<desc>Grand-Rosiere-Hottomont Sentier n°37 </desc>
<link href="https://chemins.be/grandrosierehottomont/sentier/37"/><trkseg>
<trkpt lat="50.636425" lon="4.861412"><time>2026-05-09T18:39:31Z</time></trkpt>
<trkpt lat="50.634764" lon="4.859240"><time>2026-05-09T18:49:31Z</time></trkpt>
</trkseg>
</trk>
<trk>
<name>brmgr38</name>
<cmt>v</cmt>
<desc>Grand-Rosiere-Hottomont Sentier n°38 </desc>
<link href="https://chemins.be/grandrosierehottomont/sentier/38"/><trkseg>
<trkpt lat="50.633236" lon="4.872120"><time>2026-05-09T18:39:31Z</time></trkpt>
<trkpt lat="50.634644" lon="4.873205"><time>2026-05-09T18:49:31Z</time></trkpt>
<trkpt lat="50.634726" lon="4.873428"><time>2026-05-09T18:59:31Z</time></trkpt>
<trkpt lat="50.634704" lon="4.873600"><time>2026-05-09T19:09:31Z</time></trkpt>
</trkseg></trk>
<trk>
<name>brmgr38</name>
<cmt>q</cmt>
<desc>Grand-Rosiere-Hottomont Sentier n°38 </desc>
<link href="https://chemins.be/grandrosierehottomont/sentier/38"/><trkseg>
<trkpt lat="50.634704" lon="4.873600"><time>2026-05-09T19:09:31Z</time></trkpt>
<trkpt lat="50.635292" lon="4.874793"><time>2026-05-09T19:19:31Z</time></trkpt>
<trkpt lat="50.635646" lon="4.875102"><time>2026-05-09T19:29:31Z</time></trkpt>
<trkpt lat="50.636599" lon="4.874933"><time>2026-05-09T19:39:31Z</time></trkpt>
<trkpt lat="50.639048" lon="4.874501"><time>2026-05-09T19:49:31Z</time></trkpt>
<trkpt lat="50.641639" lon="4.877273"><time>2026-05-09T19:59:31Z</time></trkpt>
</trkseg>
</trk>
<trk>
<name>brmgr39</name>
<cmt>v</cmt>
<desc>Grand-Rosiere-Hottomont Sentier n°39 Rue des Bachères</desc>
<link href="https://chemins.be/grandrosierehottomont/sentier/39"/><trkseg>
<trkpt lat="50.627001" lon="4.877063"><time>2026-05-09T18:39:31Z</time></trkpt>
<trkpt lat="50.627007" lon="4.876179"><time>2026-05-09T18:49:31Z</time></trkpt>
</trkseg></trk>
<trk>
<name>brmgr39</name>
<cmt>d</cmt>
<desc>Grand-Rosiere-Hottomont Sentier n°39 Rue des Bachères</desc>
<link href="https://chemins.be/grandrosierehottomont/sentier/39"/><trkseg>
<trkpt lat="50.627007" lon="4.876179"><time>2026-05-09T18:49:31Z</time></trkpt>
<trkpt lat="50.627122" lon="4.875355"><time>2026-05-09T18:59:31Z</time></trkpt>
<trkpt lat="50.627595" lon="4.873647"><time>2026-05-09T19:09:31Z</time></trkpt>
<trkpt lat="50.627038" lon="4.873359"><time>2026-05-09T19:19:31Z</time></trkpt>
</trkseg>
</trk>
<trk>
<name>brmgr4</name>
<cmt>s</cmt>
<desc>Grand-Rosiere-Hottomont Chemin n°4 Rue Fontaine aux Corbeaux / Sentier GR Réouvert</desc>
<link href="https://chemins.be/grandrosierehottomont/chemin/4"/><trkseg>
<trkpt lat="50.618404" lon="4.871029"><time>2026-05-09T18:39:31Z</time></trkpt>
<trkpt lat="50.619315" lon="4.872522"><time>2026-05-09T18:49:31Z</time></trkpt>
<trkpt lat="50.620710" lon="4.874275"><time>2026-05-09T18:59:31Z</time></trkpt>
</trkseg></trk>
<trk>
<name>brmgr4</name>
<cmt>r</cmt>
<desc>Grand-Rosiere-Hottomont Chemin n°4 Rue Fontaine aux Corbeaux / Sentier GR Réouvert</desc>
<link href="https://chemins.be/grandrosierehottomont/chemin/4"/><trkseg>
<trkpt lat="50.620710" lon="4.874275"><time>2026-05-09T18:59:31Z</time></trkpt>
<trkpt lat="50.621984" lon="4.878825"><time>2026-05-09T19:09:31Z</time></trkpt>
</trkseg></trk>
<trk>
<name>brmgr4</name>
<cmt>v</cmt>
<desc>Grand-Rosiere-Hottomont Chemin n°4 Rue Fontaine aux Corbeaux / Sentier GR Réouvert</desc>
<link href="https://chemins.be/grandrosierehottomont/chemin/4"/><trkseg>
<trkpt lat="50.621984" lon="4.878825"><time>2026-05-09T19:09:31Z</time></trkpt>
<trkpt lat="50.622807" lon="4.879852"><time>2026-05-09T19:19:31Z</time></trkpt>
<trkpt lat="50.623626" lon="4.881783"><time>2026-05-09T19:29:31Z</time></trkpt>
<trkpt lat="50.624366" lon="4.881169"><time>2026-05-09T19:39:31Z</time></trkpt>
<trkpt lat="50.625097" lon="4.880442"><time>2026-05-09T19:49:31Z</time></trkpt>
<trkpt lat="50.625503" lon="4.880149"><time>2026-05-09T19:59:31Z</time></trkpt>
<trkpt lat="50.626142" lon="4.879987"><time>2026-05-09T20:09:31Z</time></trkpt>
<trkpt lat="50.626621" lon="4.879370"><time>2026-05-09T20:19:31Z</time></trkpt>
<trkpt lat="50.627133" lon="4.879531"><time>2026-05-09T20:29:31Z</time></trkpt>
<trkpt lat="50.628095" lon="4.879386"><time>2026-05-09T20:39:31Z</time></trkpt>
<trkpt lat="50.628411" lon="4.879206"><time>2026-05-09T20:49:31Z</time></trkpt>
</trkseg>
</trk>
<trk>
<name>brmgr40</name>
<cmt>v</cmt>
<desc>Grand-Rosiere-Hottomont Chemin n°40 Rue de Jausselette</desc>
<link href="https://chemins.be/grandrosierehottomont/chemin/40"/><trkseg>
<trkpt lat="50.616524" lon="4.856638"><time>2026-05-09T18:39:31Z</time></trkpt>
<trkpt lat="50.618121" lon="4.850861"><time>2026-05-09T18:49:31Z</time></trkpt>
<trkpt lat="50.618202" lon="4.848671"><time>2026-05-09T18:59:31Z</time></trkpt>
</trkseg>
</trk>
<trk>
<name>brmgr41</name>
<cmt>r</cmt>
<desc>Grand-Rosiere-Hottomont Chemin n°41 Chaussée Romaine / Chaussée des Romains</desc>
<link href="https://chemins.be/grandrosierehottomont/chemin/41"/><trkseg>
<trkpt lat="50.620478" lon="4.880705"><time>2026-05-09T18:39:31Z</time></trkpt>
<trkpt lat="50.618619" lon="4.872708"><time>2026-05-09T18:49:31Z</time></trkpt>
<trkpt lat="50.618372" lon="4.871435"><time>2026-05-09T18:59:31Z</time></trkpt>
<trkpt lat="50.618200" lon="4.869719"><time>2026-05-09T19:09:31Z</time></trkpt>
<trkpt lat="50.617945" lon="4.863009"><time>2026-05-09T19:19:31Z</time></trkpt>
<trkpt lat="50.616397" lon="4.856493"><time>2026-05-09T19:29:31Z</time></trkpt>
<trkpt lat="50.615422" lon="4.852395"><time>2026-05-09T19:39:31Z</time></trkpt>
</trkseg>
</trk>
<trk>
<name>brmgr42</name>
<cmt>v</cmt>
<desc>Grand-Rosiere-Hottomont Chemin n°42 </desc>
<link href="https://chemins.be/grandrosierehottomont/chemin/42"/><trkseg>
<trkpt lat="50.631853" lon="4.867744"><time>2026-05-09T18:39:31Z</time></trkpt>
<trkpt lat="50.631654" lon="4.866632"><time>2026-05-09T18:49:31Z</time></trkpt>
</trkseg>
</trk>
<trk>
<name>brmgr43</name>
<cmt>q</cmt>
<desc>Grand-Rosiere-Hottomont Sentier n°43 </desc>
<link href="https://chemins.be/grandrosierehottomont/sentier/43"/><trkseg>
<trkpt lat="50.624406" lon="4.885335"><time>2026-05-09T18:39:31Z</time></trkpt>
<trkpt lat="50.624638" lon="4.886266"><time>2026-05-09T18:49:31Z</time></trkpt>
<trkpt lat="50.625673" lon="4.888669"><time>2026-05-09T18:59:31Z</time></trkpt>
<trkpt lat="50.626069" lon="4.890166"><time>2026-05-09T19:09:31Z</time></trkpt>
<trkpt lat="50.628028" lon="4.897553"><time>2026-05-09T19:19:31Z</time></trkpt>
</trkseg>
</trk>
<trk>
<name>brmgr44</name>
<cmt>q</cmt>
<desc>Grand-Rosiere-Hottomont Sentier n°44 </desc>
<link href="https://chemins.be/grandrosierehottomont/sentier/44"/><trkseg>
<trkpt lat="50.626626" lon="4.886730"><time>2026-05-09T18:39:31Z</time></trkpt>
<trkpt lat="50.626569" lon="4.888343"><time>2026-05-09T18:49:31Z</time></trkpt>
<trkpt lat="50.624261" lon="4.897166"><time>2026-05-09T18:59:31Z</time></trkpt>
<trkpt lat="50.623964" lon="4.899822"><time>2026-05-09T19:09:31Z</time></trkpt>
</trkseg>
</trk>
<trk>
<name>brmgr45</name>
<cmt>v</cmt>
<desc>Grand-Rosiere-Hottomont Sentier n°45 Sentier 45</desc>
<link href="https://chemins.be/grandrosierehottomont/sentier/45"/><trkseg>
<trkpt lat="50.632526" lon="4.864114"><time>2026-05-09T18:39:31Z</time></trkpt>
<trkpt lat="50.633335" lon="4.866023"><time>2026-05-09T18:49:31Z</time></trkpt>
</trkseg>
</trk>
<trk>
<name>brmgr46</name>
<cmt>q</cmt>
<desc>Grand-Rosiere-Hottomont Sentier n°46 </desc>
<link href="https://chemins.be/grandrosierehottomont/sentier/46"/><trkseg>
<trkpt lat="50.626322" lon="4.879787"><time>2026-05-09T18:39:31Z</time></trkpt>
<trkpt lat="50.625505" lon="4.882211"><time>2026-05-09T18:49:31Z</time></trkpt>
</trkseg>
</trk>
<trk>
<name>brmgr47</name>
<cmt>q</cmt>
<desc>Grand-Rosiere-Hottomont Sentier n°47 </desc>
<link href="https://chemins.be/grandrosierehottomont/sentier/47"/><trkseg>
<trkpt lat="50.625475" lon="4.882173"><time>2026-05-09T18:39:31Z</time></trkpt>
<trkpt lat="50.624998" lon="4.880542"><time>2026-05-09T18:49:31Z</time></trkpt>
<trkpt lat="50.624670" lon="4.879420"><time>2026-05-09T18:59:31Z</time></trkpt>
<trkpt lat="50.624966" lon="4.877529"><time>2026-05-09T19:09:31Z</time></trkpt>
<trkpt lat="50.624810" lon="4.876199"><time>2026-05-09T19:19:31Z</time></trkpt>
</trkseg>
</trk>
<trk>
<name>brmgr48</name>
<cmt>q</cmt>
<desc>Grand-Rosiere-Hottomont Sentier n°48 </desc>
<link href="https://chemins.be/grandrosierehottomont/sentier/48"/><trkseg>
<trkpt lat="50.626479" lon="4.876952"><time>2026-05-09T18:39:31Z</time></trkpt>
<trkpt lat="50.626041" lon="4.878346"><time>2026-05-09T18:49:31Z</time></trkpt>
<trkpt lat="50.624679" lon="4.879335"><time>2026-05-09T18:59:31Z</time></trkpt>
</trkseg>
</trk>
<trk>
<name>brmgr49</name>
<cmt>q</cmt>
<desc>Grand-Rosiere-Hottomont Chemin n°49 </desc>
<link href="https://chemins.be/grandrosierehottomont/chemin/49"/><trkseg>
<trkpt lat="50.625376" lon="4.880327"><time>2026-05-09T18:39:31Z</time></trkpt>
<trkpt lat="50.625528" lon="4.880927"><time>2026-05-09T18:49:31Z</time></trkpt>
<trkpt lat="50.625495" lon="4.882753"><time>2026-05-09T18:59:31Z</time></trkpt>
<trkpt lat="50.625466" lon="4.884403"><time>2026-05-09T19:09:31Z</time></trkpt>
<trkpt lat="50.625554" lon="4.884941"><time>2026-05-09T19:19:31Z</time></trkpt>
</trkseg>
</trk>
<trk>
<name>brmgr5</name>
<cmt>r</cmt>
<desc>Grand-Rosiere-Hottomont Chemin n°5 Rue des Bourlettes</desc>
<link href="https://chemins.be/grandrosierehottomont/chemin/5"/><trkseg>
<trkpt lat="50.626676" lon="4.858114"><time>2026-05-09T18:39:31Z</time></trkpt>
<trkpt lat="50.625513" lon="4.858921"><time>2026-05-09T18:49:31Z</time></trkpt>
</trkseg>
</trk>
<trk>
<name>brmgr50</name>
<cmt>s</cmt>
<desc>Grand-Rosiere-Hottomont Sentier n°50 </desc>
<link href="https://chemins.be/grandrosierehottomont/sentier/50"/><trkseg>
<trkpt lat="50.626291" lon="4.886132"><time>2026-05-09T18:39:31Z</time></trkpt>
<trkpt lat="50.627580" lon="4.888578"><time>2026-05-09T18:49:31Z</time></trkpt>
<trkpt lat="50.628096" lon="4.889882"><time>2026-05-09T18:59:31Z</time></trkpt>
<trkpt lat="50.630356" lon="4.895074"><time>2026-05-09T19:09:31Z</time></trkpt>
<trkpt lat="50.630819" lon="4.896448"><time>2026-05-09T19:19:31Z</time></trkpt>
</trkseg>
</trk>
<trk>
<name>brmgr52</name>
<cmt>q</cmt>
<desc>Grand-Rosiere-Hottomont Sentier n°52 </desc>
<link href="https://chemins.be/grandrosierehottomont/sentier/52"/><trkseg>
<trkpt lat="50.632415" lon="4.893421"><time>2026-05-09T18:39:31Z</time></trkpt>
<trkpt lat="50.633216" lon="4.889598"><time>2026-05-09T18:49:31Z</time></trkpt>
</trkseg>
</trk>
<trk>
<name>brmgr53</name>
<cmt>s</cmt>
<desc>Grand-Rosiere-Hottomont Sentier n°53 </desc>
<link href="https://chemins.be/grandrosierehottomont/sentier/53"/><trkseg>
<trkpt lat="50.630883" lon="4.864659"><time>2026-05-09T18:39:31Z</time></trkpt>
<trkpt lat="50.630705" lon="4.864177"><time>2026-05-09T18:49:31Z</time></trkpt>
</trkseg>
</trk>
<trk>
<name>brmgr6</name>
<cmt>r</cmt>
<desc>Grand-Rosiere-Hottomont Chemin n°6 Rue du Chenois</desc>
<link href="https://chemins.be/grandrosierehottomont/chemin/6"/><trkseg>
<trkpt lat="50.631268" lon="4.852083"><time>2026-05-09T18:39:31Z</time></trkpt>
<trkpt lat="50.631650" lon="4.851070"><time>2026-05-09T18:49:31Z</time></trkpt>
<trkpt lat="50.631620" lon="4.849656"><time>2026-05-09T18:59:31Z</time></trkpt>
<trkpt lat="50.630868" lon="4.848941"><time>2026-05-09T19:09:31Z</time></trkpt>
</trkseg>
</trk>
<trk>
<name>brmgr7</name>
<cmt>r</cmt>
<desc>Grand-Rosiere-Hottomont Chemin n°7 Rue de l'Ornois / Rue des Bourlettes / Rue d'Albroux</desc>
<link href="https://chemins.be/grandrosierehottomont/chemin/7"/><trkseg>
<trkpt lat="50.622746" lon="4.849848"><time>2026-05-09T18:39:31Z</time></trkpt>
<trkpt lat="50.623781" lon="4.851682"><time>2026-05-09T18:49:31Z</time></trkpt>
<trkpt lat="50.624135" lon="4.853000"><time>2026-05-09T18:59:31Z</time></trkpt>
<trkpt lat="50.626712" lon="4.858058"><time>2026-05-09T19:09:31Z</time></trkpt>
<trkpt lat="50.627487" lon="4.859776"><time>2026-05-09T19:19:31Z</time></trkpt>
<trkpt lat="50.628606" lon="4.860947"><time>2026-05-09T19:29:31Z</time></trkpt>
<trkpt lat="50.630062" lon="4.863181"><time>2026-05-09T19:39:31Z</time></trkpt>
<trkpt lat="50.630660" lon="4.865375"><time>2026-05-09T19:49:31Z</time></trkpt>
<trkpt lat="50.630677" lon="4.866190"><time>2026-05-09T19:59:31Z</time></trkpt>
<trkpt lat="50.630963" lon="4.867001"><time>2026-05-09T20:09:31Z</time></trkpt>
</trkseg>
</trk>
<trk>
<name>brmgr8</name>
<cmt>s</cmt>
<desc>Grand-Rosiere-Hottomont Chemin n°8 </desc>
<link href="https://chemins.be/grandrosierehottomont/chemin/8"/><trkseg>
<trkpt lat="50.635870" lon="4.864567"><time>2026-05-09T18:39:31Z</time></trkpt>
<trkpt lat="50.636972" lon="4.864374"><time>2026-05-09T18:49:31Z</time></trkpt>
<trkpt lat="50.638585" lon="4.863430"><time>2026-05-09T18:59:31Z</time></trkpt>
</trkseg>
</trk>
<trk>
<name>brmgr9</name>
<cmt>r</cmt>
<desc>Grand-Rosiere-Hottomont Chemin n°9 Rue du Tombois</desc>
<link href="https://chemins.be/grandrosierehottomont/chemin/9"/><trkseg>
<trkpt lat="50.631713" lon="4.853340"><time>2026-05-09T18:39:31Z</time></trkpt>
<trkpt lat="50.632301" lon="4.852728"><time>2026-05-09T18:49:31Z</time></trkpt>
<trkpt lat="50.632651" lon="4.852635"><time>2026-05-09T18:59:31Z</time></trkpt>
<trkpt lat="50.632929" lon="4.852722"><time>2026-05-09T19:09:31Z</time></trkpt>
<trkpt lat="50.634865" lon="4.854170"><time>2026-05-09T19:19:31Z</time></trkpt>
</trkseg>
</trk>
<trk>
<name>brmgri1</name>
<cmt>v</cmt>
<desc>Grand-Rosiere-Hottomont Sentier n°i1 </desc>
<link href="https://chemins.be/grandrosierehottomont/sentier/i1"/><trkseg>
<trkpt lat="50.630349" lon="4.867537"><time>2026-05-09T18:39:31Z</time></trkpt>
<trkpt lat="50.630634" lon="4.868332"><time>2026-05-09T18:49:31Z</time></trkpt>
</trkseg>
</trk>
<trk>
<name>brmgri2</name>
<cmt>q</cmt>
<desc>Grand-Rosiere-Hottomont Chemin n°i2 </desc>
<link href="https://chemins.be/grandrosierehottomont/chemin/i2"/><trkseg>
<trkpt lat="50.629375" lon="4.859481"><time>2026-05-09T18:39:31Z</time></trkpt>
<trkpt lat="50.630185" lon="4.858537"><time>2026-05-09T18:49:31Z</time></trkpt>
</trkseg>
</trk>
<trk>
<name>brmgri3</name>
<cmt>r</cmt>
<desc>Grand-Rosiere-Hottomont Chemin n°i3 Rue des Bachères</desc>
<link href="https://chemins.be/grandrosierehottomont/chemin/i3"/><trkseg>
<trkpt lat="50.625659" lon="4.874947"><time>2026-05-09T18:39:31Z</time></trkpt>
<trkpt lat="50.626242" lon="4.875586"><time>2026-05-09T18:49:31Z</time></trkpt>
<trkpt lat="50.626745" lon="4.875921"><time>2026-05-09T18:59:31Z</time></trkpt>
<trkpt lat="50.627028" lon="4.876209"><time>2026-05-09T19:09:31Z</time></trkpt>
</trkseg>
</trk>
<trk>
<name>brmgri4</name>
<cmt>v</cmt>
<desc>Grand-Rosiere-Hottomont Chemin n°i4 </desc>
<link href="https://chemins.be/grandrosierehottomont/chemin/i4"/><trkseg>
<trkpt lat="50.626524" lon="4.876721"><time>2026-05-09T18:39:31Z</time></trkpt>
<trkpt lat="50.626609" lon="4.876536"><time>2026-05-09T18:49:31Z</time></trkpt>
<trkpt lat="50.626732" lon="4.875930"><time>2026-05-09T18:59:31Z</time></trkpt>
</trkseg>
</trk>
<trk>
<name>brmgri5</name>
<cmt>v</cmt>
<desc>Grand-Rosiere-Hottomont Sentier n°i5 </desc>
<link href="https://chemins.be/grandrosierehottomont/sentier/i5"/><trkseg>
<trkpt lat="50.622211" lon="4.891641"><time>2026-05-09T18:39:31Z</time></trkpt>
<trkpt lat="50.622742" lon="4.891083"><time>2026-05-09T18:49:31Z</time></trkpt>
</trkseg>
</trk>
<trk>
<name>brmgrp1</name>
<cmt>q</cmt>
<desc>Grand-Rosiere-Hottomont Chemin particulier n°p1 </desc>
<link href="https://chemins.be/grandrosierehottomont/chemin/p1"/><trkseg>
<trkpt lat="50.631915" lon="4.867739"><time>2026-05-09T18:39:31Z</time></trkpt>
<trkpt lat="50.632460" lon="4.869186"><time>2026-05-09T18:49:31Z</time></trkpt>
</trkseg>
</trk>
<trk>
<name>brmhp1</name>
<cmt>v</cmt>
<desc>Huppaye Chemin n°1 Chemin de Bomal</desc>
<link href="https://chemins.be/huppaye/chemin/1"/><trkseg>
<trkpt lat="50.688136" lon="4.872126"><time>2026-05-09T18:39:31Z</time></trkpt>
<trkpt lat="50.694753" lon="4.872027"><time>2026-05-09T18:49:31Z</time></trkpt>
<trkpt lat="50.701235" lon="4.870029"><time>2026-05-09T18:59:31Z</time></trkpt>
</trkseg>
</trk>
<trk>
<name>brmhp10</name>
<cmt>v</cmt>
<desc>Huppaye Chemin n°10 A</desc>
<link href="https://chemins.be/huppaye/chemin/10"/><trkseg>
<trkpt lat="50.693407" lon="4.875721"><time>2026-05-09T18:39:31Z</time></trkpt>
<trkpt lat="50.696061" lon="4.879245"><time>2026-05-09T18:49:31Z</time></trkpt>
</trkseg></trk>
<trk>
<name>brmhp10</name>
<cmt>d</cmt>
<desc>Huppaye Chemin n°10 A</desc>
<link href="https://chemins.be/huppaye/chemin/10"/><trkseg>
<trkpt lat="50.696061" lon="4.879245"><time>2026-05-09T18:49:31Z</time></trkpt>
<trkpt lat="50.696816" lon="4.880400"><time>2026-05-09T18:59:31Z</time></trkpt>
<trkpt lat="50.697911" lon="4.881799"><time>2026-05-09T19:09:31Z</time></trkpt>
<trkpt lat="50.699647" lon="4.883616"><time>2026-05-09T19:19:31Z</time></trkpt>
<trkpt lat="50.700323" lon="4.885130"><time>2026-05-09T19:29:31Z</time></trkpt>
</trkseg>
</trk>
<trk>
<name>brmhp11</name>
<cmt>v</cmt>
<desc>Huppaye Chemin n°11 Rue du Flori Boeuf</desc>
<link href="https://chemins.be/huppaye/chemin/11"/><trkseg>
<trkpt lat="50.695652" lon="4.910073"><time>2026-05-09T18:39:31Z</time></trkpt>
<trkpt lat="50.696376" lon="4.910071"><time>2026-05-09T18:49:31Z</time></trkpt>
<trkpt lat="50.696884" lon="4.910114"><time>2026-05-09T18:59:31Z</time></trkpt>
<trkpt lat="50.698356" lon="4.908656"><time>2026-05-09T19:09:31Z</time></trkpt>
<trkpt lat="50.699622" lon="4.909053"><time>2026-05-09T19:19:31Z</time></trkpt>
<trkpt lat="50.703324" lon="4.906774"><time>2026-05-09T19:29:31Z</time></trkpt>
</trkseg>
</trk>
<trk>
<name>brmhp12</name>
<cmt>v</cmt>
<desc>Huppaye Chemin n°12 </desc>
<link href="https://chemins.be/huppaye/chemin/12"/><trkseg>
<trkpt lat="50.694807" lon="4.911543"><time>2026-05-09T18:39:31Z</time></trkpt>
<trkpt lat="50.695303" lon="4.912949"><time>2026-05-09T18:49:31Z</time></trkpt>
<trkpt lat="50.695887" lon="4.915899"><time>2026-05-09T18:59:31Z</time></trkpt>
</trkseg>
</trk>
<trk>
<name>brmhp15</name>
<cmt>v</cmt>
<desc>Huppaye Chemin n°15 Rue des Champs</desc>
<link href="https://chemins.be/huppaye/chemin/15"/><trkseg>
<trkpt lat="50.678408" lon="4.895453"><time>2026-05-09T18:39:31Z</time></trkpt>
<trkpt lat="50.682012" lon="4.891446"><time>2026-05-09T18:49:31Z</time></trkpt>
<trkpt lat="50.684796" lon="4.887583"><time>2026-05-09T18:59:31Z</time></trkpt>
</trkseg></trk>
<trk>
<name>brmhp15</name>
<cmt>r</cmt>
<desc>Huppaye Chemin n°15 Rue des Champs</desc>
<link href="https://chemins.be/huppaye/chemin/15"/><trkseg>
<trkpt lat="50.684796" lon="4.887583"><time>2026-05-09T18:59:31Z</time></trkpt>
<trkpt lat="50.685679" lon="4.886379"><time>2026-05-09T19:09:31Z</time></trkpt>
<trkpt lat="50.687037" lon="4.885308"><time>2026-05-09T19:19:31Z</time></trkpt>
<trkpt lat="50.688567" lon="4.883460"><time>2026-05-09T19:29:31Z</time></trkpt>
<trkpt lat="50.688779" lon="4.883151"><time>2026-05-09T19:39:31Z</time></trkpt>
</trkseg>
</trk>
<trk>
<name>brmhp16</name>
<cmt>v</cmt>
<desc>Huppaye Chemin n°16 Rue de Fauconval / Rue de Glimes</desc>
<link href="https://chemins.be/huppaye/chemin/16"/><trkseg>
<trkpt lat="50.690495" lon="4.881486"><time>2026-05-09T18:39:31Z</time></trkpt>
<trkpt lat="50.691155" lon="4.880794"><time>2026-05-09T18:49:31Z</time></trkpt>
</trkseg></trk>
<trk>
<name>brmhp16</name>
<cmt>r</cmt>
<desc>Huppaye Chemin n°16 Rue de Fauconval / Rue de Glimes</desc>
<link href="https://chemins.be/huppaye/chemin/16"/><trkseg>
<trkpt lat="50.691155" lon="4.880794"><time>2026-05-09T18:49:31Z</time></trkpt>
<trkpt lat="50.690672" lon="4.878466"><time>2026-05-09T18:59:31Z</time></trkpt>
</trkseg></trk>
<trk>
<name>brmhp16</name>
<cmt>v</cmt>
<desc>Huppaye Chemin n°16 Rue de Fauconval / Rue de Glimes</desc>
<link href="https://chemins.be/huppaye/chemin/16"/><trkseg>
<trkpt lat="50.690672" lon="4.878466"><time>2026-05-09T18:59:31Z</time></trkpt>
<trkpt lat="50.691490" lon="4.877543"><time>2026-05-09T19:09:31Z</time></trkpt>
<trkpt lat="50.693359" lon="4.875677"><time>2026-05-09T19:19:31Z</time></trkpt>
</trkseg>
</trk>
<trk>
<name>brmhp17</name>
<cmt>r</cmt>
<desc>Huppaye Chemin n°17 Rue de Glimes</desc>
<link href="https://chemins.be/huppaye/chemin/17"/><trkseg>
<trkpt lat="50.685783" lon="4.867012"><time>2026-05-09T18:39:31Z</time></trkpt>
<trkpt lat="50.686588" lon="4.869175"><time>2026-05-09T18:49:31Z</time></trkpt>
<trkpt lat="50.688371" lon="4.872265"><time>2026-05-09T18:59:31Z</time></trkpt>
</trkseg></trk>
<trk>
<name>brmhp17</name>
<cmt>v</cmt>
<desc>Huppaye Chemin n°17 Rue de Glimes</desc>
<link href="https://chemins.be/huppaye/chemin/17"/><trkseg>
<trkpt lat="50.688371" lon="4.872265"><time>2026-05-09T18:59:31Z</time></trkpt>
<trkpt lat="50.689468" lon="4.873966"><time>2026-05-09T19:09:31Z</time></trkpt>
</trkseg></trk>
<trk>
<name>brmhp17</name>
<cmt>d</cmt>
<desc>Huppaye Chemin n°17 Rue de Glimes</desc>
<link href="https://chemins.be/huppaye/chemin/17"/><trkseg>
<trkpt lat="50.689468" lon="4.873966"><time>2026-05-09T19:09:31Z</time></trkpt>
<trkpt lat="50.690624" lon="4.875759"><time>2026-05-09T19:19:31Z</time></trkpt>
</trkseg></trk>
<trk>
<name>brmhp17</name>
<cmt>v</cmt>
<desc>Huppaye Chemin n°17 Rue de Glimes</desc>
<link href="https://chemins.be/huppaye/chemin/17"/><trkseg>
<trkpt lat="50.690624" lon="4.875759"><time>2026-05-09T19:19:31Z</time></trkpt>
<trkpt lat="50.691517" lon="4.877586"><time>2026-05-09T19:29:31Z</time></trkpt>
<trkpt lat="50.692006" lon="4.878423"><time>2026-05-09T19:39:31Z</time></trkpt>
<trkpt lat="50.692727" lon="4.879196"><time>2026-05-09T19:49:31Z</time></trkpt>
</trkseg></trk>
<trk>
<name>brmhp17</name>
<cmt>d</cmt>
<desc>Huppaye Chemin n°17 Rue de Glimes</desc>
<link href="https://chemins.be/huppaye/chemin/17"/><trkseg>
<trkpt lat="50.692727" lon="4.879196"><time>2026-05-09T19:49:31Z</time></trkpt>
<trkpt lat="50.694760" lon="4.878959"><time>2026-05-09T19:59:31Z</time></trkpt>
<trkpt lat="50.696054" lon="4.879231"><time>2026-05-09T20:09:31Z</time></trkpt>
</trkseg></trk>
<trk>
<name>brmhp17</name>
<cmt>v</cmt>
<desc>Huppaye Chemin n°17 Rue de Glimes</desc>
<link href="https://chemins.be/huppaye/chemin/17"/><trkseg>
<trkpt lat="50.696054" lon="4.879231"><time>2026-05-09T20:09:31Z</time></trkpt>
<trkpt lat="50.698552" lon="4.879558"><time>2026-05-09T20:19:31Z</time></trkpt>
</trkseg>
</trk>
<trk>
<name>brmhp18</name>
<cmt>b</cmt>
<desc>Huppaye Chemin n°18 </desc>
<link href="https://chemins.be/huppaye/chemin/18"/><trkseg>
<trkpt lat="50.692047" lon="4.878482"><time>2026-05-09T18:39:31Z</time></trkpt>
<trkpt lat="50.691463" lon="4.878659"><time>2026-05-09T18:49:31Z</time></trkpt>
<trkpt lat="50.690681" lon="4.878439"><time>2026-05-09T18:59:31Z</time></trkpt>
</trkseg></trk>
<trk>
<name>brmhp18</name>
<cmt>v</cmt>
<desc>Huppaye Chemin n°18 </desc>
<link href="https://chemins.be/huppaye/chemin/18"/><trkseg>
<trkpt lat="50.690681" lon="4.878439"><time>2026-05-09T18:59:31Z</time></trkpt>
<trkpt lat="50.689458" lon="4.878166"><time>2026-05-09T19:09:31Z</time></trkpt>
<trkpt lat="50.685605" lon="4.881045"><time>2026-05-09T19:19:31Z</time></trkpt>
<trkpt lat="50.684502" lon="4.880826"><time>2026-05-09T19:29:31Z</time></trkpt>
<trkpt lat="50.683708" lon="4.879493"><time>2026-05-09T19:39:31Z</time></trkpt>
<trkpt lat="50.682994" lon="4.879011"><time>2026-05-09T19:49:31Z</time></trkpt>
<trkpt lat="50.679641" lon="4.882371"><time>2026-05-09T19:59:31Z</time></trkpt>
<trkpt lat="50.679467" lon="4.881951"><time>2026-05-09T20:09:31Z</time></trkpt>
<trkpt lat="50.678170" lon="4.883607"><time>2026-05-09T20:19:31Z</time></trkpt>
</trkseg>
</trk>
<trk>
<name>brmhp19</name>
<cmt>v</cmt>
<desc>Huppaye Chemin n°19 </desc>
<link href="https://chemins.be/huppaye/chemin/19"/><trkseg>
<trkpt lat="50.686450" lon="4.899597"><time>2026-05-09T18:39:31Z</time></trkpt>
<trkpt lat="50.685236" lon="4.895611"><time>2026-05-09T18:49:31Z</time></trkpt>
<trkpt lat="50.684574" lon="4.895257"><time>2026-05-09T18:59:31Z</time></trkpt>
<trkpt lat="50.683177" lon="4.896222"><time>2026-05-09T19:09:31Z</time></trkpt>
<trkpt lat="50.681579" lon="4.897410"><time>2026-05-09T19:19:31Z</time></trkpt>
<trkpt lat="50.680590" lon="4.897596"><time>2026-05-09T19:29:31Z</time></trkpt>
<trkpt lat="50.679084" lon="4.898101"><time>2026-05-09T19:39:31Z</time></trkpt>
</trkseg>
</trk>
<trk>
<name>brmhp2</name>
<cmt>v</cmt>
<desc>Huppaye Chemin n°2 Rue des Tombelles</desc>
<link href="https://chemins.be/huppaye/chemin/2"/><trkseg>
<trkpt lat="50.692638" lon="4.887199"><time>2026-05-09T18:39:31Z</time></trkpt>
<trkpt lat="50.693162" lon="4.884421"><time>2026-05-09T18:49:31Z</time></trkpt>
<trkpt lat="50.692734" lon="4.882833"><time>2026-05-09T18:59:31Z</time></trkpt>
<trkpt lat="50.692815" lon="4.881288"><time>2026-05-09T19:09:31Z</time></trkpt>
<trkpt lat="50.692788" lon="4.880530"><time>2026-05-09T19:19:31Z</time></trkpt>
<trkpt lat="50.692737" lon="4.879115"><time>2026-05-09T19:29:31Z</time></trkpt>
</trkseg></trk>
<trk>
<name>brmhp2</name>
<cmt>d</cmt>
<desc>Huppaye Chemin n°2 Rue des Tombelles</desc>
<link href="https://chemins.be/huppaye/chemin/2"/><trkseg>
<trkpt lat="50.692737" lon="4.879115"><time>2026-05-09T19:29:31Z</time></trkpt>
<trkpt lat="50.692822" lon="4.877382"><time>2026-05-09T19:39:31Z</time></trkpt>
<trkpt lat="50.693352" lon="4.875709"><time>2026-05-09T19:49:31Z</time></trkpt>
</trkseg></trk>
<trk>
<name>brmhp2</name>
<cmt>v</cmt>
<desc>Huppaye Chemin n°2 Rue des Tombelles</desc>
<link href="https://chemins.be/huppaye/chemin/2"/><trkseg>
<trkpt lat="50.693352" lon="4.875709"><time>2026-05-09T19:49:31Z</time></trkpt>
<trkpt lat="50.694045" lon="4.874496"><time>2026-05-09T19:59:31Z</time></trkpt>
<trkpt lat="50.694805" lon="4.871973"><time>2026-05-09T20:09:31Z</time></trkpt>
<trkpt lat="50.694870" lon="4.871183"><time>2026-05-09T20:19:31Z</time></trkpt>
<trkpt lat="50.694281" lon="4.867661"><time>2026-05-09T20:29:31Z</time></trkpt>
<trkpt lat="50.694505" lon="4.866699"><time>2026-05-09T20:39:31Z</time></trkpt>
</trkseg>
</trk>
<trk>
<name>brmhp20</name>
<cmt>v</cmt>
<desc>Huppaye Chemin n°20 </desc>
<link href="https://chemins.be/huppaye/chemin/20"/><trkseg>
<trkpt lat="50.696251" lon="4.918475"><time>2026-05-09T18:39:31Z</time></trkpt>
<trkpt lat="50.697958" lon="4.916767"><time>2026-05-09T18:49:31Z</time></trkpt>
<trkpt lat="50.698763" lon="4.915814"><time>2026-05-09T18:59:31Z</time></trkpt>
</trkseg></trk>
<trk>
<name>brmhp20</name>
<cmt>d</cmt>
<desc>Huppaye Chemin n°20 </desc>
<link href="https://chemins.be/huppaye/chemin/20"/><trkseg>
<trkpt lat="50.698763" lon="4.915814"><time>2026-05-09T18:59:31Z</time></trkpt>
<trkpt lat="50.700193" lon="4.914870"><time>2026-05-09T19:09:31Z</time></trkpt>
<trkpt lat="50.702035" lon="4.911420"><time>2026-05-09T19:19:31Z</time></trkpt>
<trkpt lat="50.703786" lon="4.907154"><time>2026-05-09T19:29:31Z</time></trkpt>
<trkpt lat="50.704514" lon="4.906201"><time>2026-05-09T19:39:31Z</time></trkpt>
</trkseg>
</trk>
<trk>
<name>brmhp21</name>
<cmt>v</cmt>
<desc>Huppaye Sentier n°21 </desc>
<link href="https://chemins.be/huppaye/sentier/21"/><trkseg>
<trkpt lat="50.691499" lon="4.896505"><time>2026-05-09T18:39:31Z</time></trkpt>
<trkpt lat="50.691432" lon="4.895358"><time>2026-05-09T18:49:31Z</time></trkpt>
<trkpt lat="50.691650" lon="4.894737"><time>2026-05-09T18:59:31Z</time></trkpt>
<trkpt lat="50.691233" lon="4.893556"><time>2026-05-09T19:09:31Z</time></trkpt>
<trkpt lat="50.691308" lon="4.892851"><time>2026-05-09T19:19:31Z</time></trkpt>
</trkseg>
</trk>
<trk>
<name>brmhp24</name>
<cmt>r</cmt>
<desc>Huppaye Sentier n°24 Rue du Buchet</desc>
<link href="https://chemins.be/huppaye/sentier/24"/><trkseg>
<trkpt lat="50.695515" lon="4.904182"><time>2026-05-09T18:39:31Z</time></trkpt>
<trkpt lat="50.696129" lon="4.903431"><time>2026-05-09T18:49:31Z</time></trkpt>
<trkpt lat="50.696583" lon="4.904319"><time>2026-05-09T18:59:31Z</time></trkpt>
</trkseg></trk>
<trk>
<name>brmhp24</name>
<cmt>v</cmt>
<desc>Huppaye Sentier n°24 Rue du Buchet</desc>
<link href="https://chemins.be/huppaye/sentier/24"/><trkseg>
<trkpt lat="50.696583" lon="4.904319"><time>2026-05-09T18:59:31Z</time></trkpt>
<trkpt lat="50.697012" lon="4.904363"><time>2026-05-09T19:09:31Z</time></trkpt>
<trkpt lat="50.697423" lon="4.904899"><time>2026-05-09T19:19:31Z</time></trkpt>
<trkpt lat="50.698031" lon="4.905039"><time>2026-05-09T19:29:31Z</time></trkpt>
</trkseg></trk>
<trk>
<name>brmhp24</name>
<cmt>q</cmt>
<desc>Huppaye Sentier n°24 Rue du Buchet</desc>
<link href="https://chemins.be/huppaye/sentier/24"/><trkseg>
<trkpt lat="50.698031" lon="4.905039"><time>2026-05-09T19:29:31Z</time></trkpt>
<trkpt lat="50.698840" lon="4.904706"><time>2026-05-09T19:39:31Z</time></trkpt>
<trkpt lat="50.699916" lon="4.904571"><time>2026-05-09T19:49:31Z</time></trkpt>
<trkpt lat="50.700420" lon="4.904508"><time>2026-05-09T19:59:31Z</time></trkpt>
<trkpt lat="50.701395" lon="4.903623"><time>2026-05-09T20:09:31Z</time></trkpt>
</trkseg>
</trk>
<trk>
<name>brmhp25</name>
<cmt>d</cmt>
<desc>Huppaye Sentier n°25 </desc>
<link href="https://chemins.be/huppaye/sentier/25"/><trkseg>
<trkpt lat="50.689366" lon="4.881143"><time>2026-05-09T18:39:31Z</time></trkpt>
<trkpt lat="50.688452" lon="4.881400"><time>2026-05-09T18:49:31Z</time></trkpt>
<trkpt lat="50.687909" lon="4.882482"><time>2026-05-09T18:59:31Z</time></trkpt>
</trkseg></trk>
<trk>
<name>brmhp25</name>
<cmt>q</cmt>
<desc>Huppaye Sentier n°25 </desc>
<link href="https://chemins.be/huppaye/sentier/25"/><trkseg>
<trkpt lat="50.687909" lon="4.882482"><time>2026-05-09T18:59:31Z</time></trkpt>
<trkpt lat="50.687996" lon="4.884190"><time>2026-05-09T19:09:31Z</time></trkpt>
</trkseg></trk>
<trk>
<name>brmhp25</name>
<cmt>d</cmt>
<desc>Huppaye Sentier n°25 </desc>
<link href="https://chemins.be/huppaye/sentier/25"/><trkseg>
<trkpt lat="50.687996" lon="4.884190"><time>2026-05-09T19:09:31Z</time></trkpt>
<trkpt lat="50.688944" lon="4.885992"><time>2026-05-09T19:19:31Z</time></trkpt>
</trkseg></trk>
<trk>
<name>brmhp25</name>
<cmt>v</cmt>
<desc>Huppaye Sentier n°25 </desc>
<link href="https://chemins.be/huppaye/sentier/25"/><trkseg>
<trkpt lat="50.688944" lon="4.885992"><time>2026-05-09T19:19:31Z</time></trkpt>
<trkpt lat="50.689304" lon="4.886389"><time>2026-05-09T19:29:31Z</time></trkpt>
<trkpt lat="50.690168" lon="4.888814"><time>2026-05-09T19:39:31Z</time></trkpt>
<trkpt lat="50.690140" lon="4.889426"><time>2026-05-09T19:49:31Z</time></trkpt>
</trkseg></trk>
<trk>
<name>brmhp25</name>
<cmt>d</cmt>
<desc>Huppaye Sentier n°25 </desc>
<link href="https://chemins.be/huppaye/sentier/25"/><trkseg>
<trkpt lat="50.690140" lon="4.889426"><time>2026-05-09T19:49:31Z</time></trkpt>
<trkpt lat="50.690596" lon="4.890799"><time>2026-05-09T19:59:31Z</time></trkpt>
</trkseg>
</trk>
<trk>
<name>brmhp26</name>
<cmt>v</cmt>
<desc>Huppaye Sentier n°26 </desc>
<link href="https://chemins.be/huppaye/sentier/26"/><trkseg>
<trkpt lat="50.688615" lon="4.893009"><time>2026-05-09T18:39:31Z</time></trkpt>
<trkpt lat="50.687971" lon="4.893358"><time>2026-05-09T18:49:31Z</time></trkpt>
</trkseg></trk>
<trk>
<name>brmhp26</name>
<cmt>d</cmt>
<desc>Huppaye Sentier n°26 </desc>
<link href="https://chemins.be/huppaye/sentier/26"/><trkseg>
<trkpt lat="50.687971" lon="4.893358"><time>2026-05-09T18:49:31Z</time></trkpt>
<trkpt lat="50.686453" lon="4.894181"><time>2026-05-09T18:59:31Z</time></trkpt>
<trkpt lat="50.684611" lon="4.895292"><time>2026-05-09T19:09:31Z</time></trkpt>
</trkseg>
</trk>
<trk>
<name>brmhp27</name>
<cmt>d</cmt>
<desc>Huppaye Sentier n°27 </desc>
<link href="https://chemins.be/huppaye/sentier/27"/><trkseg>
<trkpt lat="50.690659" lon="4.883007"><time>2026-05-09T18:39:31Z</time></trkpt>
<trkpt lat="50.690016" lon="4.883710"><time>2026-05-09T18:49:31Z</time></trkpt>
<trkpt lat="50.689304" lon="4.886389"><time>2026-05-09T18:59:31Z</time></trkpt>
</trkseg></trk>
<trk>
<name>brmhp27</name>
<cmt>s</cmt>
<desc>Huppaye Sentier n°27 </desc>
<link href="https://chemins.be/huppaye/sentier/27"/><trkseg>
<trkpt lat="50.689304" lon="4.886389"><time>2026-05-09T18:59:31Z</time></trkpt>
<trkpt lat="50.688550" lon="4.891646"><time>2026-05-09T19:09:31Z</time></trkpt>
</trkseg></trk>
<trk>
<name>brmhp27</name>
<cmt>r</cmt>
<desc>Huppaye Sentier n°27 </desc>
<link href="https://chemins.be/huppaye/sentier/27"/><trkseg>
<trkpt lat="50.688550" lon="4.891646"><time>2026-05-09T19:09:31Z</time></trkpt>
<trkpt lat="50.688998" lon="4.892258"><time>2026-05-09T19:19:31Z</time></trkpt>
</trkseg>
</trk>
<trk>
<name>brmhp28</name>
<cmt>v</cmt>
<desc>Huppaye Sentier n°28 </desc>
<link href="https://chemins.be/huppaye/sentier/28"/><trkseg>
<trkpt lat="50.691208" lon="4.891138"><time>2026-05-09T18:39:31Z</time></trkpt>
<trkpt lat="50.691406" lon="4.891126"><time>2026-05-09T18:49:31Z</time></trkpt>
<trkpt lat="50.692524" lon="4.890416"><time>2026-05-09T18:59:31Z</time></trkpt>
<trkpt lat="50.693138" lon="4.889701"><time>2026-05-09T19:09:31Z</time></trkpt>
<trkpt lat="50.694213" lon="4.888553"><time>2026-05-09T19:19:31Z</time></trkpt>
</trkseg>
</trk>
<trk>
<name>brmhp29</name>
<cmt>d</cmt>
<desc>Huppaye Sentier n°29 </desc>
<link href="https://chemins.be/huppaye/sentier/29"/><trkseg>
<trkpt lat="50.689415" lon="4.881265"><time>2026-05-09T18:39:31Z</time></trkpt>
<trkpt lat="50.689317" lon="4.881016"><time>2026-05-09T18:49:31Z</time></trkpt>
<trkpt lat="50.689458" lon="4.879437"><time>2026-05-09T18:59:31Z</time></trkpt>
<trkpt lat="50.689121" lon="4.878330"><time>2026-05-09T19:09:31Z</time></trkpt>
<trkpt lat="50.687718" lon="4.875309"><time>2026-05-09T19:19:31Z</time></trkpt>
<trkpt lat="50.686383" lon="4.871501"><time>2026-05-09T19:29:31Z</time></trkpt>
<trkpt lat="50.686612" lon="4.869432"><time>2026-05-09T19:39:31Z</time></trkpt>
</trkseg>
</trk>
<trk>
<name>brmhp30</name>
<cmt>d</cmt>
<desc>Huppaye Sentier n°30 </desc>
<link href="https://chemins.be/huppaye/sentier/30"/><trkseg>
<trkpt lat="50.689228" lon="4.881838"><time>2026-05-09T18:39:31Z</time></trkpt>
<trkpt lat="50.689354" lon="4.881956"><time>2026-05-09T18:49:31Z</time></trkpt>
<trkpt lat="50.689275" lon="4.882337"><time>2026-05-09T18:59:31Z</time></trkpt>
<trkpt lat="50.689632" lon="4.882669"><time>2026-05-09T19:09:31Z</time></trkpt>
<trkpt lat="50.690057" lon="4.883758"><time>2026-05-09T19:19:31Z</time></trkpt>
<trkpt lat="50.690767" lon="4.885244"><time>2026-05-09T19:29:31Z</time></trkpt>
<trkpt lat="50.691158" lon="4.885866"><time>2026-05-09T19:39:31Z</time></trkpt>
</trkseg>
</trk>
<trk>
<name>brmhp31</name>
<cmt>q</cmt>
<desc>Huppaye Sentier n°31 </desc>
<link href="https://chemins.be/huppaye/sentier/31"/><trkseg>
<trkpt lat="50.688987" lon="4.882642"><time>2026-05-09T18:39:31Z</time></trkpt>
<trkpt lat="50.690033" lon="4.883699"><time>2026-05-09T18:49:31Z</time></trkpt>
</trkseg>
</trk>
<trk>
<name>brmhp32</name>
<cmt>d</cmt>
<desc>Huppaye Sentier n°32 </desc>
<link href="https://chemins.be/huppaye/sentier/32"/><trkseg>
<trkpt lat="50.691318" lon="4.882264"><time>2026-05-09T18:39:31Z</time></trkpt>
<trkpt lat="50.691892" lon="4.881486"><time>2026-05-09T18:49:31Z</time></trkpt>
<trkpt lat="50.692793" lon="4.881323"><time>2026-05-09T18:59:31Z</time></trkpt>
<trkpt lat="50.693261" lon="4.881287"><time>2026-05-09T19:09:31Z</time></trkpt>
<trkpt lat="50.695683" lon="4.879056"><time>2026-05-09T19:19:31Z</time></trkpt>
<trkpt lat="50.696634" lon="4.876882"><time>2026-05-09T19:29:31Z</time></trkpt>
<trkpt lat="50.697241" lon="4.874750"><time>2026-05-09T19:39:31Z</time></trkpt>
<trkpt lat="50.698872" lon="4.874049"><time>2026-05-09T19:49:31Z</time></trkpt>
</trkseg>
</trk>
<trk>
<name>brmhp34</name>
<cmt>d</cmt>
<desc>Huppaye Sentier n°34 </desc>
<link href="https://chemins.be/huppaye/sentier/34"/><trkseg>
<trkpt lat="50.686511" lon="4.878330"><time>2026-05-09T18:39:31Z</time></trkpt>
<trkpt lat="50.686710" lon="4.877367"><time>2026-05-09T18:49:31Z</time></trkpt>
</trkseg></trk>
<trk>
<name>brmhp34</name>
<cmt>s</cmt>
<desc>Huppaye Sentier n°34 </desc>
<link href="https://chemins.be/huppaye/sentier/34"/><trkseg>
<trkpt lat="50.686710" lon="4.877367"><time>2026-05-09T18:49:31Z</time></trkpt>
<trkpt lat="50.687338" lon="4.874330"><time>2026-05-09T18:59:31Z</time></trkpt>
</trkseg>
</trk>
<trk>
<name>brmhp35</name>
<cmt>d</cmt>
<desc>Huppaye Sentier n°35 </desc>
<link href="https://chemins.be/huppaye/sentier/35"/><trkseg>
<trkpt lat="50.691899" lon="4.881517"><time>2026-05-09T18:39:31Z</time></trkpt>
<trkpt lat="50.692735" lon="4.879471"><time>2026-05-09T18:49:31Z</time></trkpt>
</trkseg>
</trk>
<trk>
<name>brmhp36</name>
<cmt>s</cmt>
<desc>Huppaye Sentier n°36 </desc>
<link href="https://chemins.be/huppaye/sentier/36"/><trkseg>
<trkpt lat="50.690609" lon="4.875777"><time>2026-05-09T18:39:31Z</time></trkpt>
<trkpt lat="50.690663" lon="4.872816"><time>2026-05-09T18:49:31Z</time></trkpt>
<trkpt lat="50.690255" lon="4.872198"><time>2026-05-09T18:59:31Z</time></trkpt>
<trkpt lat="50.689673" lon="4.869366"><time>2026-05-09T19:09:31Z</time></trkpt>
</trkseg>
</trk>
<trk>
<name>brmhp37</name>
<cmt>v</cmt>
<desc>Huppaye Chemin n°37 </desc>
<link href="https://chemins.be/huppaye/chemin/37"/><trkseg>
<trkpt lat="50.683019" lon="4.878981"><time>2026-05-09T18:39:31Z</time></trkpt>
<trkpt lat="50.683862" lon="4.877745"><time>2026-05-09T18:49:31Z</time></trkpt>
<trkpt lat="50.685284" lon="4.877264"><time>2026-05-09T18:59:31Z</time></trkpt>
<trkpt lat="50.686173" lon="4.877578"><time>2026-05-09T19:09:31Z</time></trkpt>
<trkpt lat="50.686673" lon="4.878500"><time>2026-05-09T19:19:31Z</time></trkpt>
<trkpt lat="50.687222" lon="4.879964"><time>2026-05-09T19:29:31Z</time></trkpt>
</trkseg>
</trk>
<trk>
<name>brmhp38</name>
<cmt>s</cmt>
<desc>Huppaye Sentier n°38 </desc>
<link href="https://chemins.be/huppaye/sentier/38"/><trkseg>
<trkpt lat="50.691457" lon="4.895321"><time>2026-05-09T18:39:31Z</time></trkpt>
<trkpt lat="50.691229" lon="4.895270"><time>2026-05-09T18:49:31Z</time></trkpt>
<trkpt lat="50.690902" lon="4.895664"><time>2026-05-09T18:59:31Z</time></trkpt>
<trkpt lat="50.690473" lon="4.895321"><time>2026-05-09T19:09:31Z</time></trkpt>
<trkpt lat="50.689581" lon="4.896008"><time>2026-05-09T19:19:31Z</time></trkpt>
<trkpt lat="50.689440" lon="4.895407"><time>2026-05-09T19:29:31Z</time></trkpt>
</trkseg></trk>
<trk>
<name>brmhp38</name>
<cmt>v</cmt>
<desc>Huppaye Sentier n°38 </desc>
<link href="https://chemins.be/huppaye/sentier/38"/><trkseg>
<trkpt lat="50.689440" lon="4.895407"><time>2026-05-09T19:29:31Z</time></trkpt>
<trkpt lat="50.688873" lon="4.895579"><time>2026-05-09T19:39:31Z</time></trkpt>
</trkseg></trk>
<trk>
<name>brmhp38</name>
<cmt>d</cmt>
<desc>Huppaye Sentier n°38 </desc>
<link href="https://chemins.be/huppaye/sentier/38"/><trkseg>
<trkpt lat="50.688873" lon="4.895579"><time>2026-05-09T19:39:31Z</time></trkpt>
<trkpt lat="50.685284" lon="4.895622"><time>2026-05-09T19:49:31Z</time></trkpt>
</trkseg>
</trk>
<trk>
<name>brmhp39</name>
<cmt>v</cmt>
<desc>Huppaye Sentier n°39 </desc>
<link href="https://chemins.be/huppaye/sentier/39"/><trkseg>
<trkpt lat="50.688873" lon="4.895581"><time>2026-05-09T18:39:31Z</time></trkpt>
<trkpt lat="50.688586" lon="4.894873"><time>2026-05-09T18:49:31Z</time></trkpt>
</trkseg></trk>
<trk>
<name>brmhp39</name>
<cmt>b</cmt>
<desc>Huppaye Sentier n°39 </desc>
<link href="https://chemins.be/huppaye/sentier/39"/><trkseg>
<trkpt lat="50.688586" lon="4.894873"><time>2026-05-09T18:49:31Z</time></trkpt>
<trkpt lat="50.687965" lon="4.893339"><time>2026-05-09T18:59:31Z</time></trkpt>
</trkseg>
</trk>
<trk>
<name>brmhp4</name>
<cmt>q</cmt>
<desc>Huppaye Chemin n°4 Vieux Chemin de Jodoigne</desc>
<link href="https://chemins.be/huppaye/chemin/4"/><trkseg>
<trkpt lat="50.682008" lon="4.904226"><time>2026-05-09T18:39:31Z</time></trkpt>
<trkpt lat="50.683911" lon="4.902767"><time>2026-05-09T18:49:31Z</time></trkpt>
</trkseg></trk>
<trk>
<name>brmhp4</name>
<cmt>v</cmt>
<desc>Huppaye Chemin n°4 Vieux Chemin de Jodoigne</desc>
<link href="https://chemins.be/huppaye/chemin/4"/><trkseg>
<trkpt lat="50.683911" lon="4.902767"><time>2026-05-09T18:49:31Z</time></trkpt>
<trkpt lat="50.684822" lon="4.902724"><time>2026-05-09T18:59:31Z</time></trkpt>
<trkpt lat="50.686338" lon="4.901286"><time>2026-05-09T19:09:31Z</time></trkpt>
<trkpt lat="50.686563" lon="4.899688"><time>2026-05-09T19:19:31Z</time></trkpt>
</trkseg></trk>
<trk>
<name>brmhp4</name>
<cmt>r</cmt>
<desc>Huppaye Chemin n°4 Vieux Chemin de Jodoigne</desc>
<link href="https://chemins.be/huppaye/chemin/4"/><trkseg>
<trkpt lat="50.686563" lon="4.899688"><time>2026-05-09T19:19:31Z</time></trkpt>
<trkpt lat="50.690261" lon="4.897842"><time>2026-05-09T19:29:31Z</time></trkpt>
<trkpt lat="50.692604" lon="4.895493"><time>2026-05-09T19:39:31Z</time></trkpt>
<trkpt lat="50.693488" lon="4.893830"><time>2026-05-09T19:49:31Z</time></trkpt>
</trkseg></trk>
<trk>
<name>brmhp4</name>
<cmt>v</cmt>
<desc>Huppaye Chemin n°4 Vieux Chemin de Jodoigne</desc>
<link href="https://chemins.be/huppaye/chemin/4"/><trkseg>
<trkpt lat="50.693488" lon="4.893830"><time>2026-05-09T19:49:31Z</time></trkpt>
<trkpt lat="50.695237" lon="4.890956"><time>2026-05-09T19:59:31Z</time></trkpt>
<trkpt lat="50.695924" lon="4.889930"><time>2026-05-09T20:09:31Z</time></trkpt>
<trkpt lat="50.696719" lon="4.889146"><time>2026-05-09T20:19:31Z</time></trkpt>
<trkpt lat="50.698977" lon="4.886779"><time>2026-05-09T20:29:31Z</time></trkpt>
<trkpt lat="50.700288" lon="4.885166"><time>2026-05-09T20:39:31Z</time></trkpt>
</trkseg>
</trk>
<trk>
<name>brmhp40</name>
<cmt>v</cmt>
<desc>Huppaye Sentier n°40 Rue de la Chapelle / Rue d'Autre-Eglise</desc>
<link href="https://chemins.be/huppaye/sentier/40"/><trkseg>
<trkpt lat="50.689865" lon="4.897916"><time>2026-05-09T18:39:31Z</time></trkpt>
<trkpt lat="50.690122" lon="4.898655"><time>2026-05-09T18:49:31Z</time></trkpt>
<trkpt lat="50.690309" lon="4.899110"><time>2026-05-09T18:59:31Z</time></trkpt>
<trkpt lat="50.690434" lon="4.899338"><time>2026-05-09T19:09:31Z</time></trkpt>
<trkpt lat="50.691031" lon="4.900406"><time>2026-05-09T19:19:31Z</time></trkpt>
<trkpt lat="50.692967" lon="4.903655"><time>2026-05-09T19:29:31Z</time></trkpt>
<trkpt lat="50.692920" lon="4.904249"><time>2026-05-09T19:39:31Z</time></trkpt>
<trkpt lat="50.692972" lon="4.904589"><time>2026-05-09T19:49:31Z</time></trkpt>
<trkpt lat="50.693087" lon="4.905029"><time>2026-05-09T19:59:31Z</time></trkpt>
<trkpt lat="50.693202" lon="4.905384"><time>2026-05-09T20:09:31Z</time></trkpt>
</trkseg>
</trk>
<trk>
<name>brmhp42</name>
<cmt>s</cmt>
<desc>Huppaye Sentier n°42 </desc>
<link href="https://chemins.be/huppaye/sentier/42"/><trkseg>
<trkpt lat="50.691462" lon="4.896598"><time>2026-05-09T18:39:31Z</time></trkpt>
<trkpt lat="50.692448" lon="4.898508"><time>2026-05-09T18:49:31Z</time></trkpt>
<trkpt lat="50.692104" lon="4.899885"><time>2026-05-09T18:59:31Z</time></trkpt>
<trkpt lat="50.691693" lon="4.901533"><time>2026-05-09T19:09:31Z</time></trkpt>
<trkpt lat="50.690885" lon="4.904773"><time>2026-05-09T19:19:31Z</time></trkpt>
<trkpt lat="50.691136" lon="4.905481"><time>2026-05-09T19:29:31Z</time></trkpt>
<trkpt lat="50.690898" lon="4.907477"><time>2026-05-09T19:39:31Z</time></trkpt>
<trkpt lat="50.691156" lon="4.909923"><time>2026-05-09T19:49:31Z</time></trkpt>
<trkpt lat="50.691224" lon="4.912820"><time>2026-05-09T19:59:31Z</time></trkpt>
</trkseg>
</trk>
<trk>
<name>brmhp43</name>
<cmt>s</cmt>
<desc>Huppaye Sentier n°43 </desc>
<link href="https://chemins.be/huppaye/sentier/43"/><trkseg>
<trkpt lat="50.686956" lon="4.911790"><time>2026-05-09T18:39:31Z</time></trkpt>
<trkpt lat="50.689049" lon="4.912112"><time>2026-05-09T18:49:31Z</time></trkpt>
<trkpt lat="50.692312" lon="4.911704"><time>2026-05-09T18:59:31Z</time></trkpt>
</trkseg>
</trk>
<trk>
<name>brmhp44</name>
<cmt>v</cmt>
<desc>Huppaye Sentier n°44 </desc>
<link href="https://chemins.be/huppaye/sentier/44"/><trkseg>
<trkpt lat="50.693533" lon="4.906203"><time>2026-05-09T18:39:31Z</time></trkpt>
<trkpt lat="50.693247" lon="4.906834"><time>2026-05-09T18:49:31Z</time></trkpt>
<trkpt lat="50.693253" lon="4.907068"><time>2026-05-09T18:59:31Z</time></trkpt>
</trkseg></trk>
<trk>
<name>brmhp44</name>
<cmt>b</cmt>
<desc>Huppaye Sentier n°44 </desc>
<link href="https://chemins.be/huppaye/sentier/44"/><trkseg>
<trkpt lat="50.693253" lon="4.907068"><time>2026-05-09T18:59:31Z</time></trkpt>
<trkpt lat="50.692479" lon="4.908736"><time>2026-05-09T19:09:31Z</time></trkpt>
<trkpt lat="50.692137" lon="4.911904"><time>2026-05-09T19:19:31Z</time></trkpt>
</trkseg>
</trk>
<trk>
<name>brmhp45</name>
<cmt>d</cmt>
<desc>Huppaye Sentier n°45 </desc>
<link href="https://chemins.be/huppaye/sentier/45"/><trkseg>
<trkpt lat="50.695899" lon="4.905664"><time>2026-05-09T18:39:31Z</time></trkpt>
<trkpt lat="50.696377" lon="4.905835"><time>2026-05-09T18:49:31Z</time></trkpt>
<trkpt lat="50.699317" lon="4.909016"><time>2026-05-09T18:59:31Z</time></trkpt>
<trkpt lat="50.702035" lon="4.911360"><time>2026-05-09T19:09:31Z</time></trkpt>
</trkseg>
</trk>
<trk>
<name>brmhp46</name>
<cmt>s</cmt>
<desc>Huppaye Sentier n°46 </desc>
<link href="https://chemins.be/huppaye/sentier/46"/><trkseg>
<trkpt lat="50.693458" lon="4.875760"><time>2026-05-09T18:39:31Z</time></trkpt>
<trkpt lat="50.690668" lon="4.872782"><time>2026-05-09T18:49:31Z</time></trkpt>
</trkseg>
</trk>
<trk>
<name>brmhp47</name>
<cmt>s</cmt>
<desc>Huppaye Sentier n°47 </desc>
<link href="https://chemins.be/huppaye/sentier/47"/><trkseg>
<trkpt lat="50.695736" lon="4.903177"><time>2026-05-09T18:39:31Z</time></trkpt>
<trkpt lat="50.695167" lon="4.903008"><time>2026-05-09T18:49:31Z</time></trkpt>
<trkpt lat="50.694673" lon="4.902787"><time>2026-05-09T18:59:31Z</time></trkpt>
<trkpt lat="50.694410" lon="4.903156"><time>2026-05-09T19:09:31Z</time></trkpt>
<trkpt lat="50.694321" lon="4.903986"><time>2026-05-09T19:19:31Z</time></trkpt>
<trkpt lat="50.694423" lon="4.904960"><time>2026-05-09T19:29:31Z</time></trkpt>
<trkpt lat="50.693914" lon="4.905606"><time>2026-05-09T19:39:31Z</time></trkpt>
</trkseg>
</trk>
<trk>
<name>brmhp48</name>
<cmt>s</cmt>
<desc>Huppaye Sentier n°48 </desc>
<link href="https://chemins.be/huppaye/sentier/48"/><trkseg>
<trkpt lat="50.696718" lon="4.889160"><time>2026-05-09T18:39:31Z</time></trkpt>
<trkpt lat="50.699818" lon="4.890370"><time>2026-05-09T18:49:31Z</time></trkpt>
</trkseg>
</trk>
<trk>
<name>brmhp49</name>
<cmt>d</cmt>
<desc>Huppaye Sentier n°49 </desc>
<link href="https://chemins.be/huppaye/sentier/49"/><trkseg>
<trkpt lat="50.685360" lon="4.871192"><time>2026-05-09T18:39:31Z</time></trkpt>
<trkpt lat="50.685053" lon="4.870450"><time>2026-05-09T18:49:31Z</time></trkpt>
<trkpt lat="50.684088" lon="4.870033"><time>2026-05-09T18:59:31Z</time></trkpt>
</trkseg>
</trk>
<trk>
<name>brmhp5</name>
<cmt>v</cmt>
<desc>Huppaye Chemin n°5 Rue du Ruisseau Saint-Jean / Rue de la chantraine</desc>
<link href="https://chemins.be/huppaye/chemin/5"/><trkseg>
<trkpt lat="50.678225" lon="4.883612"><time>2026-05-09T18:39:31Z</time></trkpt>
<trkpt lat="50.681126" lon="4.884092"><time>2026-05-09T18:49:31Z</time></trkpt>
<trkpt lat="50.682762" lon="4.883969"><time>2026-05-09T18:59:31Z</time></trkpt>
<trkpt lat="50.684649" lon="4.884343"><time>2026-05-09T19:09:31Z</time></trkpt>
</trkseg></trk>
<trk>
<name>brmhp5</name>
<cmt>s</cmt>
<desc>Huppaye Chemin n°5 Rue du Ruisseau Saint-Jean / Rue de la chantraine</desc>
<link href="https://chemins.be/huppaye/chemin/5"/><trkseg>
<trkpt lat="50.684649" lon="4.884343"><time>2026-05-09T19:09:31Z</time></trkpt>
<trkpt lat="50.687038" lon="4.885305"><time>2026-05-09T19:19:31Z</time></trkpt>
</trkseg></trk>
<trk>
<name>brmhp5</name>
<cmt>v</cmt>
<desc>Huppaye Chemin n°5 Rue du Ruisseau Saint-Jean / Rue de la chantraine</desc>
<link href="https://chemins.be/huppaye/chemin/5"/><trkseg>
<trkpt lat="50.687038" lon="4.885305"><time>2026-05-09T19:19:31Z</time></trkpt>
<trkpt lat="50.688910" lon="4.885969"><time>2026-05-09T19:29:31Z</time></trkpt>
<trkpt lat="50.689291" lon="4.886346"><time>2026-05-09T19:39:31Z</time></trkpt>
<trkpt lat="50.691608" lon="4.885703"><time>2026-05-09T19:49:31Z</time></trkpt>
</trkseg></trk>
<trk>
<name>brmhp5</name>
<cmt>r</cmt>
<desc>Huppaye Chemin n°5 Rue du Ruisseau Saint-Jean / Rue de la chantraine</desc>
<link href="https://chemins.be/huppaye/chemin/5"/><trkseg>
<trkpt lat="50.691608" lon="4.885703"><time>2026-05-09T19:49:31Z</time></trkpt>
<trkpt lat="50.691780" lon="4.887524"><time>2026-05-09T19:59:31Z</time></trkpt>
<trkpt lat="50.692635" lon="4.887130"><time>2026-05-09T20:09:31Z</time></trkpt>
<trkpt lat="50.694171" lon="4.888535"><time>2026-05-09T20:19:31Z</time></trkpt>
<trkpt lat="50.694889" lon="4.888736"><time>2026-05-09T20:29:31Z</time></trkpt>
</trkseg></trk>
<trk>
<name>brmhp5</name>
<cmt>v</cmt>
<desc>Huppaye Chemin n°5 Rue du Ruisseau Saint-Jean / Rue de la chantraine</desc>
<link href="https://chemins.be/huppaye/chemin/5"/><trkseg>
<trkpt lat="50.694889" lon="4.888736"><time>2026-05-09T20:29:31Z</time></trkpt>
<trkpt lat="50.696699" lon="4.889136"><time>2026-05-09T20:39:31Z</time></trkpt>
</trkseg>
</trk>
<trk>
<name>brmhp50</name>
<cmt>v</cmt>
<desc>Huppaye Sentier n°50 </desc>
<link href="https://chemins.be/huppaye/sentier/50"/><trkseg>
<trkpt lat="50.694270" lon="4.867619"><time>2026-05-09T18:39:31Z</time></trkpt>
<trkpt lat="50.693400" lon="4.865752"><time>2026-05-09T18:49:31Z</time></trkpt>
</trkseg>
</trk>
<trk>
<name>brmhp51</name>
<cmt>v</cmt>
<desc>Huppaye Chemin n°51 Rue de Nivelles</desc>
<link href="https://chemins.be/huppaye/chemin/51"/><trkseg>
<trkpt lat="50.700346" lon="4.896194"><time>2026-05-09T18:39:31Z</time></trkpt>
<trkpt lat="50.700486" lon="4.897016"><time>2026-05-09T18:49:31Z</time></trkpt>
<trkpt lat="50.701222" lon="4.899332"><time>2026-05-09T18:59:31Z</time></trkpt>
<trkpt lat="50.700572" lon="4.899848"><time>2026-05-09T19:09:31Z</time></trkpt>
</trkseg>
</trk>
<trk>
<name>brmhp52</name>
<cmt>r</cmt>
<desc>Huppaye Sentier n°52 Rue du Ruisseau Saint-Jean</desc>
<link href="https://chemins.be/huppaye/sentier/52"/><trkseg>
<trkpt lat="50.690050" lon="4.881457"><time>2026-05-09T18:39:31Z</time></trkpt>
<trkpt lat="50.690676" lon="4.883055"><time>2026-05-09T18:49:31Z</time></trkpt>
<trkpt lat="50.691566" lon="4.885003"><time>2026-05-09T18:59:31Z</time></trkpt>
<trkpt lat="50.691620" lon="4.885727"><time>2026-05-09T19:09:31Z</time></trkpt>
</trkseg>
</trk>
<trk>
<name>brmhp53</name>
<cmt>v</cmt>
<desc>Huppaye Sentier n°53 </desc>
<link href="https://chemins.be/huppaye/sentier/53"/><trkseg>
<trkpt lat="50.695376" lon="4.901547"><time>2026-05-09T18:39:31Z</time></trkpt>
<trkpt lat="50.695906" lon="4.902586"><time>2026-05-09T18:49:31Z</time></trkpt>
<trkpt lat="50.696130" lon="4.903421"><time>2026-05-09T18:59:31Z</time></trkpt>
</trkseg>
</trk>
<trk>
<name>brmhp54</name>
<cmt>v</cmt>
<desc>Huppaye Sentier n°54 </desc>
<link href="https://chemins.be/huppaye/sentier/54"/><trkseg>
<trkpt lat="50.698826" lon="4.874008"><time>2026-05-09T18:39:31Z</time></trkpt>
<trkpt lat="50.699183" lon="4.875006"><time>2026-05-09T18:49:31Z</time></trkpt>
<trkpt lat="50.699529" lon="4.875661"><time>2026-05-09T18:59:31Z</time></trkpt>
</trkseg>
</trk>
<trk>
<name>brmhp56</name>
<cmt>d</cmt>
<desc>Huppaye Sentier n°56 </desc>
<link href="https://chemins.be/huppaye/sentier/56"/><trkseg>
<trkpt lat="50.685264" lon="4.877185"><time>2026-05-09T18:39:31Z</time></trkpt>
<trkpt lat="50.686700" lon="4.877340"><time>2026-05-09T18:49:31Z</time></trkpt>
<trkpt lat="50.688831" lon="4.877460"><time>2026-05-09T18:59:31Z</time></trkpt>
<trkpt lat="50.689462" lon="4.878095"><time>2026-05-09T19:09:31Z</time></trkpt>
</trkseg>
</trk>
<trk>
<name>brmhp6</name>
<cmt>v</cmt>
<desc>Huppaye Chemin n°6 Rue du Flori Boeuf / Rue d'Enines / Chemins des Meuniers</desc>
<link href="https://chemins.be/huppaye/chemin/6"/><trkseg>
<trkpt lat="50.695642" lon="4.910041"><time>2026-05-09T18:39:31Z</time></trkpt>
<trkpt lat="50.695272" lon="4.909993"><time>2026-05-09T18:49:31Z</time></trkpt>
<trkpt lat="50.694902" lon="4.910063"><time>2026-05-09T18:59:31Z</time></trkpt>
<trkpt lat="50.694902" lon="4.909837"><time>2026-05-09T19:09:31Z</time></trkpt>
<trkpt lat="50.694120" lon="4.910127"><time>2026-05-09T19:19:31Z</time></trkpt>
<trkpt lat="50.692155" lon="4.911885"><time>2026-05-09T19:29:31Z</time></trkpt>
<trkpt lat="50.691252" lon="4.912981"><time>2026-05-09T19:39:31Z</time></trkpt>
<trkpt lat="50.691272" lon="4.912959"><time>2026-05-09T19:49:31Z</time></trkpt>
<trkpt lat="50.690145" lon="4.913056"><time>2026-05-09T19:59:31Z</time></trkpt>
<trkpt lat="50.688010" lon="4.913238"><time>2026-05-09T20:09:31Z</time></trkpt>
<trkpt lat="50.687031" lon="4.911790"><time>2026-05-09T20:19:31Z</time></trkpt>
<trkpt lat="50.686743" lon="4.911397"><time>2026-05-09T20:29:31Z</time></trkpt>
<trkpt lat="50.686317" lon="4.911253"><time>2026-05-09T20:39:31Z</time></trkpt>
<trkpt lat="50.685769" lon="4.911543"><time>2026-05-09T20:49:31Z</time></trkpt>
</trkseg>
</trk>
<trk>
<name>brmhp7</name>
<cmt>v</cmt>
<desc>Huppaye Chemin n°7 Rue du Chemin Vert</desc>
<link href="https://chemins.be/huppaye/chemin/7"/><trkseg>
<trkpt lat="50.700543" lon="4.900034"><time>2026-05-09T18:39:31Z</time></trkpt>
<trkpt lat="50.701412" lon="4.901072"><time>2026-05-09T18:49:31Z</time></trkpt>
<trkpt lat="50.702085" lon="4.901619"><time>2026-05-09T18:59:31Z</time></trkpt>
</trkseg>
</trk>
<trk>
<name>brmhp8</name>
<cmt>s</cmt>
<desc>Huppaye Chemin n°8 Rue de l'enfer</desc>
<link href="https://chemins.be/huppaye/chemin/8"/><trkseg>
<trkpt lat="50.695576" lon="4.903695"><time>2026-05-09T18:39:31Z</time></trkpt>
<trkpt lat="50.695888" lon="4.902550"><time>2026-05-09T18:49:31Z</time></trkpt>
</trkseg>
</trk>
<trk>
<name>brmhp9</name>
<cmt>v</cmt>
<desc>Huppaye Chemin n°9 Rue de la Spinette / Chemins des Meuniers</desc>
<link href="https://chemins.be/huppaye/chemin/9"/><trkseg>
<trkpt lat="50.693272" lon="4.907057"><time>2026-05-09T18:39:31Z</time></trkpt>
<trkpt lat="50.690903" lon="4.907429"><time>2026-05-09T18:49:31Z</time></trkpt>
<trkpt lat="50.690228" lon="4.907622"><time>2026-05-09T18:59:31Z</time></trkpt>
<trkpt lat="50.689838" lon="4.908101"><time>2026-05-09T19:09:31Z</time></trkpt>
<trkpt lat="50.688211" lon="4.909675"><time>2026-05-09T19:19:31Z</time></trkpt>
<trkpt lat="50.687618" lon="4.909968"><time>2026-05-09T19:29:31Z</time></trkpt>
<trkpt lat="50.686310" lon="4.911243"><time>2026-05-09T19:39:31Z</time></trkpt>
</trkseg>
</trk>
<trk>
<name>brmhpi1</name>
<cmt>v</cmt>
<desc>Huppaye Chemin n°i1 </desc>
<link href="https://chemins.be/huppaye/chemin/i1"/><trkseg>
<trkpt lat="50.685682" lon="4.886392"><time>2026-05-09T18:39:31Z</time></trkpt>
<trkpt lat="50.684657" lon="4.884372"><time>2026-05-09T18:49:31Z</time></trkpt>
</trkseg>
</trk>
<trk>
<name>brmhpi2</name>
<cmt>v</cmt>
<desc>Huppaye Chemin n°i2 </desc>
<link href="https://chemins.be/huppaye/chemin/i2"/><trkseg>
<trkpt lat="50.690164" lon="4.876513"><time>2026-05-09T18:39:31Z</time></trkpt>
<trkpt lat="50.689471" lon="4.873971"><time>2026-05-09T18:49:31Z</time></trkpt>
</trkseg>
</trk>
<trk>
<name>brmhpi3</name>
<cmt>s</cmt>
<desc>Huppaye Chemin n°i3 </desc>
<link href="https://chemins.be/huppaye/chemin/i3"/><trkseg>
<trkpt lat="50.694333" lon="4.903999"><time>2026-05-09T18:39:31Z</time></trkpt>
<trkpt lat="50.692240" lon="4.899441"><time>2026-05-09T18:49:31Z</time></trkpt>
</trkseg>
</trk>
<trk>
<name>brmhpi4</name>
<cmt>v</cmt>
<desc>Huppaye Chemin n°i4 </desc>
<link href="https://chemins.be/huppaye/chemin/i4"/><trkseg>
<trkpt lat="50.689837" lon="4.908166"><time>2026-05-09T18:39:31Z</time></trkpt>
<trkpt lat="50.689281" lon="4.906316"><time>2026-05-09T18:49:31Z</time></trkpt>
<trkpt lat="50.688484" lon="4.905782"><time>2026-05-09T18:59:31Z</time></trkpt>
<trkpt lat="50.687179" lon="4.907269"><time>2026-05-09T19:09:31Z</time></trkpt>
<trkpt lat="50.685016" lon="4.904275"><time>2026-05-09T19:19:31Z</time></trkpt>
<trkpt lat="50.684076" lon="4.903539"><time>2026-05-09T19:29:31Z</time></trkpt>
<trkpt lat="50.683946" lon="4.902769"><time>2026-05-09T19:39:31Z</time></trkpt>
</trkseg>
</trk>
<trk>
<name>brmhpi5</name>
<cmt>v</cmt>
<desc>Huppaye Chemin n°i5 </desc>
<link href="https://chemins.be/huppaye/chemin/i5"/><trkseg>
<trkpt lat="50.693322" lon="4.867378"><time>2026-05-09T18:39:31Z</time></trkpt>
<trkpt lat="50.693331" lon="4.865697"><time>2026-05-09T18:49:31Z</time></trkpt>
</trkseg>
</trk>
<trk>
<name>brmhpL142</name>
<cmt>v</cmt>
<desc>Huppaye Chemin n°L142 RAVeL L142</desc>
<link href="https://chemins.be/huppaye/chemin/L142"/><trkseg>
<trkpt lat="50.682202" lon="4.904358"><time>2026-05-09T18:39:31Z</time></trkpt>
<trkpt lat="50.684091" lon="4.903502"><time>2026-05-09T18:49:31Z</time></trkpt>
<trkpt lat="50.690994" lon="4.900373"><time>2026-05-09T18:59:31Z</time></trkpt>
<trkpt lat="50.694852" lon="4.898726"><time>2026-05-09T19:09:31Z</time></trkpt>
<trkpt lat="50.695269" lon="4.898735"><time>2026-05-09T19:19:31Z</time></trkpt>
<trkpt lat="50.695843" lon="4.898239"><time>2026-05-09T19:29:31Z</time></trkpt>
<trkpt lat="50.698058" lon="4.897210"><time>2026-05-09T19:39:31Z</time></trkpt>
<trkpt lat="50.700356" lon="4.896141"><time>2026-05-09T19:49:31Z</time></trkpt>
<trkpt lat="50.701644" lon="4.895543"><time>2026-05-09T19:59:31Z</time></trkpt>
</trkseg>
</trk>
<trk>
<name>brmhpp1</name>
<cmt>v</cmt>
<desc>Huppaye Chemin particulier n°p1 </desc>
<link href="https://chemins.be/huppaye/chemin/p1"/><trkseg>
<trkpt lat="50.694297" lon="4.867684"><time>2026-05-09T18:39:31Z</time></trkpt>
<trkpt lat="50.693309" lon="4.867356"><time>2026-05-09T18:49:31Z</time></trkpt>
</trkseg></trk>
<trk>
<name>brmhpp1</name>
<cmt>q</cmt>
<desc>Huppaye Chemin particulier n°p1 </desc>
<link href="https://chemins.be/huppaye/chemin/p1"/><trkseg>
<trkpt lat="50.693309" lon="4.867356"><time>2026-05-09T18:49:31Z</time></trkpt>
<trkpt lat="50.690695" lon="4.866976"><time>2026-05-09T18:59:31Z</time></trkpt>
<trkpt lat="50.688425" lon="4.866976"><time>2026-05-09T19:09:31Z</time></trkpt>
<trkpt lat="50.686671" lon="4.868499"><time>2026-05-09T19:19:31Z</time></trkpt>
</trkseg>
</trk>
<trk>
<name>brmhpp2</name>
<cmt>v</cmt>
<desc>Huppaye Chemin particulier n°p2 Rue du Chemin Vert</desc>
<link href="https://chemins.be/huppaye/chemin/p2"/><trkseg>
<trkpt lat="50.701368" lon="4.901045"><time>2026-05-09T18:39:31Z</time></trkpt>
<trkpt lat="50.701276" lon="4.901077"><time>2026-05-09T18:49:31Z</time></trkpt>
<trkpt lat="50.700855" lon="4.900948"><time>2026-05-09T18:59:31Z</time></trkpt>
<trkpt lat="50.700267" lon="4.902767"><time>2026-05-09T19:09:31Z</time></trkpt>
</trkseg></trk>
<trk>
<name>brmhpp2</name>
<cmt>q</cmt>
<desc>Huppaye Chemin particulier n°p2 Rue du Chemin Vert</desc>
<link href="https://chemins.be/huppaye/chemin/p2"/><trkseg>
<trkpt lat="50.700267" lon="4.902767"><time>2026-05-09T19:09:31Z</time></trkpt>
<trkpt lat="50.699924" lon="4.904543"><time>2026-05-09T19:19:31Z</time></trkpt>
</trkseg>
</trk>
<trk>
<name>brmma1</name>
<cmt>r</cmt>
<desc>Mont-Saint-André Chemin n°1 Rue de la Montagne / Rue de l'Amérique</desc>
<link href="https://chemins.be/montsaintandre/chemin/1"/><trkseg>
<trkpt lat="50.652440" lon="4.869256"><time>2026-05-09T18:39:31Z</time></trkpt>
<trkpt lat="50.653404" lon="4.870765"><time>2026-05-09T18:49:31Z</time></trkpt>
</trkseg></trk>
<trk>
<name>brmma1</name>
<cmt>v</cmt>
<desc>Mont-Saint-André Chemin n°1 Rue de la Montagne / Rue de l'Amérique</desc>
<link href="https://chemins.be/montsaintandre/chemin/1"/><trkseg>
<trkpt lat="50.653404" lon="4.870765"><time>2026-05-09T18:49:31Z</time></trkpt>
<trkpt lat="50.654029" lon="4.871790"><time>2026-05-09T18:59:31Z</time></trkpt>
<trkpt lat="50.655382" lon="4.874831"><time>2026-05-09T19:09:31Z</time></trkpt>
<trkpt lat="50.658250" lon="4.880986"><time>2026-05-09T19:19:31Z</time></trkpt>
<trkpt lat="50.661126" lon="4.887268"><time>2026-05-09T19:29:31Z</time></trkpt>
<trkpt lat="50.661846" lon="4.889299"><time>2026-05-09T19:39:31Z</time></trkpt>
<trkpt lat="50.663472" lon="4.891467"><time>2026-05-09T19:49:31Z</time></trkpt>
</trkseg>
</trk>
<trk>
<name>brmma10</name>
<cmt>v</cmt>
<desc>Mont-Saint-André Chemin n°10 </desc>
<link href="https://chemins.be/montsaintandre/chemin/10"/><trkseg>
<trkpt lat="50.673265" lon="4.880200"><time>2026-05-09T18:39:31Z</time></trkpt>
<trkpt lat="50.671808" lon="4.883607"><time>2026-05-09T18:49:31Z</time></trkpt>
<trkpt lat="50.671601" lon="4.884208"><time>2026-05-09T18:59:31Z</time></trkpt>
<trkpt lat="50.670323" lon="4.885178"><time>2026-05-09T19:09:31Z</time></trkpt>
<trkpt lat="50.666857" lon="4.887221"><time>2026-05-09T19:19:31Z</time></trkpt>
<trkpt lat="50.666101" lon="4.888053"><time>2026-05-09T19:29:31Z</time></trkpt>
<trkpt lat="50.664420" lon="4.890843"><time>2026-05-09T19:39:31Z</time></trkpt>
<trkpt lat="50.663577" lon="4.891504"><time>2026-05-09T19:49:31Z</time></trkpt>
</trkseg>
</trk>
<trk>
<name>brmma11</name>
<cmt>v</cmt>
<desc>Mont-Saint-André Chemin n°11 Rue Croix Bouvier</desc>
<link href="https://chemins.be/montsaintandre/chemin/11"/><trkseg>
<trkpt lat="50.670609" lon="4.877555"><time>2026-05-09T18:39:31Z</time></trkpt>
<trkpt lat="50.670734" lon="4.877627"><time>2026-05-09T18:49:31Z</time></trkpt>
<trkpt lat="50.671397" lon="4.878186"><time>2026-05-09T18:59:31Z</time></trkpt>
<trkpt lat="50.672373" lon="4.879059"><time>2026-05-09T19:09:31Z</time></trkpt>
<trkpt lat="50.672660" lon="4.879388"><time>2026-05-09T19:19:31Z</time></trkpt>
<trkpt lat="50.673267" lon="4.880243"><time>2026-05-09T19:29:31Z</time></trkpt>
</trkseg>
</trk>
<trk>
<name>brmma13</name>
<cmt>v</cmt>
<desc>Mont-Saint-André Chemin n°13 Rue de l'Abyme</desc>
<link href="https://chemins.be/montsaintandre/chemin/13"/><trkseg>
<trkpt lat="50.664838" lon="4.867292"><time>2026-05-09T18:39:31Z</time></trkpt>
<trkpt lat="50.664740" lon="4.866942"><time>2026-05-09T18:49:31Z</time></trkpt>
<trkpt lat="50.664473" lon="4.864997"><time>2026-05-09T18:59:31Z</time></trkpt>
<trkpt lat="50.664439" lon="4.864678"><time>2026-05-09T19:09:31Z</time></trkpt>
<trkpt lat="50.664364" lon="4.864260"><time>2026-05-09T19:19:31Z</time></trkpt>
<trkpt lat="50.664189" lon="4.863570"><time>2026-05-09T19:29:31Z</time></trkpt>
<trkpt lat="50.663952" lon="4.862819"><time>2026-05-09T19:39:31Z</time></trkpt>
<trkpt lat="50.663838" lon="4.862609"><time>2026-05-09T19:49:31Z</time></trkpt>
<trkpt lat="50.663713" lon="4.862433"><time>2026-05-09T19:59:31Z</time></trkpt>
<trkpt lat="50.663202" lon="4.861898"><time>2026-05-09T20:09:31Z</time></trkpt>
<trkpt lat="50.662705" lon="4.861350"><time>2026-05-09T20:19:31Z</time></trkpt>
<trkpt lat="50.662453" lon="4.860958"><time>2026-05-09T20:29:31Z</time></trkpt>
<trkpt lat="50.661543" lon="4.858780"><time>2026-05-09T20:39:31Z</time></trkpt>
<trkpt lat="50.661136" lon="4.857862"><time>2026-05-09T20:49:31Z</time></trkpt>
<trkpt lat="50.660826" lon="4.857367"><time>2026-05-09T20:59:31Z</time></trkpt>
</trkseg>
</trk>
<trk>
<name>brmma14</name>
<cmt>v</cmt>
<desc>Mont-Saint-André Chemin n°14 Rue de l'Amérique</desc>
<link href="https://chemins.be/montsaintandre/chemin/14"/><trkseg>
<trkpt lat="50.654065" lon="4.865568"><time>2026-05-09T18:39:31Z</time></trkpt>
<trkpt lat="50.654623" lon="4.868319"><time>2026-05-09T18:49:31Z</time></trkpt>
<trkpt lat="50.655312" lon="4.870691"><time>2026-05-09T18:59:31Z</time></trkpt>
<trkpt lat="50.655682" lon="4.871893"><time>2026-05-09T19:09:31Z</time></trkpt>
<trkpt lat="50.656539" lon="4.874145"><time>2026-05-09T19:19:31Z</time></trkpt>
</trkseg></trk>
<trk>
<name>brmma14</name>
<cmt>d</cmt>
<desc>Mont-Saint-André Chemin n°14 Rue de l'Amérique</desc>
<link href="https://chemins.be/montsaintandre/chemin/14"/><trkseg>
<trkpt lat="50.656539" lon="4.874145"><time>2026-05-09T19:19:31Z</time></trkpt>
<trkpt lat="50.657147" lon="4.875743"><time>2026-05-09T19:29:31Z</time></trkpt>
</trkseg></trk>
<trk>
<name>brmma14</name>
<cmt>s</cmt>
<desc>Mont-Saint-André Chemin n°14 Rue de l'Amérique</desc>
<link href="https://chemins.be/montsaintandre/chemin/14"/><trkseg>
<trkpt lat="50.657147" lon="4.875743"><time>2026-05-09T19:29:31Z</time></trkpt>
<trkpt lat="50.658627" lon="4.879588"><time>2026-05-09T19:39:31Z</time></trkpt>
<trkpt lat="50.658170" lon="4.881065"><time>2026-05-09T19:49:31Z</time></trkpt>
</trkseg>
</trk>
<trk>
<name>brmma15</name>
<cmt>r</cmt>
<desc>Mont-Saint-André Chemin n°15 Rue du Gestiaux</desc>
<link href="https://chemins.be/montsaintandre/chemin/15"/><trkseg>
<trkpt lat="50.654322" lon="4.853007"><time>2026-05-09T18:39:31Z</time></trkpt>
<trkpt lat="50.654558" lon="4.851905"><time>2026-05-09T18:49:31Z</time></trkpt>
</trkseg></trk>
<trk>
<name>brmma15</name>
<cmt>v</cmt>
<desc>Mont-Saint-André Chemin n°15 Rue du Gestiaux</desc>
<link href="https://chemins.be/montsaintandre/chemin/15"/><trkseg>
<trkpt lat="50.654558" lon="4.851905"><time>2026-05-09T18:49:31Z</time></trkpt>
<trkpt lat="50.654897" lon="4.849884"><time>2026-05-09T18:59:31Z</time></trkpt>
<trkpt lat="50.655492" lon="4.847372"><time>2026-05-09T19:09:31Z</time></trkpt>
</trkseg></trk>
<trk>
<name>brmma15</name>
<cmt>s</cmt>
<desc>Mont-Saint-André Chemin n°15 Rue du Gestiaux</desc>
<link href="https://chemins.be/montsaintandre/chemin/15"/><trkseg>
<trkpt lat="50.655492" lon="4.847372"><time>2026-05-09T19:09:31Z</time></trkpt>
<trkpt lat="50.655546" lon="4.846183"><time>2026-05-09T19:19:31Z</time></trkpt>
<trkpt lat="50.656417" lon="4.842378"><time>2026-05-09T19:29:31Z</time></trkpt>
<trkpt lat="50.656418" lon="4.839835"><time>2026-05-09T19:39:31Z</time></trkpt>
<trkpt lat="50.656412" lon="4.839390"><time>2026-05-09T19:49:31Z</time></trkpt>
<trkpt lat="50.656789" lon="4.838946"><time>2026-05-09T19:59:31Z</time></trkpt>
<trkpt lat="50.656272" lon="4.837981"><time>2026-05-09T20:09:31Z</time></trkpt>
<trkpt lat="50.655483" lon="4.834784"><time>2026-05-09T20:19:31Z</time></trkpt>
</trkseg>
</trk>
<trk>
<name>brmma16</name>
<cmt>v</cmt>
<desc>Mont-Saint-André Chemin n°16 </desc>
<link href="https://chemins.be/montsaintandre/chemin/16"/><trkseg>
<trkpt lat="50.661177" lon="4.887253"><time>2026-05-09T18:39:31Z</time></trkpt>
<trkpt lat="50.666825" lon="4.887219"><time>2026-05-09T18:49:31Z</time></trkpt>
</trkseg>
</trk>
<trk>
<name>brmma17</name>
<cmt>v</cmt>
<desc>Mont-Saint-André Chemin n°17 </desc>
<link href="https://chemins.be/montsaintandre/chemin/17"/><trkseg>
<trkpt lat="50.664849" lon="4.853239"><time>2026-05-09T18:39:31Z</time></trkpt>
<trkpt lat="50.664453" lon="4.852768"><time>2026-05-09T18:49:31Z</time></trkpt>
</trkseg></trk>
<trk>
<name>brmma17</name>
<cmt>s</cmt>
<desc>Mont-Saint-André Chemin n°17 </desc>
<link href="https://chemins.be/montsaintandre/chemin/17"/><trkseg>
<trkpt lat="50.664453" lon="4.852768"><time>2026-05-09T18:49:31Z</time></trkpt>
<trkpt lat="50.663963" lon="4.852186"><time>2026-05-09T18:59:31Z</time></trkpt>
<trkpt lat="50.663013" lon="4.851861"><time>2026-05-09T19:09:31Z</time></trkpt>
<trkpt lat="50.662206" lon="4.851585"><time>2026-05-09T19:19:31Z</time></trkpt>
</trkseg>
</trk>
<trk>
<name>brmma17bis</name>
<cmt>v</cmt>
<desc>Mont-Saint-André Chemin n°17bis </desc>
<link href="https://chemins.be/montsaintandre/chemin/17bis"/><trkseg>
<trkpt lat="50.664455" lon="4.852784"><time>2026-05-09T18:39:31Z</time></trkpt>
<trkpt lat="50.664920" lon="4.851672"><time>2026-05-09T18:49:31Z</time></trkpt>
</trkseg>
</trk>
<trk>
<name>brmma18</name>
<cmt>v</cmt>
<desc>Mont-Saint-André Sentier n°18 </desc>
<link href="https://chemins.be/montsaintandre/sentier/18"/><trkseg>
<trkpt lat="50.654039" lon="4.871743"><time>2026-05-09T18:39:31Z</time></trkpt>
<trkpt lat="50.655306" lon="4.870619"><time>2026-05-09T18:49:31Z</time></trkpt>
<trkpt lat="50.657210" lon="4.870099"><time>2026-05-09T18:59:31Z</time></trkpt>
<trkpt lat="50.658431" lon="4.869956"><time>2026-05-09T19:09:31Z</time></trkpt>
<trkpt lat="50.658898" lon="4.870064"><time>2026-05-09T19:19:31Z</time></trkpt>
<trkpt lat="50.659110" lon="4.870253"><time>2026-05-09T19:29:31Z</time></trkpt>
<trkpt lat="50.659163" lon="4.870134"><time>2026-05-09T19:39:31Z</time></trkpt>
<trkpt lat="50.659273" lon="4.869884"><time>2026-05-09T19:49:31Z</time></trkpt>
</trkseg></trk>
<trk>
<name>brmma18</name>
<cmt>d</cmt>
<desc>Mont-Saint-André Sentier n°18 </desc>
<link href="https://chemins.be/montsaintandre/sentier/18"/><trkseg>
<trkpt lat="50.659273" lon="4.869884"><time>2026-05-09T19:49:31Z</time></trkpt>
<trkpt lat="50.660065" lon="4.869482"><time>2026-05-09T19:59:31Z</time></trkpt>
</trkseg></trk>
<trk>
<name>brmma18</name>
<cmt>b</cmt>
<desc>Mont-Saint-André Sentier n°18 </desc>
<link href="https://chemins.be/montsaintandre/sentier/18"/><trkseg>
<trkpt lat="50.660065" lon="4.869482"><time>2026-05-09T19:59:31Z</time></trkpt>
<trkpt lat="50.660801" lon="4.869109"><time>2026-05-09T20:09:31Z</time></trkpt>
</trkseg>
</trk>
<trk>
<name>brmma19</name>
<cmt>s</cmt>
<desc>Mont-Saint-André Sentier n°19 </desc>
<link href="https://chemins.be/montsaintandre/sentier/19"/><trkseg>
<trkpt lat="50.669800" lon="4.875549"><time>2026-05-09T18:39:31Z</time></trkpt>
<trkpt lat="50.668642" lon="4.876158"><time>2026-05-09T18:49:31Z</time></trkpt>
<trkpt lat="50.667789" lon="4.876893"><time>2026-05-09T18:59:31Z</time></trkpt>
</trkseg></trk>
<trk>
<name>brmma19</name>
<cmt>q</cmt>
<desc>Mont-Saint-André Sentier n°19 </desc>
<link href="https://chemins.be/montsaintandre/sentier/19"/><trkseg>
<trkpt lat="50.667789" lon="4.876893"><time>2026-05-09T18:59:31Z</time></trkpt>
<trkpt lat="50.667423" lon="4.877242"><time>2026-05-09T19:09:31Z</time></trkpt>
<trkpt lat="50.667294" lon="4.877452"><time>2026-05-09T19:19:31Z</time></trkpt>
<trkpt lat="50.667119" lon="4.877583"><time>2026-05-09T19:29:31Z</time></trkpt>
</trkseg></trk>
<trk>
<name>brmma19</name>
<cmt>v</cmt>
<desc>Mont-Saint-André Sentier n°19 </desc>
<link href="https://chemins.be/montsaintandre/sentier/19"/><trkseg>
<trkpt lat="50.667119" lon="4.877583"><time>2026-05-09T19:29:31Z</time></trkpt>
<trkpt lat="50.666993" lon="4.877761"><time>2026-05-09T19:39:31Z</time></trkpt>
</trkseg></trk>
<trk>
<name>brmma19</name>
<cmt>d</cmt>
<desc>Mont-Saint-André Sentier n°19 </desc>
<link href="https://chemins.be/montsaintandre/sentier/19"/><trkseg>
<trkpt lat="50.666993" lon="4.877761"><time>2026-05-09T19:39:31Z</time></trkpt>
<trkpt lat="50.663180" lon="4.881781"><time>2026-05-09T19:49:31Z</time></trkpt>
</trkseg></trk>
<trk>
<name>brmma19</name>
<cmt>s</cmt>
<desc>Mont-Saint-André Sentier n°19 </desc>
<link href="https://chemins.be/montsaintandre/sentier/19"/><trkseg>
<trkpt lat="50.663180" lon="4.881781"><time>2026-05-09T19:49:31Z</time></trkpt>
<trkpt lat="50.660350" lon="4.885129"><time>2026-05-09T19:59:31Z</time></trkpt>
</trkseg>
</trk>
<trk>
<name>brmma2</name>
<cmt>r</cmt>
<desc>Mont-Saint-André Chemin n°2 Rue de Laloux</desc>
<link href="https://chemins.be/montsaintandre/chemin/2"/><trkseg>
<trkpt lat="50.669993" lon="4.882788"><time>2026-05-09T18:39:31Z</time></trkpt>
<trkpt lat="50.668959" lon="4.879712"><time>2026-05-09T18:49:31Z</time></trkpt>
<trkpt lat="50.668388" lon="4.877259"><time>2026-05-09T18:59:31Z</time></trkpt>
<trkpt lat="50.667800" lon="4.876761"><time>2026-05-09T19:09:31Z</time></trkpt>
<trkpt lat="50.667381" lon="4.875527"><time>2026-05-09T19:19:31Z</time></trkpt>
<trkpt lat="50.667163" lon="4.874569"><time>2026-05-09T19:29:31Z</time></trkpt>
</trkseg>
</trk>
<trk>
<name>brmma20</name>
<cmt>v</cmt>
<desc>Mont-Saint-André Chemin n°20 </desc>
<link href="https://chemins.be/montsaintandre/chemin/20"/><trkseg>
<trkpt lat="50.662862" lon="4.874424"><time>2026-05-09T18:39:31Z</time></trkpt>
<trkpt lat="50.662631" lon="4.874688"><time>2026-05-09T18:49:31Z</time></trkpt>
<trkpt lat="50.662283" lon="4.875050"><time>2026-05-09T18:59:31Z</time></trkpt>
<trkpt lat="50.661999" lon="4.875333"><time>2026-05-09T19:09:31Z</time></trkpt>
<trkpt lat="50.661764" lon="4.875516"><time>2026-05-09T19:19:31Z</time></trkpt>
<trkpt lat="50.661631" lon="4.875557"><time>2026-05-09T19:29:31Z</time></trkpt>
<trkpt lat="50.660440" lon="4.875493"><time>2026-05-09T19:39:31Z</time></trkpt>
<trkpt lat="50.660321" lon="4.875493"><time>2026-05-09T19:49:31Z</time></trkpt>
<trkpt lat="50.659672" lon="4.875626"><time>2026-05-09T19:59:31Z</time></trkpt>
<trkpt lat="50.659388" lon="4.875639"><time>2026-05-09T20:09:31Z</time></trkpt>
<trkpt lat="50.658904" lon="4.875616"><time>2026-05-09T20:19:31Z</time></trkpt>
<trkpt lat="50.658640" lon="4.875662"><time>2026-05-09T20:29:31Z</time></trkpt>
<trkpt lat="50.658385" lon="4.875708"><time>2026-05-09T20:39:31Z</time></trkpt>
<trkpt lat="50.657939" lon="4.875740"><time>2026-05-09T20:49:31Z</time></trkpt>
<trkpt lat="50.657417" lon="4.875799"><time>2026-05-09T20:59:31Z</time></trkpt>
<trkpt lat="50.657174" lon="4.875763"><time>2026-05-09T21:09:31Z</time></trkpt>
<trkpt lat="50.656235" lon="4.876795"><time>2026-05-09T21:19:31Z</time></trkpt>
</trkseg>
</trk>
<trk>
<name>brmma21</name>
<cmt>d</cmt>
<desc>Mont-Saint-André Chemin n°21 </desc>
<link href="https://chemins.be/montsaintandre/chemin/21"/><trkseg>
<trkpt lat="50.658115" lon="4.856754"><time>2026-05-09T18:39:31Z</time></trkpt>
<trkpt lat="50.658099" lon="4.856078"><time>2026-05-09T18:49:31Z</time></trkpt>
<trkpt lat="50.658067" lon="4.854704"><time>2026-05-09T18:59:31Z</time></trkpt>
<trkpt lat="50.657229" lon="4.851725"><time>2026-05-09T19:09:31Z</time></trkpt>
</trkseg>
</trk>
<trk>
<name>brmma22</name>
<cmt>s</cmt>
<desc>Mont-Saint-André Sentier n°22 </desc>
<link href="https://chemins.be/montsaintandre/sentier/22"/><trkseg>
<trkpt lat="50.664259" lon="4.875605"><time>2026-05-09T18:39:31Z</time></trkpt>
<trkpt lat="50.665363" lon="4.876171"><time>2026-05-09T18:49:31Z</time></trkpt>
<trkpt lat="50.666473" lon="4.876927"><time>2026-05-09T18:59:31Z</time></trkpt>
<trkpt lat="50.667006" lon="4.877811"><time>2026-05-09T19:09:31Z</time></trkpt>
<trkpt lat="50.668132" lon="4.880506"><time>2026-05-09T19:19:31Z</time></trkpt>
<trkpt lat="50.670292" lon="4.885038"><time>2026-05-09T19:29:31Z</time></trkpt>
</trkseg>
</trk>
<trk>
<name>brmma23</name>
<cmt>s</cmt>
<desc>Mont-Saint-André Sentier n°23 </desc>
<link href="https://chemins.be/montsaintandre/sentier/23"/><trkseg>
<trkpt lat="50.668786" lon="4.878969"><time>2026-05-09T18:39:31Z</time></trkpt>
<trkpt lat="50.668979" lon="4.877492"><time>2026-05-09T18:49:31Z</time></trkpt>
<trkpt lat="50.668754" lon="4.876226"><time>2026-05-09T18:59:31Z</time></trkpt>
<trkpt lat="50.668037" lon="4.873808"><time>2026-05-09T19:09:31Z</time></trkpt>
</trkseg>
</trk>
<trk>
<name>brmma24</name>
<cmt>s</cmt>
<desc>Mont-Saint-André Sentier n°24 </desc>
<link href="https://chemins.be/montsaintandre/sentier/24"/><trkseg>
<trkpt lat="50.668637" lon="4.876162"><time>2026-05-09T18:39:31Z</time></trkpt>
<trkpt lat="50.670579" lon="4.877561"><time>2026-05-09T18:49:31Z</time></trkpt>
</trkseg>
</trk>
<trk>
<name>brmma25</name>
<cmt>q</cmt>
<desc>Mont-Saint-André Sentier n°25 </desc>
<link href="https://chemins.be/montsaintandre/sentier/25"/><trkseg>
<trkpt lat="50.654145" lon="4.865781"><time>2026-05-09T18:39:31Z</time></trkpt>
<trkpt lat="50.654875" lon="4.865265"><time>2026-05-09T18:49:31Z</time></trkpt>
</trkseg></trk>
<trk>
<name>brmma25</name>
<cmt>s</cmt>
<desc>Mont-Saint-André Sentier n°25 </desc>
<link href="https://chemins.be/montsaintandre/sentier/25"/><trkseg>
<trkpt lat="50.654875" lon="4.865265"><time>2026-05-09T18:49:31Z</time></trkpt>
<trkpt lat="50.655282" lon="4.864676"><time>2026-05-09T18:59:31Z</time></trkpt>
</trkseg>
</trk>
<trk>
<name>brmma25bis</name>
<cmt>s</cmt>
<desc>Mont-Saint-André Sentier n°25bis </desc>
<link href="https://chemins.be/montsaintandre/sentier/25bis"/><trkseg>
<trkpt lat="50.654857" lon="4.865279"><time>2026-05-09T18:39:31Z</time></trkpt>
<trkpt lat="50.654531" lon="4.867878"><time>2026-05-09T18:49:31Z</time></trkpt>
<trkpt lat="50.654111" lon="4.871635"><time>2026-05-09T18:59:31Z</time></trkpt>
</trkseg>
</trk>
<trk>
<name>brmma26</name>
<cmt>r</cmt>
<desc>Mont-Saint-André Sentier n°26 Rue du Brou</desc>
<link href="https://chemins.be/montsaintandre/sentier/26"/><trkseg>
<trkpt lat="50.654240" lon="4.852965"><time>2026-05-09T18:39:31Z</time></trkpt>
<trkpt lat="50.652109" lon="4.846657"><time>2026-05-09T18:49:31Z</time></trkpt>
<trkpt lat="50.651420" lon="4.844905"><time>2026-05-09T18:59:31Z</time></trkpt>
</trkseg>
</trk>
<trk>
<name>brmma27</name>
<cmt>s</cmt>
<desc>Mont-Saint-André Sentier n°27 </desc>
<link href="https://chemins.be/montsaintandre/sentier/27"/><trkseg>
<trkpt lat="50.655856" lon="4.858314"><time>2026-05-09T18:39:31Z</time></trkpt>
<trkpt lat="50.657124" lon="4.858383"><time>2026-05-09T18:49:31Z</time></trkpt>
<trkpt lat="50.658680" lon="4.857550"><time>2026-05-09T18:59:31Z</time></trkpt>
</trkseg>
</trk>
<trk>
<name>brmma28</name>
<cmt>v</cmt>
<desc>Mont-Saint-André Sentier n°28 Rue de l'Abyme</desc>
<link href="https://chemins.be/montsaintandre/sentier/28"/><trkseg>
<trkpt lat="50.662465" lon="4.867771"><time>2026-05-09T18:39:31Z</time></trkpt>
<trkpt lat="50.662074" lon="4.867258"><time>2026-05-09T18:49:31Z</time></trkpt>
</trkseg></trk>
<trk>
<name>brmma28</name>
<cmt>r</cmt>
<desc>Mont-Saint-André Sentier n°28 Rue de l'Abyme</desc>
<link href="https://chemins.be/montsaintandre/sentier/28"/><trkseg>
<trkpt lat="50.662074" lon="4.867258"><time>2026-05-09T18:49:31Z</time></trkpt>
<trkpt lat="50.662277" lon="4.867145"><time>2026-05-09T18:59:31Z</time></trkpt>
<trkpt lat="50.662685" lon="4.867322"><time>2026-05-09T19:09:31Z</time></trkpt>
</trkseg></trk>
<trk>
<name>brmma28</name>
<cmt>s</cmt>
<desc>Mont-Saint-André Sentier n°28 Rue de l'Abyme</desc>
<link href="https://chemins.be/montsaintandre/sentier/28"/><trkseg>
<trkpt lat="50.662685" lon="4.867322"><time>2026-05-09T19:09:31Z</time></trkpt>
<trkpt lat="50.663038" lon="4.866554"><time>2026-05-09T19:19:31Z</time></trkpt>
<trkpt lat="50.663751" lon="4.866442"><time>2026-05-09T19:29:31Z</time></trkpt>
<trkpt lat="50.664518" lon="4.864992"><time>2026-05-09T19:39:31Z</time></trkpt>
<trkpt lat="50.665633" lon="4.863421"><time>2026-05-09T19:49:31Z</time></trkpt>
<trkpt lat="50.666172" lon="4.863026"><time>2026-05-09T19:59:31Z</time></trkpt>
</trkseg>
</trk>
<trk>
<name>brmma29</name>
<cmt>s</cmt>
<desc>Mont-Saint-André Sentier n°29 </desc>
<link href="https://chemins.be/montsaintandre/sentier/29"/><trkseg>
<trkpt lat="50.663203" lon="4.868104"><time>2026-05-09T18:39:31Z</time></trkpt>
<trkpt lat="50.666445" lon="4.873512"><time>2026-05-09T18:49:31Z</time></trkpt>
</trkseg>
</trk>
<trk>
<name>brmma3</name>
<cmt>v</cmt>
<desc>Mont-Saint-André Chemin n°3 </desc>
<link href="https://chemins.be/montsaintandre/chemin/3"/><trkseg>
<trkpt lat="50.664030" lon="4.854498"><time>2026-05-09T18:39:31Z</time></trkpt>
<trkpt lat="50.665189" lon="4.856327"><time>2026-05-09T18:49:31Z</time></trkpt>
<trkpt lat="50.665499" lon="4.857652"><time>2026-05-09T18:59:31Z</time></trkpt>
<trkpt lat="50.665989" lon="4.862244"><time>2026-05-09T19:09:31Z</time></trkpt>
<trkpt lat="50.667221" lon="4.867053"><time>2026-05-09T19:19:31Z</time></trkpt>
<trkpt lat="50.667242" lon="4.868102"><time>2026-05-09T19:29:31Z</time></trkpt>
</trkseg></trk>
<trk>
<name>brmma3</name>
<cmt>r</cmt>
<desc>Mont-Saint-André Chemin n°3 </desc>
<link href="https://chemins.be/montsaintandre/chemin/3"/><trkseg>
<trkpt lat="50.667242" lon="4.868102"><time>2026-05-09T19:29:31Z</time></trkpt>
<trkpt lat="50.667172" lon="4.869493"><time>2026-05-09T19:39:31Z</time></trkpt>
<trkpt lat="50.667292" lon="4.871003"><time>2026-05-09T19:49:31Z</time></trkpt>
<trkpt lat="50.667177" lon="4.871909"><time>2026-05-09T19:59:31Z</time></trkpt>
<trkpt lat="50.668043" lon="4.873840"><time>2026-05-09T20:09:31Z</time></trkpt>
</trkseg>
</trk>
<trk>
<name>brmma30</name>
<cmt>d</cmt>
<desc>Mont-Saint-André Sentier n°30 </desc>
<link href="https://chemins.be/montsaintandre/sentier/30"/><trkseg>
<trkpt lat="50.667774" lon="4.876806"><time>2026-05-09T18:39:31Z</time></trkpt>
<trkpt lat="50.668101" lon="4.877849"><time>2026-05-09T18:49:31Z</time></trkpt>
<trkpt lat="50.668106" lon="4.878243"><time>2026-05-09T18:59:31Z</time></trkpt>
<trkpt lat="50.667946" lon="4.878703"><time>2026-05-09T19:09:31Z</time></trkpt>
</trkseg></trk>
<trk>
<name>brmma30</name>
<cmt>s</cmt>
<desc>Mont-Saint-André Sentier n°30 </desc>
<link href="https://chemins.be/montsaintandre/sentier/30"/><trkseg>
<trkpt lat="50.667946" lon="4.878703"><time>2026-05-09T19:09:31Z</time></trkpt>
<trkpt lat="50.668131" lon="4.879677"><time>2026-05-09T19:19:31Z</time></trkpt>
<trkpt lat="50.668084" lon="4.880394"><time>2026-05-09T19:29:31Z</time></trkpt>
<trkpt lat="50.667980" lon="4.882566"><time>2026-05-09T19:39:31Z</time></trkpt>
<trkpt lat="50.667550" lon="4.883141"><time>2026-05-09T19:49:31Z</time></trkpt>
<trkpt lat="50.667365" lon="4.885982"><time>2026-05-09T19:59:31Z</time></trkpt>
<trkpt lat="50.667539" lon="4.886737"><time>2026-05-09T20:09:31Z</time></trkpt>
</trkseg>
</trk>
<trk>
<name>brmma31</name>
<cmt>s</cmt>
<desc>Mont-Saint-André Sentier n°31 Rue de l'Église / Rue des Carrières</desc>
<link href="https://chemins.be/montsaintandre/sentier/31"/><trkseg>
<trkpt lat="50.654127" lon="4.865809"><time>2026-05-09T18:39:31Z</time></trkpt>
<trkpt lat="50.655338" lon="4.866444"><time>2026-05-09T18:49:31Z</time></trkpt>
<trkpt lat="50.656387" lon="4.867049"><time>2026-05-09T18:59:31Z</time></trkpt>
</trkseg></trk>
<trk>
<name>brmma31</name>
<cmt>r</cmt>
<desc>Mont-Saint-André Sentier n°31 Rue de l'Église / Rue des Carrières</desc>
<link href="https://chemins.be/montsaintandre/sentier/31"/><trkseg>
<trkpt lat="50.656387" lon="4.867049"><time>2026-05-09T18:59:31Z</time></trkpt>
<trkpt lat="50.657022" lon="4.867820"><time>2026-05-09T19:09:31Z</time></trkpt>
<trkpt lat="50.657354" lon="4.868095"><time>2026-05-09T19:19:31Z</time></trkpt>
</trkseg></trk>
<trk>
<name>brmma31</name>
<cmt>s</cmt>
<desc>Mont-Saint-André Sentier n°31 Rue de l'Église / Rue des Carrières</desc>
<link href="https://chemins.be/montsaintandre/sentier/31"/><trkseg>
<trkpt lat="50.657354" lon="4.868095"><time>2026-05-09T19:19:31Z</time></trkpt>
<trkpt lat="50.657529" lon="4.868353"><time>2026-05-09T19:29:31Z</time></trkpt>
</trkseg></trk>
<trk>
<name>brmma31</name>
<cmt>b</cmt>
<desc>Mont-Saint-André Sentier n°31 Rue de l'Église / Rue des Carrières</desc>
<link href="https://chemins.be/montsaintandre/sentier/31"/><trkseg>
<trkpt lat="50.657529" lon="4.868353"><time>2026-05-09T19:29:31Z</time></trkpt>
<trkpt lat="50.658176" lon="4.869197"><time>2026-05-09T19:39:31Z</time></trkpt>
</trkseg></trk>
<trk>
<name>brmma31</name>
<cmt>d</cmt>
<desc>Mont-Saint-André Sentier n°31 Rue de l'Église / Rue des Carrières</desc>
<link href="https://chemins.be/montsaintandre/sentier/31"/><trkseg>
<trkpt lat="50.658176" lon="4.869197"><time>2026-05-09T19:39:31Z</time></trkpt>
<trkpt lat="50.658511" lon="4.869634"><time>2026-05-09T19:49:31Z</time></trkpt>
<trkpt lat="50.658811" lon="4.870026"><time>2026-05-09T19:59:31Z</time></trkpt>
</trkseg></trk>
<trk>
<name>brmma31</name>
<cmt>v</cmt>
<desc>Mont-Saint-André Sentier n°31 Rue de l'Église / Rue des Carrières</desc>
<link href="https://chemins.be/montsaintandre/sentier/31"/><trkseg>
<trkpt lat="50.658811" lon="4.870026"><time>2026-05-09T19:59:31Z</time></trkpt>
<trkpt lat="50.659105" lon="4.870300"><time>2026-05-09T20:09:31Z</time></trkpt>
<trkpt lat="50.661929" lon="4.872383"><time>2026-05-09T20:19:31Z</time></trkpt>
<trkpt lat="50.662380" lon="4.872077"><time>2026-05-09T20:29:31Z</time></trkpt>
</trkseg>
</trk>
<trk>
<name>brmma31bis</name>
<cmt>s</cmt>
<desc>Mont-Saint-André Sentier n°31bis </desc>
<link href="https://chemins.be/montsaintandre/sentier/31bis"/><trkseg>
<trkpt lat="50.654884" lon="4.865237"><time>2026-05-09T18:39:31Z</time></trkpt>
<trkpt lat="50.655338" lon="4.866444"><time>2026-05-09T18:49:31Z</time></trkpt>
</trkseg>
</trk>
<trk>
<name>brmma32</name>
<cmt>v</cmt>
<desc>Mont-Saint-André Sentier n°32 Rue Petit Warichet</desc>
<link href="https://chemins.be/montsaintandre/sentier/32"/><trkseg>
<trkpt lat="50.653862" lon="4.860333"><time>2026-05-09T18:39:31Z</time></trkpt>
<trkpt lat="50.653764" lon="4.860198"><time>2026-05-09T18:49:31Z</time></trkpt>
<trkpt lat="50.653336" lon="4.859605"><time>2026-05-09T18:59:31Z</time></trkpt>
</trkseg></trk>
<trk>
<name>brmma32</name>
<cmt>d</cmt>
<desc>Mont-Saint-André Sentier n°32 Rue Petit Warichet</desc>
<link href="https://chemins.be/montsaintandre/sentier/32"/><trkseg>
<trkpt lat="50.653336" lon="4.859605"><time>2026-05-09T18:59:31Z</time></trkpt>
<trkpt lat="50.653030" lon="4.859529"><time>2026-05-09T19:09:31Z</time></trkpt>
<trkpt lat="50.652440" lon="4.859317"><time>2026-05-09T19:19:31Z</time></trkpt>
<trkpt lat="50.651366" lon="4.859404"><time>2026-05-09T19:29:31Z</time></trkpt>
<trkpt lat="50.651289" lon="4.859324"><time>2026-05-09T19:39:31Z</time></trkpt>
</trkseg></trk>
<trk>
<name>brmma32</name>
<cmt>v</cmt>
<desc>Mont-Saint-André Sentier n°32 Rue Petit Warichet</desc>
<link href="https://chemins.be/montsaintandre/sentier/32"/><trkseg>
<trkpt lat="50.651289" lon="4.859324"><time>2026-05-09T19:39:31Z</time></trkpt>
<trkpt lat="50.651120" lon="4.859582"><time>2026-05-09T19:49:31Z</time></trkpt>
</trkseg></trk>
<trk>
<name>brmma32</name>
<cmt>b</cmt>
<desc>Mont-Saint-André Sentier n°32 Rue Petit Warichet</desc>
<link href="https://chemins.be/montsaintandre/sentier/32"/><trkseg>
<trkpt lat="50.651120" lon="4.859582"><time>2026-05-09T19:49:31Z</time></trkpt>
<trkpt lat="50.650691" lon="4.860279"><time>2026-05-09T19:59:31Z</time></trkpt>
</trkseg></trk>
<trk>
<name>brmma32</name>
<cmt>r</cmt>
<desc>Mont-Saint-André Sentier n°32 Rue Petit Warichet</desc>
<link href="https://chemins.be/montsaintandre/sentier/32"/><trkseg>
<trkpt lat="50.650691" lon="4.860279"><time>2026-05-09T19:59:31Z</time></trkpt>
<trkpt lat="50.650353" lon="4.859849"><time>2026-05-09T20:09:31Z</time></trkpt>
</trkseg></trk>
<trk>
<name>brmma32</name>
<cmt>d</cmt>
<desc>Mont-Saint-André Sentier n°32 Rue Petit Warichet</desc>
<link href="https://chemins.be/montsaintandre/sentier/32"/><trkseg>
<trkpt lat="50.650353" lon="4.859849"><time>2026-05-09T20:09:31Z</time></trkpt>
<trkpt lat="50.649173" lon="4.859895"><time>2026-05-09T20:19:31Z</time></trkpt>
<trkpt lat="50.646347" lon="4.860004"><time>2026-05-09T20:29:31Z</time></trkpt>
</trkseg>
</trk>
<trk>
<name>brmma33</name>
<cmt>b</cmt>
<desc>Mont-Saint-André Sentier n°33 Rue du Brou</desc>
<link href="https://chemins.be/montsaintandre/sentier/33"/><trkseg>
<trkpt lat="50.651151" lon="4.859457"><time>2026-05-09T18:39:31Z</time></trkpt>
<trkpt lat="50.651114" lon="4.859374"><time>2026-05-09T18:49:31Z</time></trkpt>
<trkpt lat="50.650945" lon="4.859016"><time>2026-05-09T18:59:31Z</time></trkpt>
</trkseg></trk>
<trk>
<name>brmma33</name>
<cmt>d</cmt>
<desc>Mont-Saint-André Sentier n°33 Rue du Brou</desc>
<link href="https://chemins.be/montsaintandre/sentier/33"/><trkseg>
<trkpt lat="50.650945" lon="4.859016"><time>2026-05-09T18:59:31Z</time></trkpt>
<trkpt lat="50.650655" lon="4.858395"><time>2026-05-09T19:09:31Z</time></trkpt>
<trkpt lat="50.649699" lon="4.856345"><time>2026-05-09T19:19:31Z</time></trkpt>
</trkseg></trk>
<trk>
<name>brmma33</name>
<cmt>r</cmt>
<desc>Mont-Saint-André Sentier n°33 Rue du Brou</desc>
<link href="https://chemins.be/montsaintandre/sentier/33"/><trkseg>
<trkpt lat="50.649699" lon="4.856345"><time>2026-05-09T19:19:31Z</time></trkpt>
<trkpt lat="50.650615" lon="4.855384"><time>2026-05-09T19:29:31Z</time></trkpt>
</trkseg></trk>
<trk>
<name>brmma33</name>
<cmt>v</cmt>
<desc>Mont-Saint-André Sentier n°33 Rue du Brou</desc>
<link href="https://chemins.be/montsaintandre/sentier/33"/><trkseg>
<trkpt lat="50.650615" lon="4.855384"><time>2026-05-09T19:29:31Z</time></trkpt>
<trkpt lat="50.649823" lon="4.854073"><time>2026-05-09T19:39:31Z</time></trkpt>
<trkpt lat="50.649880" lon="4.853759"><time>2026-05-09T19:49:31Z</time></trkpt>
<trkpt lat="50.649868" lon="4.851127"><time>2026-05-09T19:59:31Z</time></trkpt>
<trkpt lat="50.649866" lon="4.850634"><time>2026-05-09T20:09:31Z</time></trkpt>
<trkpt lat="50.650063" lon="4.846703"><time>2026-05-09T20:19:31Z</time></trkpt>
</trkseg>
</trk>
<trk>
<name>brmma34</name>
<cmt>s</cmt>
<desc>Mont-Saint-André Sentier n°34 </desc>
<link href="https://chemins.be/montsaintandre/sentier/34"/><trkseg>
<trkpt lat="50.648850" lon="4.857241"><time>2026-05-09T18:39:31Z</time></trkpt>
<trkpt lat="50.648317" lon="4.857872"><time>2026-05-09T18:49:31Z</time></trkpt>
<trkpt lat="50.646303" lon="4.859915"><time>2026-05-09T18:59:31Z</time></trkpt>
</trkseg>
</trk>
<trk>
<name>brmma35</name>
<cmt>q</cmt>
<desc>Mont-Saint-André Sentier n°35 </desc>
<link href="https://chemins.be/montsaintandre/sentier/35"/><trkseg>
<trkpt lat="50.652039" lon="4.865106"><time>2026-05-09T18:39:31Z</time></trkpt>
<trkpt lat="50.652024" lon="4.865734"><time>2026-05-09T18:49:31Z</time></trkpt>
<trkpt lat="50.651404" lon="4.866966"><time>2026-05-09T18:59:31Z</time></trkpt>
<trkpt lat="50.650815" lon="4.867590"><time>2026-05-09T19:09:31Z</time></trkpt>
</trkseg>
</trk>
<trk>
<name>brmma36</name>
<cmt>v</cmt>
<desc>Mont-Saint-André Sentier n°36 </desc>
<link href="https://chemins.be/montsaintandre/sentier/36"/><trkseg>
<trkpt lat="50.653853" lon="4.864533"><time>2026-05-09T18:39:31Z</time></trkpt>
<trkpt lat="50.652836" lon="4.864933"><time>2026-05-09T18:49:31Z</time></trkpt>
<trkpt lat="50.652654" lon="4.865412"><time>2026-05-09T18:59:31Z</time></trkpt>
</trkseg>
</trk>
<trk>
<name>brmma37</name>
<cmt>d</cmt>
<desc>Mont-Saint-André Sentier n°37 </desc>
<link href="https://chemins.be/montsaintandre/sentier/37"/><trkseg>
<trkpt lat="50.659310" lon="4.866761"><time>2026-05-09T18:39:31Z</time></trkpt>
<trkpt lat="50.660442" lon="4.864519"><time>2026-05-09T18:49:31Z</time></trkpt>
<trkpt lat="50.660803" lon="4.864347"><time>2026-05-09T18:59:31Z</time></trkpt>
<trkpt lat="50.660384" lon="4.858832"><time>2026-05-09T19:09:31Z</time></trkpt>
<trkpt lat="50.660820" lon="4.857287"><time>2026-05-09T19:19:31Z</time></trkpt>
</trkseg></trk>
<trk>
<name>brmma37</name>
<cmt>v</cmt>
<desc>Mont-Saint-André Sentier n°37 </desc>
<link href="https://chemins.be/montsaintandre/sentier/37"/><trkseg>
<trkpt lat="50.660820" lon="4.857287"><time>2026-05-09T19:19:31Z</time></trkpt>
<trkpt lat="50.662574" lon="4.854777"><time>2026-05-09T19:29:31Z</time></trkpt>
<trkpt lat="50.663146" lon="4.853109"><time>2026-05-09T19:39:31Z</time></trkpt>
</trkseg></trk>
<trk>
<name>brmma37</name>
<cmt>q</cmt>
<desc>Mont-Saint-André Sentier n°37 </desc>
<link href="https://chemins.be/montsaintandre/sentier/37"/><trkseg>
<trkpt lat="50.663146" lon="4.853109"><time>2026-05-09T19:39:31Z</time></trkpt>
<trkpt lat="50.663778" lon="4.852062"><time>2026-05-09T19:49:31Z</time></trkpt>
<trkpt lat="50.664159" lon="4.850796"><time>2026-05-09T19:59:31Z</time></trkpt>
</trkseg>
</trk>
<trk>
<name>brmma38</name>
<cmt>q</cmt>
<desc>Mont-Saint-André Sentier n°38 </desc>
<link href="https://chemins.be/montsaintandre/sentier/38"/><trkseg>
<trkpt lat="50.654753" lon="4.860145"><time>2026-05-09T18:39:31Z</time></trkpt>
<trkpt lat="50.654867" lon="4.860768"><time>2026-05-09T18:49:31Z</time></trkpt>
<trkpt lat="50.655189" lon="4.861252"><time>2026-05-09T18:59:31Z</time></trkpt>
<trkpt lat="50.655985" lon="4.862237"><time>2026-05-09T19:09:31Z</time></trkpt>
<trkpt lat="50.656717" lon="4.863418"><time>2026-05-09T19:19:31Z</time></trkpt>
<trkpt lat="50.657216" lon="4.864498"><time>2026-05-09T19:29:31Z</time></trkpt>
</trkseg>
</trk>
<trk>
<name>brmma39</name>
<cmt>s</cmt>
<desc>Mont-Saint-André Sentier n°39 </desc>
<link href="https://chemins.be/montsaintandre/sentier/39"/><trkseg>
<trkpt lat="50.654968" lon="4.862466"><time>2026-05-09T18:39:31Z</time></trkpt>
<trkpt lat="50.655257" lon="4.862073"><time>2026-05-09T18:49:31Z</time></trkpt>
<trkpt lat="50.655268" lon="4.861692"><time>2026-05-09T18:59:31Z</time></trkpt>
<trkpt lat="50.655207" lon="4.861253"><time>2026-05-09T19:09:31Z</time></trkpt>
</trkseg>
</trk>
<trk>
<name>brmma4</name>
<cmt>r</cmt>
<desc>Mont-Saint-André Chemin n°4 Rue de l'Église</desc>
<link href="https://chemins.be/montsaintandre/chemin/4"/><trkseg>
<trkpt lat="50.654932" lon="4.862551"><time>2026-05-09T18:39:31Z</time></trkpt>
<trkpt lat="50.654516" lon="4.861033"><time>2026-05-09T18:49:31Z</time></trkpt>
<trkpt lat="50.654630" lon="4.860200"><time>2026-05-09T18:59:31Z</time></trkpt>
<trkpt lat="50.655657" lon="4.858865"><time>2026-05-09T19:09:31Z</time></trkpt>
<trkpt lat="50.656314" lon="4.857228"><time>2026-05-09T19:19:31Z</time></trkpt>
<trkpt lat="50.658062" lon="4.856874"><time>2026-05-09T19:29:31Z</time></trkpt>
</trkseg></trk>
<trk>
<name>brmma4</name>
<cmt>v</cmt>
<desc>Mont-Saint-André Chemin n°4 Rue de l'Église</desc>
<link href="https://chemins.be/montsaintandre/chemin/4"/><trkseg>
<trkpt lat="50.658062" lon="4.856874"><time>2026-05-09T19:29:31Z</time></trkpt>
<trkpt lat="50.658596" lon="4.857132"><time>2026-05-09T19:39:31Z</time></trkpt>
<trkpt lat="50.658688" lon="4.857582"><time>2026-05-09T19:49:31Z</time></trkpt>
<trkpt lat="50.659442" lon="4.857861"><time>2026-05-09T19:59:31Z</time></trkpt>
<trkpt lat="50.660857" lon="4.857346"><time>2026-05-09T20:09:31Z</time></trkpt>
<trkpt lat="50.662636" lon="4.857631"><time>2026-05-09T20:19:31Z</time></trkpt>
<trkpt lat="50.663431" lon="4.857599"><time>2026-05-09T20:29:31Z</time></trkpt>
<trkpt lat="50.664411" lon="4.857920"><time>2026-05-09T20:39:31Z</time></trkpt>
<trkpt lat="50.665424" lon="4.857534"><time>2026-05-09T20:49:31Z</time></trkpt>
</trkseg>
</trk>
<trk>
<name>brmma40</name>
<cmt>d</cmt>
<desc>Mont-Saint-André Sentier n°40 </desc>
<link href="https://chemins.be/montsaintandre/sentier/40"/><trkseg>
<trkpt lat="50.652984" lon="4.859603"><time>2026-05-09T18:39:31Z</time></trkpt>
<trkpt lat="50.652515" lon="4.860051"><time>2026-05-09T18:49:31Z</time></trkpt>
<trkpt lat="50.652475" lon="4.860969"><time>2026-05-09T18:59:31Z</time></trkpt>
<trkpt lat="50.652311" lon="4.861604"><time>2026-05-09T19:09:31Z</time></trkpt>
<trkpt lat="50.652290" lon="4.862170"><time>2026-05-09T19:19:31Z</time></trkpt>
<trkpt lat="50.651572" lon="4.861992"><time>2026-05-09T19:29:31Z</time></trkpt>
</trkseg>
</trk>
<trk>
<name>brmma41</name>
<cmt>s</cmt>
<desc>Mont-Saint-André Sentier n°41 </desc>
<link href="https://chemins.be/montsaintandre/sentier/41"/><trkseg>
<trkpt lat="50.662289" lon="4.869203"><time>2026-05-09T18:39:31Z</time></trkpt>
<trkpt lat="50.662702" lon="4.869992"><time>2026-05-09T18:49:31Z</time></trkpt>
<trkpt lat="50.667218" lon="4.871486"><time>2026-05-09T18:59:31Z</time></trkpt>
</trkseg>
</trk>
<trk>
<name>brmma43</name>
<cmt>s</cmt>
<desc>Mont-Saint-André Chemin n°43 </desc>
<link href="https://chemins.be/montsaintandre/chemin/43"/><trkseg>
<trkpt lat="50.657292" lon="4.865607"><time>2026-05-09T18:39:31Z</time></trkpt>
<trkpt lat="50.656919" lon="4.865427"><time>2026-05-09T18:49:31Z</time></trkpt>
<trkpt lat="50.657227" lon="4.864496"><time>2026-05-09T18:59:31Z</time></trkpt>
</trkseg>
</trk>
<trk>
<name>brmma44</name>
<cmt>s</cmt>
<desc>Mont-Saint-André Chemin n°44 Rue de l'Amérique / Rue Petit Warichet</desc>
<link href="https://chemins.be/montsaintandre/chemin/44"/><trkseg>
<trkpt lat="50.653904" lon="4.864481"><time>2026-05-09T18:39:31Z</time></trkpt>
<trkpt lat="50.654022" lon="4.865586"><time>2026-05-09T18:49:31Z</time></trkpt>
</trkseg></trk>
<trk>
<name>brmma44</name>
<cmt>r</cmt>
<desc>Mont-Saint-André Chemin n°44 Rue de l'Amérique / Rue Petit Warichet</desc>
<link href="https://chemins.be/montsaintandre/chemin/44"/><trkseg>
<trkpt lat="50.654022" lon="4.865586"><time>2026-05-09T18:49:31Z</time></trkpt>
<trkpt lat="50.653690" lon="4.865635"><time>2026-05-09T18:59:31Z</time></trkpt>
<trkpt lat="50.652520" lon="4.865598"><time>2026-05-09T19:09:31Z</time></trkpt>
<trkpt lat="50.652238" lon="4.865097"><time>2026-05-09T19:19:31Z</time></trkpt>
<trkpt lat="50.651955" lon="4.865099"><time>2026-05-09T19:29:31Z</time></trkpt>
<trkpt lat="50.651700" lon="4.864936"><time>2026-05-09T19:39:31Z</time></trkpt>
<trkpt lat="50.651172" lon="4.864259"><time>2026-05-09T19:49:31Z</time></trkpt>
<trkpt lat="50.650065" lon="4.862882"><time>2026-05-09T19:59:31Z</time></trkpt>
</trkseg></trk>
<trk>
<name>brmma44</name>
<cmt>v</cmt>
<desc>Mont-Saint-André Chemin n°44 Rue de l'Amérique / Rue Petit Warichet</desc>
<link href="https://chemins.be/montsaintandre/chemin/44"/><trkseg>
<trkpt lat="50.650065" lon="4.862882"><time>2026-05-09T19:59:31Z</time></trkpt>
<trkpt lat="50.649673" lon="4.862740"><time>2026-05-09T20:09:31Z</time></trkpt>
<trkpt lat="50.648971" lon="4.862560"><time>2026-05-09T20:19:31Z</time></trkpt>
</trkseg></trk>
<trk>
<name>brmma44</name>
<cmt>d</cmt>
<desc>Mont-Saint-André Chemin n°44 Rue de l'Amérique / Rue Petit Warichet</desc>
<link href="https://chemins.be/montsaintandre/chemin/44"/><trkseg>
<trkpt lat="50.648971" lon="4.862560"><time>2026-05-09T20:19:31Z</time></trkpt>
<trkpt lat="50.648233" lon="4.862371"><time>2026-05-09T20:29:31Z</time></trkpt>
<trkpt lat="50.646770" lon="4.861960"><time>2026-05-09T20:39:31Z</time></trkpt>
</trkseg>
</trk>
<trk>
<name>brmma45</name>
<cmt>v</cmt>
<desc>Mont-Saint-André Chemin n°45 </desc>
<link href="https://chemins.be/montsaintandre/chemin/45"/><trkseg>
<trkpt lat="50.647702" lon="4.865734"><time>2026-05-09T18:39:31Z</time></trkpt>
<trkpt lat="50.647402" lon="4.864736"><time>2026-05-09T18:49:31Z</time></trkpt>
<trkpt lat="50.647008" lon="4.864093"><time>2026-05-09T18:59:31Z</time></trkpt>
<trkpt lat="50.646720" lon="4.861875"><time>2026-05-09T19:09:31Z</time></trkpt>
<trkpt lat="50.646339" lon="4.859976"><time>2026-05-09T19:19:31Z</time></trkpt>
</trkseg>
</trk>
<trk>
<name>brmma46</name>
<cmt>s</cmt>
<desc>Mont-Saint-André Sentier n°46 </desc>
<link href="https://chemins.be/montsaintandre/sentier/46"/><trkseg>
<trkpt lat="50.655546" lon="4.865043"><time>2026-05-09T18:39:31Z</time></trkpt>
<trkpt lat="50.656270" lon="4.864837"><time>2026-05-09T18:49:31Z</time></trkpt>
<trkpt lat="50.656465" lon="4.865189"><time>2026-05-09T18:59:31Z</time></trkpt>
<trkpt lat="50.657271" lon="4.865575"><time>2026-05-09T19:09:31Z</time></trkpt>
</trkseg>
</trk>
<trk>
<name>brmma47</name>
<cmt>r</cmt>
<desc>Mont-Saint-André Chemin n°47 Chemin Petite Coyarde</desc>
<link href="https://chemins.be/montsaintandre/chemin/47"/><trkseg>
<trkpt lat="50.659776" lon="4.868055"><time>2026-05-09T18:39:31Z</time></trkpt>
<trkpt lat="50.660257" lon="4.867681"><time>2026-05-09T18:49:31Z</time></trkpt>
<trkpt lat="50.660620" lon="4.867773"><time>2026-05-09T18:59:31Z</time></trkpt>
<trkpt lat="50.661123" lon="4.868094"><time>2026-05-09T19:09:31Z</time></trkpt>
<trkpt lat="50.661476" lon="4.868047"><time>2026-05-09T19:19:31Z</time></trkpt>
</trkseg>
</trk>
<trk>
<name>brmma48</name>
<cmt>v</cmt>
<desc>Mont-Saint-André Chemin n°48 </desc>
<link href="https://chemins.be/montsaintandre/chemin/48"/><trkseg>
<trkpt lat="50.655638" lon="4.871814"><time>2026-05-09T18:39:31Z</time></trkpt>
<trkpt lat="50.655624" lon="4.872422"><time>2026-05-09T18:49:31Z</time></trkpt>
<trkpt lat="50.655570" lon="4.873793"><time>2026-05-09T18:59:31Z</time></trkpt>
<trkpt lat="50.655383" lon="4.874802"><time>2026-05-09T19:09:31Z</time></trkpt>
</trkseg>
</trk>
<trk>
<name>brmma5</name>
<cmt>v</cmt>
<desc>Mont-Saint-André Chemin n°5 Rue du Grand Warichet</desc>
<link href="https://chemins.be/montsaintandre/chemin/5"/><trkseg>
<trkpt lat="50.658022" lon="4.856899"><time>2026-05-09T18:39:31Z</time></trkpt>
<trkpt lat="50.658485" lon="4.856005"><time>2026-05-09T18:49:31Z</time></trkpt>
<trkpt lat="50.658566" lon="4.854060"><time>2026-05-09T18:59:31Z</time></trkpt>
<trkpt lat="50.659337" lon="4.850362"><time>2026-05-09T19:09:31Z</time></trkpt>
<trkpt lat="50.659342" lon="4.848352"><time>2026-05-09T19:19:31Z</time></trkpt>
</trkseg></trk>
<trk>
<name>brmma5</name>
<cmt>s</cmt>
<desc>Mont-Saint-André Chemin n°5 Rue du Grand Warichet</desc>
<link href="https://chemins.be/montsaintandre/chemin/5"/><trkseg>
<trkpt lat="50.659342" lon="4.848352"><time>2026-05-09T19:19:31Z</time></trkpt>
<trkpt lat="50.659650" lon="4.844976"><time>2026-05-09T19:29:31Z</time></trkpt>
<trkpt lat="50.660779" lon="4.839497"><time>2026-05-09T19:39:31Z</time></trkpt>
</trkseg>
</trk>
<trk>
<name>brmma50</name>
<cmt>r</cmt>
<desc>Mont-Saint-André Chemin n°50 Rue du Grand Warichet</desc>
<link href="https://chemins.be/montsaintandre/chemin/50"/><trkseg>
<trkpt lat="50.653284" lon="4.859307"><time>2026-05-09T18:39:31Z</time></trkpt>
<trkpt lat="50.653907" lon="4.858779"><time>2026-05-09T18:49:31Z</time></trkpt>
</trkseg></trk>
<trk>
<name>brmma50</name>
<cmt>v</cmt>
<desc>Mont-Saint-André Chemin n°50 Rue du Grand Warichet</desc>
<link href="https://chemins.be/montsaintandre/chemin/50"/><trkseg>
<trkpt lat="50.653907" lon="4.858779"><time>2026-05-09T18:49:31Z</time></trkpt>
<trkpt lat="50.653608" lon="4.857679"><time>2026-05-09T18:59:31Z</time></trkpt>
</trkseg></trk>
<trk>
<name>brmma50</name>
<cmt>s</cmt>
<desc>Mont-Saint-André Chemin n°50 Rue du Grand Warichet</desc>
<link href="https://chemins.be/montsaintandre/chemin/50"/><trkseg>
<trkpt lat="50.653608" lon="4.857679"><time>2026-05-09T18:59:31Z</time></trkpt>
<trkpt lat="50.653559" lon="4.857538"><time>2026-05-09T19:09:31Z</time></trkpt>
<trkpt lat="50.653826" lon="4.857316"><time>2026-05-09T19:19:31Z</time></trkpt>
</trkseg>
</trk>
<trk>
<name>brmma51</name>
<cmt>r</cmt>
<desc>Mont-Saint-André Chemin n°51 Rue du Grand Warichet</desc>
<link href="https://chemins.be/montsaintandre/chemin/51"/><trkseg>
<trkpt lat="50.654256" lon="4.858699"><time>2026-05-09T18:39:31Z</time></trkpt>
<trkpt lat="50.653896" lon="4.858753"><time>2026-05-09T18:49:31Z</time></trkpt>
</trkseg>
</trk>
<trk>
<name>brmma52</name>
<cmt>r</cmt>
<desc>Mont-Saint-André Chemin n°52 </desc>
<link href="https://chemins.be/montsaintandre/chemin/52"/><trkseg>
<trkpt lat="50.666707" lon="4.876254"><time>2026-05-09T18:39:31Z</time></trkpt>
<trkpt lat="50.667091" lon="4.877027"><time>2026-05-09T18:49:31Z</time></trkpt>
</trkseg></trk>
<trk>
<name>brmma52</name>
<cmt>v</cmt>
<desc>Mont-Saint-André Chemin n°52 </desc>
<link href="https://chemins.be/montsaintandre/chemin/52"/><trkseg>
<trkpt lat="50.667091" lon="4.877027"><time>2026-05-09T18:49:31Z</time></trkpt>
<trkpt lat="50.667123" lon="4.877593"><time>2026-05-09T18:59:31Z</time></trkpt>
</trkseg>
</trk>
<trk>
<name>brmma53</name>
<cmt>r</cmt>
<desc>Mont-Saint-André Chemin n°53 </desc>
<link href="https://chemins.be/montsaintandre/chemin/53"/><trkseg>
<trkpt lat="50.666578" lon="4.873939"><time>2026-05-09T18:39:31Z</time></trkpt>
<trkpt lat="50.666413" lon="4.873457"><time>2026-05-09T18:49:31Z</time></trkpt>
<trkpt lat="50.666771" lon="4.872509"><time>2026-05-09T18:59:31Z</time></trkpt>
<trkpt lat="50.667172" lon="4.871890"><time>2026-05-09T19:09:31Z</time></trkpt>
</trkseg>
</trk>
<trk>
<name>brmma56</name>
<cmt>v</cmt>
<desc>Mont-Saint-André Sentier n°56 </desc>
<link href="https://chemins.be/montsaintandre/sentier/56"/><trkseg>
<trkpt lat="50.654435" lon="4.860976"><time>2026-05-09T18:39:31Z</time></trkpt>
<trkpt lat="50.654140" lon="4.860619"><time>2026-05-09T18:49:31Z</time></trkpt>
<trkpt lat="50.654005" lon="4.860505"><time>2026-05-09T18:59:31Z</time></trkpt>
</trkseg></trk>
<trk>
<name>brmma56</name>
<cmt>d</cmt>
<desc>Mont-Saint-André Sentier n°56 </desc>
<link href="https://chemins.be/montsaintandre/sentier/56"/><trkseg>
<trkpt lat="50.654005" lon="4.860505"><time>2026-05-09T18:59:31Z</time></trkpt>
<trkpt lat="50.653826" lon="4.860474"><time>2026-05-09T19:09:31Z</time></trkpt>
</trkseg>
</trk>
<trk>
<name>brmma57</name>
<cmt>q</cmt>
<desc>Mont-Saint-André Sentier n°57 </desc>
<link href="https://chemins.be/montsaintandre/sentier/57"/><trkseg>
<trkpt lat="50.654895" lon="4.849808"><time>2026-05-09T18:39:31Z</time></trkpt>
<trkpt lat="50.653991" lon="4.846632"><time>2026-05-09T18:49:31Z</time></trkpt>
<trkpt lat="50.653940" lon="4.846037"><time>2026-05-09T18:59:31Z</time></trkpt>
<trkpt lat="50.653924" lon="4.845556"><time>2026-05-09T19:09:31Z</time></trkpt>
<trkpt lat="50.653064" lon="4.842606"><time>2026-05-09T19:19:31Z</time></trkpt>
<trkpt lat="50.652476" lon="4.841144"><time>2026-05-09T19:29:31Z</time></trkpt>
<trkpt lat="50.651998" lon="4.837094"><time>2026-05-09T19:39:31Z</time></trkpt>
</trkseg>
</trk>
<trk>
<name>brmma7</name>
<cmt>v</cmt>
<desc>Mont-Saint-André Chemin n°7 </desc>
<link href="https://chemins.be/montsaintandre/chemin/7"/><trkseg>
<trkpt lat="50.661102" lon="4.887171"><time>2026-05-09T18:39:31Z</time></trkpt>
<trkpt lat="50.663006" lon="4.882313"><time>2026-05-09T18:49:31Z</time></trkpt>
<trkpt lat="50.664203" lon="4.875653"><time>2026-05-09T18:59:31Z</time></trkpt>
</trkseg>
</trk>
<trk>
<name>brmma8</name>
<cmt>s</cmt>
<desc>Mont-Saint-André Chemin n°8 </desc>
<link href="https://chemins.be/montsaintandre/chemin/8"/><trkseg>
<trkpt lat="50.663152" lon="4.853199"><time>2026-05-09T18:39:31Z</time></trkpt>
<trkpt lat="50.662766" lon="4.849276"><time>2026-05-09T18:49:31Z</time></trkpt>
<trkpt lat="50.662184" lon="4.846899"><time>2026-05-09T18:59:31Z</time></trkpt>
<trkpt lat="50.661085" lon="4.841569"><time>2026-05-09T19:09:31Z</time></trkpt>
<trkpt lat="50.660900" lon="4.839766"><time>2026-05-09T19:19:31Z</time></trkpt>
</trkseg>
</trk>
<trk>
<name>brmma9</name>
<cmt>r</cmt>
<desc>Mont-Saint-André Chemin n°9 Rue du Gestiaux</desc>
<link href="https://chemins.be/montsaintandre/chemin/9"/><trkseg>
<trkpt lat="50.654245" lon="4.853058"><time>2026-05-09T18:39:31Z</time></trkpt>
<trkpt lat="50.655049" lon="4.852631"><time>2026-05-09T18:49:31Z</time></trkpt>
</trkseg></trk>
<trk>
<name>brmma9</name>
<cmt>d</cmt>
<desc>Mont-Saint-André Chemin n°9 Rue du Gestiaux</desc>
<link href="https://chemins.be/montsaintandre/chemin/9"/><trkseg>
<trkpt lat="50.655049" lon="4.852631"><time>2026-05-09T18:49:31Z</time></trkpt>
<trkpt lat="50.655846" lon="4.852386"><time>2026-05-09T18:59:31Z</time></trkpt>
<trkpt lat="50.656127" lon="4.852251"><time>2026-05-09T19:09:31Z</time></trkpt>
<trkpt lat="50.657265" lon="4.851707"><time>2026-05-09T19:19:31Z</time></trkpt>
<trkpt lat="50.659355" lon="4.848323"><time>2026-05-09T19:29:31Z</time></trkpt>
</trkseg></trk>
<trk>
<name>brmma9</name>
<cmt>s</cmt>
<desc>Mont-Saint-André Chemin n°9 Rue du Gestiaux</desc>
<link href="https://chemins.be/montsaintandre/chemin/9"/><trkseg>
<trkpt lat="50.659355" lon="4.848323"><time>2026-05-09T19:29:31Z</time></trkpt>
<trkpt lat="50.661028" lon="4.847165"><time>2026-05-09T19:39:31Z</time></trkpt>
<trkpt lat="50.662264" lon="4.846920"><time>2026-05-09T19:49:31Z</time></trkpt>
</trkseg></trk>
<trk>
<name>brmma9</name>
<cmt>v</cmt>
<desc>Mont-Saint-André Chemin n°9 Rue du Gestiaux</desc>
<link href="https://chemins.be/montsaintandre/chemin/9"/><trkseg>
<trkpt lat="50.662264" lon="4.846920"><time>2026-05-09T19:49:31Z</time></trkpt>
<trkpt lat="50.662760" lon="4.846821"><time>2026-05-09T19:59:31Z</time></trkpt>
</trkseg>
</trk>
<trk>
<name>brmmai1</name>
<cmt>q</cmt>
<desc>Mont-Saint-André Sentier n°i1 </desc>
<link href="https://chemins.be/montsaintandre/sentier/i1"/><trkseg>
<trkpt lat="50.655680" lon="4.870521"><time>2026-05-09T18:39:31Z</time></trkpt>
<trkpt lat="50.657559" lon="4.868405"><time>2026-05-09T18:49:31Z</time></trkpt>
</trkseg>
</trk>
<trk>
<name>brmmai2</name>
<cmt>v</cmt>
<desc>Mont-Saint-André Sentier n°i2 </desc>
<link href="https://chemins.be/montsaintandre/sentier/i2"/><trkseg>
<trkpt lat="50.657665" lon="4.868122"><time>2026-05-09T18:39:31Z</time></trkpt>
<trkpt lat="50.657530" lon="4.868350"><time>2026-05-09T18:49:31Z</time></trkpt>
</trkseg>
</trk>
<trk>
<name>brmmap1</name>
<cmt>r</cmt>
<desc>Mont-Saint-André Chemin particulier n°p1 Rue Petite Coyarde</desc>
<link href="https://chemins.be/montsaintandre/chemin/p1"/><trkseg>
<trkpt lat="50.657250" lon="4.865569"><time>2026-05-09T18:39:31Z</time></trkpt>
<trkpt lat="50.656285" lon="4.866814"><time>2026-05-09T18:49:31Z</time></trkpt>
</trkseg>
</trk>
<trk>
<name>brmpr1</name>
<cmt>d</cmt>
<desc>Petit-Rosière Chemin n°1 Rue Albert Poupé / Rue Eudore Detry</desc>
<link href="https://chemins.be/petitrosiere/chemin/1"/><trkseg>
<trkpt lat="50.661404" lon="4.888058"><time>2026-05-09T18:39:31Z</time></trkpt>
<trkpt lat="50.660846" lon="4.887714"><time>2026-05-09T18:49:31Z</time></trkpt>
<trkpt lat="50.657813" lon="4.886083"><time>2026-05-09T18:59:31Z</time></trkpt>
<trkpt lat="50.655448" lon="4.884091"><time>2026-05-09T19:09:31Z</time></trkpt>
</trkseg></trk>
<trk>
<name>brmpr1</name>
<cmt>r</cmt>
<desc>Petit-Rosière Chemin n°1 Rue Albert Poupé / Rue Eudore Detry</desc>
<link href="https://chemins.be/petitrosiere/chemin/1"/><trkseg>
<trkpt lat="50.655448" lon="4.884091"><time>2026-05-09T19:09:31Z</time></trkpt>
<trkpt lat="50.654614" lon="4.883333"><time>2026-05-09T19:19:31Z</time></trkpt>
<trkpt lat="50.651796" lon="4.879501"><time>2026-05-09T19:29:31Z</time></trkpt>
<trkpt lat="50.650586" lon="4.876470"><time>2026-05-09T19:39:31Z</time></trkpt>
<trkpt lat="50.649916" lon="4.875403"><time>2026-05-09T19:49:31Z</time></trkpt>
<trkpt lat="50.650256" lon="4.873660"><time>2026-05-09T19:59:31Z</time></trkpt>
<trkpt lat="50.650241" lon="4.873164"><time>2026-05-09T20:09:31Z</time></trkpt>
<trkpt lat="50.649506" lon="4.871130"><time>2026-05-09T20:19:31Z</time></trkpt>
<trkpt lat="50.647996" lon="4.868080"><time>2026-05-09T20:29:31Z</time></trkpt>
</trkseg></trk>
<trk>
<name>brmpr1</name>
<cmt>v</cmt>
<desc>Petit-Rosière Chemin n°1 Rue Albert Poupé / Rue Eudore Detry</desc>
<link href="https://chemins.be/petitrosiere/chemin/1"/><trkseg>
<trkpt lat="50.647996" lon="4.868080"><time>2026-05-09T20:29:31Z</time></trkpt>
<trkpt lat="50.648006" lon="4.868080"><time>2026-05-09T20:39:31Z</time></trkpt>
<trkpt lat="50.647746" lon="4.866600"><time>2026-05-09T20:49:31Z</time></trkpt>
<trkpt lat="50.647736" lon="4.865850"><time>2026-05-09T20:59:31Z</time></trkpt>
<trkpt lat="50.647406" lon="4.864910"><time>2026-05-09T21:09:31Z</time></trkpt>
<trkpt lat="50.647016" lon="4.864160"><time>2026-05-09T21:19:31Z</time></trkpt>
<trkpt lat="50.646726" lon="4.861840"><time>2026-05-09T21:29:31Z</time></trkpt>
<trkpt lat="50.646236" lon="4.859990"><time>2026-05-09T21:39:31Z</time></trkpt>
<trkpt lat="50.645676" lon="4.858140"><time>2026-05-09T21:49:31Z</time></trkpt>
</trkseg></trk>
<trk>
<name>brmpr1</name>
<cmt>s</cmt>
<desc>Petit-Rosière Chemin n°1 Rue Albert Poupé / Rue Eudore Detry</desc>
<link href="https://chemins.be/petitrosiere/chemin/1"/><trkseg>
<trkpt lat="50.645676" lon="4.858140"><time>2026-05-09T21:49:31Z</time></trkpt>
<trkpt lat="50.645696" lon="4.858140"><time>2026-05-09T21:59:31Z</time></trkpt>
<trkpt lat="50.645546" lon="4.856240"><time>2026-05-09T22:09:31Z</time></trkpt>
<trkpt lat="50.645966" lon="4.854010"><time>2026-05-09T22:19:31Z</time></trkpt>
<trkpt lat="50.646096" lon="4.852580"><time>2026-05-09T22:29:31Z</time></trkpt>
</trkseg>
</trk>
<trk>
<name>brmpr10</name>
<cmt>v</cmt>
<desc>Petit-Rosière Chemin n°10 Rue Gilbert Detry / Rue Albert Goossens</desc>
<link href="https://chemins.be/petitrosiere/chemin/10"/><trkseg>
<trkpt lat="50.647194" lon="4.892707"><time>2026-05-09T18:39:31Z</time></trkpt>
<trkpt lat="50.646724" lon="4.890888"><time>2026-05-09T18:49:31Z</time></trkpt>
<trkpt lat="50.646161" lon="4.888281"><time>2026-05-09T18:59:31Z</time></trkpt>
<trkpt lat="50.645259" lon="4.886786"><time>2026-05-09T19:09:31Z</time></trkpt>
</trkseg></trk>
<trk>
<name>brmpr10</name>
<cmt>r</cmt>
<desc>Petit-Rosière Chemin n°10 Rue Gilbert Detry / Rue Albert Goossens</desc>
<link href="https://chemins.be/petitrosiere/chemin/10"/><trkseg>
<trkpt lat="50.645259" lon="4.886786"><time>2026-05-09T19:09:31Z</time></trkpt>
<trkpt lat="50.644878" lon="4.884941"><time>2026-05-09T19:19:31Z</time></trkpt>
<trkpt lat="50.643833" lon="4.882339"><time>2026-05-09T19:29:31Z</time></trkpt>
<trkpt lat="50.642574" lon="4.877560"><time>2026-05-09T19:39:31Z</time></trkpt>
<trkpt lat="50.642583" lon="4.876787"><time>2026-05-09T19:49:31Z</time></trkpt>
<trkpt lat="50.643191" lon="4.876336"><time>2026-05-09T19:59:31Z</time></trkpt>
<trkpt lat="50.643049" lon="4.876106"><time>2026-05-09T20:09:31Z</time></trkpt>
<trkpt lat="50.641861" lon="4.873933"><time>2026-05-09T20:19:31Z</time></trkpt>
<trkpt lat="50.640283" lon="4.872721"><time>2026-05-09T20:29:31Z</time></trkpt>
<trkpt lat="50.639364" lon="4.872077"><time>2026-05-09T20:39:31Z</time></trkpt>
<trkpt lat="50.639187" lon="4.870779"><time>2026-05-09T20:49:31Z</time></trkpt>
<trkpt lat="50.639187" lon="4.869910"><time>2026-05-09T20:59:31Z</time></trkpt>
</trkseg></trk>
<trk>
<name>brmpr10</name>
<cmt>v</cmt>
<desc>Petit-Rosière Chemin n°10 Rue Gilbert Detry / Rue Albert Goossens</desc>
<link href="https://chemins.be/petitrosiere/chemin/10"/><trkseg>
<trkpt lat="50.639187" lon="4.869910"><time>2026-05-09T20:59:31Z</time></trkpt>
<trkpt lat="50.639231" lon="4.868003"><time>2026-05-09T21:09:31Z</time></trkpt>
<trkpt lat="50.639283" lon="4.867613"><time>2026-05-09T21:19:31Z</time></trkpt>
<trkpt lat="50.640741" lon="4.863263"><time>2026-05-09T21:29:31Z</time></trkpt>
</trkseg></trk>
<trk>
<name>brmpr10</name>
<cmt>s</cmt>
<desc>Petit-Rosière Chemin n°10 Rue Gilbert Detry / Rue Albert Goossens</desc>
<link href="https://chemins.be/petitrosiere/chemin/10"/><trkseg>
<trkpt lat="50.640741" lon="4.863263"><time>2026-05-09T21:29:31Z</time></trkpt>
<trkpt lat="50.641605" lon="4.862472"><time>2026-05-09T21:39:31Z</time></trkpt>
</trkseg>
</trk>
<trk>
<name>brmpr11</name>
<cmt>v</cmt>
<desc>Petit-Rosière Chemin n°11 Rue Louis Delvaux</desc>
<link href="https://chemins.be/petitrosiere/chemin/11"/><trkseg>
<trkpt lat="50.643667" lon="4.860411"><time>2026-05-09T18:39:31Z</time></trkpt>
<trkpt lat="50.644043" lon="4.860910"><time>2026-05-09T18:49:31Z</time></trkpt>
<trkpt lat="50.644093" lon="4.861773"><time>2026-05-09T18:59:31Z</time></trkpt>
</trkseg>
</trk>
<trk>
<name>brmpr15</name>
<cmt>r</cmt>
<desc>Petit-Rosière Chemin n°15 Rue Louis Delvaux</desc>
<link href="https://chemins.be/petitrosiere/chemin/15"/><trkseg>
<trkpt lat="50.642720" lon="4.861066"><time>2026-05-09T18:39:31Z</time></trkpt>
<trkpt lat="50.642453" lon="4.860427"><time>2026-05-09T18:49:31Z</time></trkpt>
</trkseg>
</trk>
<trk>
<name>brmpr16</name>
<cmt>r</cmt>
<desc>Petit-Rosière Chemin n°16 Rue des Communes</desc>
<link href="https://chemins.be/petitrosiere/chemin/16"/><trkseg>
<trkpt lat="50.634231" lon="4.848778"><time>2026-05-09T18:39:31Z</time></trkpt>
<trkpt lat="50.633780" lon="4.846823"><time>2026-05-09T18:49:31Z</time></trkpt>
<trkpt lat="50.633473" lon="4.845151"><time>2026-05-09T18:59:31Z</time></trkpt>
<trkpt lat="50.633295" lon="4.844556"><time>2026-05-09T19:09:31Z</time></trkpt>
<trkpt lat="50.631399" lon="4.839957"><time>2026-05-09T19:19:31Z</time></trkpt>
<trkpt lat="50.630873" lon="4.838807"><time>2026-05-09T19:29:31Z</time></trkpt>
</trkseg>
</trk>
<trk>
<name>brmpr17</name>
<cmt>v</cmt>
<desc>Petit-Rosière Chemin n°17 </desc>
<link href="https://chemins.be/petitrosiere/chemin/17"/><trkseg>
<trkpt lat="50.642626" lon="4.889030"><time>2026-05-09T18:39:31Z</time></trkpt>
<trkpt lat="50.643732" lon="4.888859"><time>2026-05-09T18:49:31Z</time></trkpt>
<trkpt lat="50.644556" lon="4.888605"><time>2026-05-09T18:59:31Z</time></trkpt>
<trkpt lat="50.646153" lon="4.888204"><time>2026-05-09T19:09:31Z</time></trkpt>
<trkpt lat="50.648067" lon="4.888405"><time>2026-05-09T19:19:31Z</time></trkpt>
<trkpt lat="50.648892" lon="4.888090"><time>2026-05-09T19:29:31Z</time></trkpt>
</trkseg></trk>
<trk>
<name>brmpr17</name>
<cmt>r</cmt>
<desc>Petit-Rosière Chemin n°17 </desc>
<link href="https://chemins.be/petitrosiere/chemin/17"/><trkseg>
<trkpt lat="50.648892" lon="4.888090"><time>2026-05-09T19:29:31Z</time></trkpt>
<trkpt lat="50.650679" lon="4.887328"><time>2026-05-09T19:39:31Z</time></trkpt>
<trkpt lat="50.653499" lon="4.886126"><time>2026-05-09T19:49:31Z</time></trkpt>
<trkpt lat="50.655404" lon="4.884195"><time>2026-05-09T19:59:31Z</time></trkpt>
</trkseg>
</trk>
<trk>
<name>brmpr18</name>
<cmt>v</cmt>
<desc>Petit-Rosière Chemin n°18 </desc>
<link href="https://chemins.be/petitrosiere/chemin/18"/><trkseg>
<trkpt lat="50.650067" lon="4.881637"><time>2026-05-09T18:39:31Z</time></trkpt>
<trkpt lat="50.651720" lon="4.882662"><time>2026-05-09T18:49:31Z</time></trkpt>
<trkpt lat="50.652496" lon="4.883021"><time>2026-05-09T18:59:31Z</time></trkpt>
<trkpt lat="50.654002" lon="4.883101"><time>2026-05-09T19:09:31Z</time></trkpt>
<trkpt lat="50.654583" lon="4.883345"><time>2026-05-09T19:19:31Z</time></trkpt>
</trkseg>
</trk>
<trk>
<name>brmpr19</name>
<cmt>v</cmt>
<desc>Petit-Rosière Chemin n°19 </desc>
<link href="https://chemins.be/petitrosiere/chemin/19"/><trkseg>
<trkpt lat="50.649288" lon="4.873654"><time>2026-05-09T18:39:31Z</time></trkpt>
<trkpt lat="50.649106" lon="4.873321"><time>2026-05-09T18:49:31Z</time></trkpt>
</trkseg></trk>
<trk>
<name>brmpr19</name>
<cmt>b</cmt>
<desc>Petit-Rosière Chemin n°19 </desc>
<link href="https://chemins.be/petitrosiere/chemin/19"/><trkseg>
<trkpt lat="50.649106" lon="4.873321"><time>2026-05-09T18:49:31Z</time></trkpt>
<trkpt lat="50.648925" lon="4.872990"><time>2026-05-09T18:59:31Z</time></trkpt>
</trkseg>
</trk>
<trk>
<name>brmpr21</name>
<cmt>v</cmt>
<desc>Petit-Rosière Chemin n°21 </desc>
<link href="https://chemins.be/petitrosiere/chemin/21"/><trkseg>
<trkpt lat="50.645246" lon="4.875981"><time>2026-05-09T18:39:31Z</time></trkpt>
<trkpt lat="50.644730" lon="4.875877"><time>2026-05-09T18:49:31Z</time></trkpt>
<trkpt lat="50.644570" lon="4.875990"><time>2026-05-09T18:59:31Z</time></trkpt>
</trkseg>
</trk>
<trk>
<name>brmpr24</name>
<cmt>r</cmt>
<desc>Petit-Rosière Chemin n°24 Rue au Delà des Cortils</desc>
<link href="https://chemins.be/petitrosiere/chemin/24"/><trkseg>
<trkpt lat="50.643294" lon="4.888209"><time>2026-05-09T18:39:31Z</time></trkpt>
<trkpt lat="50.643173" lon="4.887510"><time>2026-05-09T18:49:31Z</time></trkpt>
<trkpt lat="50.643168" lon="4.884728"><time>2026-05-09T18:59:31Z</time></trkpt>
<trkpt lat="50.642851" lon="4.884624"><time>2026-05-09T19:09:31Z</time></trkpt>
<trkpt lat="50.642468" lon="4.884498"><time>2026-05-09T19:19:31Z</time></trkpt>
</trkseg>
</trk>
<trk>
<name>brmpr25</name>
<cmt>v</cmt>
<desc>Petit-Rosière Chemin n°25 Rue de la Station</desc>
<link href="https://chemins.be/petitrosiere/chemin/25"/><trkseg>
<trkpt lat="50.645243" lon="4.886761"><time>2026-05-09T18:39:31Z</time></trkpt>
<trkpt lat="50.644506" lon="4.888591"><time>2026-05-09T18:49:31Z</time></trkpt>
<trkpt lat="50.643966" lon="4.890041"><time>2026-05-09T18:59:31Z</time></trkpt>
<trkpt lat="50.643036" lon="4.891641"><time>2026-05-09T19:09:31Z</time></trkpt>
<trkpt lat="50.642696" lon="4.892449"><time>2026-05-09T19:19:31Z</time></trkpt>
<trkpt lat="50.642719" lon="4.892744"><time>2026-05-09T19:29:31Z</time></trkpt>
<trkpt lat="50.642426" lon="4.894331"><time>2026-05-09T19:39:31Z</time></trkpt>
<trkpt lat="50.641636" lon="4.896741"><time>2026-05-09T19:49:31Z</time></trkpt>
<trkpt lat="50.640916" lon="4.900012"><time>2026-05-09T19:59:31Z</time></trkpt>
</trkseg>
</trk>
<trk>
<name>brmpr26</name>
<cmt>d</cmt>
<desc>Petit-Rosière Chemin n°26 </desc>
<link href="https://chemins.be/petitrosiere/chemin/26"/><trkseg>
<trkpt lat="50.655426" lon="4.884096"><time>2026-05-09T18:39:31Z</time></trkpt>
<trkpt lat="50.655025" lon="4.878045"><time>2026-05-09T18:49:31Z</time></trkpt>
<trkpt lat="50.655385" lon="4.874901"><time>2026-05-09T18:59:31Z</time></trkpt>
</trkseg>
</trk>
<trk>
<name>brmpr28</name>
<cmt>v</cmt>
<desc>Petit-Rosière Chemin n°28 </desc>
<link href="https://chemins.be/petitrosiere/chemin/28"/><trkseg>
<trkpt lat="50.648887" lon="4.873126"><time>2026-05-09T18:39:31Z</time></trkpt>
<trkpt lat="50.648822" lon="4.873642"><time>2026-05-09T18:49:31Z</time></trkpt>
<trkpt lat="50.648768" lon="4.874112"><time>2026-05-09T18:59:31Z</time></trkpt>
<trkpt lat="50.648962" lon="4.874449"><time>2026-05-09T19:09:31Z</time></trkpt>
</trkseg>
</trk>
<trk>
<name>brmpr29</name>
<cmt>q</cmt>
<desc>Petit-Rosière Sentier n°29 </desc>
<link href="https://chemins.be/petitrosiere/sentier/29"/><trkseg>
<trkpt lat="50.650082" lon="4.840676"><time>2026-05-09T18:39:31Z</time></trkpt>
<trkpt lat="50.647869" lon="4.843980"><time>2026-05-09T18:49:31Z</time></trkpt>
<trkpt lat="50.646608" lon="4.844609"><time>2026-05-09T18:59:31Z</time></trkpt>
<trkpt lat="50.646245" lon="4.845067"><time>2026-05-09T19:09:31Z</time></trkpt>
<trkpt lat="50.646070" lon="4.847450"><time>2026-05-09T19:19:31Z</time></trkpt>
<trkpt lat="50.646136" lon="4.851243"><time>2026-05-09T19:29:31Z</time></trkpt>
</trkseg>
</trk>
<trk>
<name>brmpr30</name>
<cmt>q</cmt>
<desc>Petit-Rosière Sentier n°30 </desc>
<link href="https://chemins.be/petitrosiere/sentier/30"/><trkseg>
<trkpt lat="50.643618" lon="4.849447"><time>2026-05-09T18:39:31Z</time></trkpt>
<trkpt lat="50.644784" lon="4.850070"><time>2026-05-09T18:49:31Z</time></trkpt>
</trkseg>
</trk>
<trk>
<name>brmpr31</name>
<cmt>s</cmt>
<desc>Petit-Rosière Sentier n°31 </desc>
<link href="https://chemins.be/petitrosiere/sentier/31"/><trkseg>
<trkpt lat="50.646890" lon="4.863499"><time>2026-05-09T18:39:31Z</time></trkpt>
<trkpt lat="50.645384" lon="4.860542"><time>2026-05-09T18:49:31Z</time></trkpt>
<trkpt lat="50.645089" lon="4.859945"><time>2026-05-09T18:59:31Z</time></trkpt>
<trkpt lat="50.644384" lon="4.858807"><time>2026-05-09T19:09:31Z</time></trkpt>
<trkpt lat="50.643945" lon="4.858392"><time>2026-05-09T19:19:31Z</time></trkpt>
<trkpt lat="50.643500" lon="4.854678"><time>2026-05-09T19:29:31Z</time></trkpt>
<trkpt lat="50.643216" lon="4.849906"><time>2026-05-09T19:39:31Z</time></trkpt>
</trkseg></trk>
<trk>
<name>brmpr31</name>
<cmt>d</cmt>
<desc>Petit-Rosière Sentier n°31 </desc>
<link href="https://chemins.be/petitrosiere/sentier/31"/><trkseg>
<trkpt lat="50.643216" lon="4.849906"><time>2026-05-09T19:39:31Z</time></trkpt>
<trkpt lat="50.642086" lon="4.847510"><time>2026-05-09T19:49:31Z</time></trkpt>
<trkpt lat="50.641888" lon="4.847091"><time>2026-05-09T19:59:31Z</time></trkpt>
<trkpt lat="50.638122" lon="4.837478"><time>2026-05-09T20:09:31Z</time></trkpt>
</trkseg>
</trk>
<trk>
<name>brmpr32</name>
<cmt>s</cmt>
<desc>Petit-Rosière Sentier n°32 </desc>
<link href="https://chemins.be/petitrosiere/sentier/32"/><trkseg>
<trkpt lat="50.643770" lon="4.857188"><time>2026-05-09T18:39:31Z</time></trkpt>
<trkpt lat="50.642303" lon="4.855491"><time>2026-05-09T18:49:31Z</time></trkpt>
</trkseg></trk>
<trk>
<name>brmpr32</name>
<cmt>q</cmt>
<desc>Petit-Rosière Sentier n°32 </desc>
<link href="https://chemins.be/petitrosiere/sentier/32"/><trkseg>
<trkpt lat="50.642303" lon="4.855491"><time>2026-05-09T18:49:31Z</time></trkpt>
<trkpt lat="50.641027" lon="4.851180"><time>2026-05-09T18:59:31Z</time></trkpt>
<trkpt lat="50.641967" lon="4.847556"><time>2026-05-09T19:09:31Z</time></trkpt>
<trkpt lat="50.642277" lon="4.844406"><time>2026-05-09T19:19:31Z</time></trkpt>
</trkseg>
</trk>
<trk>
<name>brmpr33</name>
<cmt>q</cmt>
<desc>Petit-Rosière Sentier n°33 </desc>
<link href="https://chemins.be/petitrosiere/sentier/33"/><trkseg>
<trkpt lat="50.636909" lon="4.852075"><time>2026-05-09T18:39:31Z</time></trkpt>
<trkpt lat="50.637098" lon="4.851129"><time>2026-05-09T18:49:31Z</time></trkpt>
<trkpt lat="50.636975" lon="4.850422"><time>2026-05-09T18:59:31Z</time></trkpt>
<trkpt lat="50.636944" lon="4.848152"><time>2026-05-09T19:09:31Z</time></trkpt>
<trkpt lat="50.636209" lon="4.846157"><time>2026-05-09T19:19:31Z</time></trkpt>
<trkpt lat="50.636188" lon="4.845314"><time>2026-05-09T19:29:31Z</time></trkpt>
<trkpt lat="50.635175" lon="4.843653"><time>2026-05-09T19:39:31Z</time></trkpt>
<trkpt lat="50.634853" lon="4.842485"><time>2026-05-09T19:49:31Z</time></trkpt>
<trkpt lat="50.633971" lon="4.840324"><time>2026-05-09T19:59:31Z</time></trkpt>
</trkseg>
</trk>
<trk>
<name>brmpr34</name>
<cmt>q</cmt>
<desc>Petit-Rosière Sentier n°34 </desc>
<link href="https://chemins.be/petitrosiere/sentier/34"/><trkseg>
<trkpt lat="50.636239" lon="4.850591"><time>2026-05-09T18:39:31Z</time></trkpt>
<trkpt lat="50.633648" lon="4.845704"><time>2026-05-09T18:49:31Z</time></trkpt>
</trkseg>
</trk>
<trk>
<name>brmpr35</name>
<cmt>d</cmt>
<desc>Petit-Rosière Sentier n°35 Rue du Tombois</desc>
<link href="https://chemins.be/petitrosiere/sentier/35"/><trkseg>
<trkpt lat="50.639368" lon="4.853656"><time>2026-05-09T18:39:31Z</time></trkpt>
<trkpt lat="50.638980" lon="4.854214"><time>2026-05-09T18:49:31Z</time></trkpt>
</trkseg></trk>
<trk>
<name>brmpr35</name>
<cmt>q</cmt>
<desc>Petit-Rosière Sentier n°35 Rue du Tombois</desc>
<link href="https://chemins.be/petitrosiere/sentier/35"/><trkseg>
<trkpt lat="50.638980" lon="4.854214"><time>2026-05-09T18:49:31Z</time></trkpt>
<trkpt lat="50.638272" lon="4.854889"><time>2026-05-09T18:59:31Z</time></trkpt>
</trkseg></trk>
<trk>
<name>brmpr35</name>
<cmt>s</cmt>
<desc>Petit-Rosière Sentier n°35 Rue du Tombois</desc>
<link href="https://chemins.be/petitrosiere/sentier/35"/><trkseg>
<trkpt lat="50.638272" lon="4.854889"><time>2026-05-09T18:59:31Z</time></trkpt>
<trkpt lat="50.636865" lon="4.855410"><time>2026-05-09T19:09:31Z</time></trkpt>
</trkseg></trk>
<trk>
<name>brmpr35</name>
<cmt>r</cmt>
<desc>Petit-Rosière Sentier n°35 Rue du Tombois</desc>
<link href="https://chemins.be/petitrosiere/sentier/35"/><trkseg>
<trkpt lat="50.636865" lon="4.855410"><time>2026-05-09T19:09:31Z</time></trkpt>
<trkpt lat="50.636405" lon="4.856230"><time>2026-05-09T19:19:31Z</time></trkpt>
</trkseg></trk>
<trk>
<name>brmpr35</name>
<cmt>q</cmt>
<desc>Petit-Rosière Sentier n°35 Rue du Tombois</desc>
<link href="https://chemins.be/petitrosiere/sentier/35"/><trkseg>
<trkpt lat="50.636405" lon="4.856230"><time>2026-05-09T19:19:31Z</time></trkpt>
<trkpt lat="50.636405" lon="4.856220"><time>2026-05-09T19:29:31Z</time></trkpt>
<trkpt lat="50.635304" lon="4.858258"><time>2026-05-09T19:39:31Z</time></trkpt>
<trkpt lat="50.634790" lon="4.859180"><time>2026-05-09T19:49:31Z</time></trkpt>
</trkseg>
</trk>
<trk>
<name>brmpr36</name>
<cmt>q</cmt>
<desc>Petit-Rosière Sentier n°36 </desc>
<link href="https://chemins.be/petitrosiere/sentier/36"/><trkseg>
<trkpt lat="50.637517" lon="4.853848"><time>2026-05-09T18:39:31Z</time></trkpt>
<trkpt lat="50.638287" lon="4.854898"><time>2026-05-09T18:49:31Z</time></trkpt>
<trkpt lat="50.638106" lon="4.855193"><time>2026-05-09T18:59:31Z</time></trkpt>
<trkpt lat="50.639142" lon="4.856801"><time>2026-05-09T19:09:31Z</time></trkpt>
</trkseg>
</trk>
<trk>
<name>brmpr37</name>
<cmt>q</cmt>
<desc>Petit-Rosière Sentier n°37 </desc>
<link href="https://chemins.be/petitrosiere/sentier/37"/><trkseg>
<trkpt lat="50.638227" lon="4.858417"><time>2026-05-09T18:39:31Z</time></trkpt>
<trkpt lat="50.639151" lon="4.856801"><time>2026-05-09T18:49:31Z</time></trkpt>
<trkpt lat="50.639485" lon="4.856451"><time>2026-05-09T18:59:31Z</time></trkpt>
<trkpt lat="50.639818" lon="4.856114"><time>2026-05-09T19:09:31Z</time></trkpt>
</trkseg></trk>
<trk>
<name>brmpr37</name>
<cmt>b</cmt>
<desc>Petit-Rosière Sentier n°37 </desc>
<link href="https://chemins.be/petitrosiere/sentier/37"/><trkseg>
<trkpt lat="50.639818" lon="4.856114"><time>2026-05-09T19:09:31Z</time></trkpt>
<trkpt lat="50.640217" lon="4.855710"><time>2026-05-09T19:19:31Z</time></trkpt>
</trkseg>
</trk>
<trk>
<name>brmpr38</name>
<cmt>v</cmt>
<desc>Petit-Rosière Sentier n°38 </desc>
<link href="https://chemins.be/petitrosiere/sentier/38"/><trkseg>
<trkpt lat="50.640683" lon="4.853735"><time>2026-05-09T18:39:31Z</time></trkpt>
<trkpt lat="50.640196" lon="4.854253"><time>2026-05-09T18:49:31Z</time></trkpt>
<trkpt lat="50.639799" lon="4.854546"><time>2026-05-09T18:59:31Z</time></trkpt>
</trkseg>
</trk>
<trk>
<name>brmpr39</name>
<cmt>d</cmt>
<desc>Petit-Rosière Sentier n°39 </desc>
<link href="https://chemins.be/petitrosiere/sentier/39"/><trkseg>
<trkpt lat="50.640211" lon="4.852825"><time>2026-05-09T18:39:31Z</time></trkpt>
<trkpt lat="50.639903" lon="4.853289"><time>2026-05-09T18:49:31Z</time></trkpt>
<trkpt lat="50.639451" lon="4.853779"><time>2026-05-09T18:59:31Z</time></trkpt>
</trkseg>
</trk>
<trk>
<name>brmpr4</name>
<cmt>r</cmt>
<desc>Petit-Rosière Chemin n°4 </desc>
<link href="https://chemins.be/petitrosiere/chemin/4"/><trkseg>
<trkpt lat="50.635975" lon="4.855298"><time>2026-05-09T18:39:31Z</time></trkpt>
<trkpt lat="50.635008" lon="4.854228"><time>2026-05-09T18:49:31Z</time></trkpt>
</trkseg>
</trk>
<trk>
<name>brmpr40</name>
<cmt>s</cmt>
<desc>Petit-Rosière Sentier n°40 </desc>
<link href="https://chemins.be/petitrosiere/sentier/40"/><trkseg>
<trkpt lat="50.644111" lon="4.861716"><time>2026-05-09T18:39:31Z</time></trkpt>
<trkpt lat="50.644796" lon="4.861313"><time>2026-05-09T18:49:31Z</time></trkpt>
<trkpt lat="50.646285" lon="4.860028"><time>2026-05-09T18:59:31Z</time></trkpt>
</trkseg>
</trk>
<trk>
<name>brmpr41</name>
<cmt>s</cmt>
<desc>Petit-Rosière Sentier n°41 </desc>
<link href="https://chemins.be/petitrosiere/sentier/41"/><trkseg>
<trkpt lat="50.644831" lon="4.861359"><time>2026-05-09T18:39:31Z</time></trkpt>
<trkpt lat="50.646750" lon="4.861971"><time>2026-05-09T18:49:31Z</time></trkpt>
</trkseg>
</trk>
<trk>
<name>brmpr42</name>
<cmt>s</cmt>
<desc>Petit-Rosière Sentier n°42 </desc>
<link href="https://chemins.be/petitrosiere/sentier/42"/><trkseg>
<trkpt lat="50.642422" lon="4.861529"><time>2026-05-09T18:39:31Z</time></trkpt>
<trkpt lat="50.643786" lon="4.862095"><time>2026-05-09T18:49:31Z</time></trkpt>
<trkpt lat="50.644057" lon="4.861843"><time>2026-05-09T18:59:31Z</time></trkpt>
</trkseg>
</trk>
<trk>
<name>brmpr43</name>
<cmt>s</cmt>
<desc>Petit-Rosière Sentier n°43 </desc>
<link href="https://chemins.be/petitrosiere/sentier/43"/><trkseg>
<trkpt lat="50.643412" lon="4.861129"><time>2026-05-09T18:39:31Z</time></trkpt>
<trkpt lat="50.643257" lon="4.863941"><time>2026-05-09T18:49:31Z</time></trkpt>
<trkpt lat="50.643299" lon="4.864408"><time>2026-05-09T18:59:31Z</time></trkpt>
<trkpt lat="50.643662" lon="4.866259"><time>2026-05-09T19:09:31Z</time></trkpt>
<trkpt lat="50.643534" lon="4.866433"><time>2026-05-09T19:19:31Z</time></trkpt>
<trkpt lat="50.643118" lon="4.866965"><time>2026-05-09T19:29:31Z</time></trkpt>
<trkpt lat="50.642792" lon="4.867471"><time>2026-05-09T19:39:31Z</time></trkpt>
<trkpt lat="50.642429" lon="4.868279"><time>2026-05-09T19:49:31Z</time></trkpt>
</trkseg>
</trk>
<trk>
<name>brmpr43bis</name>
<cmt>d</cmt>
<desc>Petit-Rosière Sentier n°43bis </desc>
<link href="https://chemins.be/petitrosiere/sentier/43bis"/><trkseg>
<trkpt lat="50.641926" lon="4.866305"><time>2026-05-09T18:39:31Z</time></trkpt>
<trkpt lat="50.642790" lon="4.867464"><time>2026-05-09T18:49:31Z</time></trkpt>
</trkseg>
</trk>
<trk>
<name>brmpr44</name>
<cmt>q</cmt>
<desc>Petit-Rosière Sentier n°44 </desc>
<link href="https://chemins.be/petitrosiere/sentier/44"/><trkseg>
<trkpt lat="50.640281" lon="4.862397"><time>2026-05-09T18:39:31Z</time></trkpt>
<trkpt lat="50.638617" lon="4.863406"><time>2026-05-09T18:49:31Z</time></trkpt>
</trkseg>
</trk>
<trk>
<name>brmpr45</name>
<cmt>q</cmt>
<desc>Petit-Rosière Sentier n°45 </desc>
<link href="https://chemins.be/petitrosiere/sentier/45"/><trkseg>
<trkpt lat="50.639177" lon="4.863022"><time>2026-05-09T18:39:31Z</time></trkpt>
<trkpt lat="50.637381" lon="4.861359"><time>2026-05-09T18:49:31Z</time></trkpt>
<trkpt lat="50.636414" lon="4.861327"><time>2026-05-09T18:59:31Z</time></trkpt>
</trkseg>
</trk>
<trk>
<name>brmpr46</name>
<cmt>r</cmt>
<desc>Petit-Rosière Sentier n°46 Rue de l'Ermitage</desc>
<link href="https://chemins.be/petitrosiere/sentier/46"/><trkseg>
<trkpt lat="50.640264" lon="4.862359"><time>2026-05-09T18:39:31Z</time></trkpt>
<trkpt lat="50.638900" lon="4.860106"><time>2026-05-09T18:49:31Z</time></trkpt>
</trkseg></trk>
<trk>
<name>brmpr46</name>
<cmt>q</cmt>
<desc>Petit-Rosière Sentier n°46 Rue de l'Ermitage</desc>
<link href="https://chemins.be/petitrosiere/sentier/46"/><trkseg>
<trkpt lat="50.638900" lon="4.860106"><time>2026-05-09T18:49:31Z</time></trkpt>
<trkpt lat="50.639124" lon="4.859677"><time>2026-05-09T18:59:31Z</time></trkpt>
<trkpt lat="50.639083" lon="4.859618"><time>2026-05-09T19:09:31Z</time></trkpt>
</trkseg>
</trk>
<trk>
<name>brmpr47</name>
<cmt>s</cmt>
<desc>Petit-Rosière Sentier n°47 </desc>
<link href="https://chemins.be/petitrosiere/sentier/47"/><trkseg>
<trkpt lat="50.643426" lon="4.859821"><time>2026-05-09T18:39:31Z</time></trkpt>
<trkpt lat="50.642527" lon="4.860616"><time>2026-05-09T18:49:31Z</time></trkpt>
</trkseg>
</trk>
<trk>
<name>brmpr48</name>
<cmt>d</cmt>
<desc>Petit-Rosière Sentier n°48 </desc>
<link href="https://chemins.be/petitrosiere/sentier/48"/><trkseg>
<trkpt lat="50.647303" lon="4.878988"><time>2026-05-09T18:39:31Z</time></trkpt>
<trkpt lat="50.646334" lon="4.879712"><time>2026-05-09T18:49:31Z</time></trkpt>
<trkpt lat="50.646211" lon="4.879417"><time>2026-05-09T18:59:31Z</time></trkpt>
<trkpt lat="50.645258" lon="4.879142"><time>2026-05-09T19:09:31Z</time></trkpt>
<trkpt lat="50.643980" lon="4.878774"><time>2026-05-09T19:19:31Z</time></trkpt>
</trkseg>
</trk>
<trk>
<name>brmpr49</name>
<cmt>d</cmt>
<desc>Petit-Rosière Sentier n°49 </desc>
<link href="https://chemins.be/petitrosiere/sentier/49"/><trkseg>
<trkpt lat="50.644552" lon="4.877628"><time>2026-05-09T18:39:31Z</time></trkpt>
<trkpt lat="50.645080" lon="4.878401"><time>2026-05-09T18:49:31Z</time></trkpt>
<trkpt lat="50.645661" lon="4.879248"><time>2026-05-09T18:59:31Z</time></trkpt>
<trkpt lat="50.646205" lon="4.879409"><time>2026-05-09T19:09:31Z</time></trkpt>
<trkpt lat="50.646341" lon="4.879710"><time>2026-05-09T19:19:31Z</time></trkpt>
<trkpt lat="50.646646" lon="4.880541"><time>2026-05-09T19:29:31Z</time></trkpt>
</trkseg>
</trk>
<trk>
<name>brmpr5</name>
<cmt>r</cmt>
<desc>Petit-Rosière Chemin n°5 </desc>
<link href="https://chemins.be/petitrosiere/chemin/5"/><trkseg>
<trkpt lat="50.639885" lon="4.852241"><time>2026-05-09T18:39:31Z</time></trkpt>
<trkpt lat="50.640351" lon="4.851421"><time>2026-05-09T18:49:31Z</time></trkpt>
<trkpt lat="50.643171" lon="4.849962"><time>2026-05-09T18:59:31Z</time></trkpt>
<trkpt lat="50.644129" lon="4.848606"><time>2026-05-09T19:09:31Z</time></trkpt>
<trkpt lat="50.646809" lon="4.844035"><time>2026-05-09T19:19:31Z</time></trkpt>
</trkseg></trk>
<trk>
<name>brmpr5</name>
<cmt>s</cmt>
<desc>Petit-Rosière Chemin n°5 </desc>
<link href="https://chemins.be/petitrosiere/chemin/5"/><trkseg>
<trkpt lat="50.646809" lon="4.844035"><time>2026-05-09T19:19:31Z</time></trkpt>
<trkpt lat="50.647523" lon="4.836597"><time>2026-05-09T19:29:31Z</time></trkpt>
<trkpt lat="50.647626" lon="4.833403"><time>2026-05-09T19:39:31Z</time></trkpt>
</trkseg>
</trk>
<trk>
<name>brmpr50</name>
<cmt>v</cmt>
<desc>Petit-Rosière Sentier n°50 </desc>
<link href="https://chemins.be/petitrosiere/sentier/50"/><trkseg>
<trkpt lat="50.647206" lon="4.880191"><time>2026-05-09T18:39:31Z</time></trkpt>
<trkpt lat="50.646656" lon="4.880541"><time>2026-05-09T18:49:31Z</time></trkpt>
</trkseg></trk>
<trk>
<name>brmpr50</name>
<cmt>s</cmt>
<desc>Petit-Rosière Sentier n°50 </desc>
<link href="https://chemins.be/petitrosiere/sentier/50"/><trkseg>
<trkpt lat="50.646656" lon="4.880541"><time>2026-05-09T18:49:31Z</time></trkpt>
<trkpt lat="50.646536" lon="4.881281"><time>2026-05-09T18:59:31Z</time></trkpt>
<trkpt lat="50.646131" lon="4.881852"><time>2026-05-09T19:09:31Z</time></trkpt>
<trkpt lat="50.645366" lon="4.882861"><time>2026-05-09T19:19:31Z</time></trkpt>
<trkpt lat="50.645216" lon="4.884491"><time>2026-05-09T19:29:31Z</time></trkpt>
</trkseg>
</trk>
<trk>
<name>brmpr51</name>
<cmt>d</cmt>
<desc>Petit-Rosière Sentier n°51 </desc>
<link href="https://chemins.be/petitrosiere/sentier/51"/><trkseg>
<trkpt lat="50.644630" lon="4.884448"><time>2026-05-09T18:39:31Z</time></trkpt>
<trkpt lat="50.643681" lon="4.884705"><time>2026-05-09T18:49:31Z</time></trkpt>
<trkpt lat="50.643215" lon="4.884753"><time>2026-05-09T18:59:31Z</time></trkpt>
</trkseg>
</trk>
<trk>
<name>brmpr52</name>
<cmt>b</cmt>
<desc>Petit-Rosière Sentier n°52 </desc>
<link href="https://chemins.be/petitrosiere/sentier/52"/><trkseg>
<trkpt lat="50.645241" lon="4.886572"><time>2026-05-09T18:39:31Z</time></trkpt>
<trkpt lat="50.645574" lon="4.886150"><time>2026-05-09T18:49:31Z</time></trkpt>
</trkseg></trk>
<trk>
<name>brmpr52</name>
<cmt>d</cmt>
<desc>Petit-Rosière Sentier n°52 </desc>
<link href="https://chemins.be/petitrosiere/sentier/52"/><trkseg>
<trkpt lat="50.645574" lon="4.886150"><time>2026-05-09T18:49:31Z</time></trkpt>
<trkpt lat="50.646147" lon="4.884884"><time>2026-05-09T18:59:31Z</time></trkpt>
<trkpt lat="50.646960" lon="4.884168"><time>2026-05-09T19:09:31Z</time></trkpt>
<trkpt lat="50.648222" lon="4.883046"><time>2026-05-09T19:19:31Z</time></trkpt>
</trkseg></trk>
<trk>
<name>brmpr52</name>
<cmt>b</cmt>
<desc>Petit-Rosière Sentier n°52 </desc>
<link href="https://chemins.be/petitrosiere/sentier/52"/><trkseg>
<trkpt lat="50.648222" lon="4.883046"><time>2026-05-09T19:19:31Z</time></trkpt>
<trkpt lat="50.648477" lon="4.882655"><time>2026-05-09T19:29:31Z</time></trkpt>
<trkpt lat="50.648464" lon="4.881737"><time>2026-05-09T19:39:31Z</time></trkpt>
</trkseg>
</trk>
<trk>
<name>brmpr52bis</name>
<cmt>d</cmt>
<desc>Petit-Rosière Sentier n°52bis </desc>
<link href="https://chemins.be/petitrosiere/sentier/52bis"/><trkseg>
<trkpt lat="50.647954" lon="4.883252"><time>2026-05-09T18:39:31Z</time></trkpt>
<trkpt lat="50.648457" lon="4.883520"><time>2026-05-09T18:49:31Z</time></trkpt>
<trkpt lat="50.648967" lon="4.883070"><time>2026-05-09T18:59:31Z</time></trkpt>
<trkpt lat="50.650280" lon="4.881986"><time>2026-05-09T19:09:31Z</time></trkpt>
<trkpt lat="50.650301" lon="4.881830"><time>2026-05-09T19:19:31Z</time></trkpt>
</trkseg>
</trk>
<trk>
<name>brmpr53</name>
<cmt>q</cmt>
<desc>Petit-Rosière Sentier n°53 </desc>
<link href="https://chemins.be/petitrosiere/sentier/53"/><trkseg>
<trkpt lat="50.648476" lon="4.881753"><time>2026-05-09T18:39:31Z</time></trkpt>
<trkpt lat="50.648813" lon="4.882038"><time>2026-05-09T18:49:31Z</time></trkpt>
<trkpt lat="50.649202" lon="4.882877"><time>2026-05-09T18:59:31Z</time></trkpt>
</trkseg></trk>
<trk>
<name>brmpr53</name>
<cmt>d</cmt>
<desc>Petit-Rosière Sentier n°53 </desc>
<link href="https://chemins.be/petitrosiere/sentier/53"/><trkseg>
<trkpt lat="50.649202" lon="4.882877"><time>2026-05-09T18:59:31Z</time></trkpt>
<trkpt lat="50.649579" lon="4.883690"><time>2026-05-09T19:09:31Z</time></trkpt>
<trkpt lat="50.649953" lon="4.885596"><time>2026-05-09T19:19:31Z</time></trkpt>
</trkseg></trk>
<trk>
<name>brmpr53</name>
<cmt>v</cmt>
<desc>Petit-Rosière Sentier n°53 </desc>
<link href="https://chemins.be/petitrosiere/sentier/53"/><trkseg>
<trkpt lat="50.649953" lon="4.885596"><time>2026-05-09T19:19:31Z</time></trkpt>
<trkpt lat="50.650182" lon="4.887502"><time>2026-05-09T19:29:31Z</time></trkpt>
</trkseg></trk>
<trk>
<name>brmpr53</name>
<cmt>d</cmt>
<desc>Petit-Rosière Sentier n°53 </desc>
<link href="https://chemins.be/petitrosiere/sentier/53"/><trkseg>
<trkpt lat="50.650182" lon="4.887502"><time>2026-05-09T19:29:31Z</time></trkpt>
<trkpt lat="50.650794" lon="4.890016"><time>2026-05-09T19:39:31Z</time></trkpt>
</trkseg></trk>
<trk>
<name>brmpr53</name>
<cmt>q</cmt>
<desc>Petit-Rosière Sentier n°53 </desc>
<link href="https://chemins.be/petitrosiere/sentier/53"/><trkseg>
<trkpt lat="50.650794" lon="4.890016"><time>2026-05-09T19:39:31Z</time></trkpt>
<trkpt lat="50.651104" lon="4.891293"><time>2026-05-09T19:49:31Z</time></trkpt>
<trkpt lat="50.651531" lon="4.893047"><time>2026-05-09T19:59:31Z</time></trkpt>
</trkseg>
</trk>
<trk>
<name>brmpr54</name>
<cmt>d</cmt>
<desc>Petit-Rosière Sentier n°54 </desc>
<link href="https://chemins.be/petitrosiere/sentier/54"/><trkseg>
<trkpt lat="50.650290" lon="4.881997"><time>2026-05-09T18:39:31Z</time></trkpt>
<trkpt lat="50.650403" lon="4.887415"><time>2026-05-09T18:49:31Z</time></trkpt>
</trkseg>
</trk>
<trk>
<name>brmpr55</name>
<cmt>d</cmt>
<desc>Petit-Rosière Sentier n°55 </desc>
<link href="https://chemins.be/petitrosiere/sentier/55"/><trkseg>
<trkpt lat="50.661041" lon="4.887102"><time>2026-05-09T18:39:31Z</time></trkpt>
<trkpt lat="50.659785" lon="4.891299"><time>2026-05-09T18:49:31Z</time></trkpt>
</trkseg>
</trk>
<trk>
<name>brmpr56</name>
<cmt>d</cmt>
<desc>Petit-Rosière Sentier n°56 </desc>
<link href="https://chemins.be/petitrosiere/sentier/56"/><trkseg>
<trkpt lat="50.649676" lon="4.878191"><time>2026-05-09T18:39:31Z</time></trkpt>
<trkpt lat="50.650914" lon="4.879081"><time>2026-05-09T18:49:31Z</time></trkpt>
<trkpt lat="50.651747" lon="4.879398"><time>2026-05-09T18:59:31Z</time></trkpt>
</trkseg></trk>
<trk>
<name>brmpr56</name>
<cmt>s</cmt>
<desc>Petit-Rosière Sentier n°56 </desc>
<link href="https://chemins.be/petitrosiere/sentier/56"/><trkseg>
<trkpt lat="50.651747" lon="4.879398"><time>2026-05-09T18:59:31Z</time></trkpt>
<trkpt lat="50.653009" lon="4.879804"><time>2026-05-09T19:09:31Z</time></trkpt>
</trkseg></trk>
<trk>
<name>brmpr56</name>
<cmt>d</cmt>
<desc>Petit-Rosière Sentier n°56 </desc>
<link href="https://chemins.be/petitrosiere/sentier/56"/><trkseg>
<trkpt lat="50.653009" lon="4.879804"><time>2026-05-09T19:09:31Z</time></trkpt>
<trkpt lat="50.655056" lon="4.878074"><time>2026-05-09T19:19:31Z</time></trkpt>
<trkpt lat="50.656246" lon="4.876870"><time>2026-05-09T19:29:31Z</time></trkpt>
</trkseg>
</trk>
<trk>
<name>brmpr57</name>
<cmt>d</cmt>
<desc>Petit-Rosière Sentier n°57 </desc>
<link href="https://chemins.be/petitrosiere/sentier/57"/><trkseg>
<trkpt lat="50.648901" lon="4.879356"><time>2026-05-09T18:39:31Z</time></trkpt>
<trkpt lat="50.649299" lon="4.878938"><time>2026-05-09T18:49:31Z</time></trkpt>
<trkpt lat="50.649381" lon="4.878466"><time>2026-05-09T18:59:31Z</time></trkpt>
<trkpt lat="50.649656" lon="4.878181"><time>2026-05-09T19:09:31Z</time></trkpt>
<trkpt lat="50.650596" lon="4.876440"><time>2026-05-09T19:19:31Z</time></trkpt>
</trkseg></trk>
<trk>
<name>brmpr57</name>
<cmt>v</cmt>
<desc>Petit-Rosière Sentier n°57 </desc>
<link href="https://chemins.be/petitrosiere/sentier/57"/><trkseg>
<trkpt lat="50.650596" lon="4.876440"><time>2026-05-09T19:19:31Z</time></trkpt>
<trkpt lat="50.650994" lon="4.875868"><time>2026-05-09T19:29:31Z</time></trkpt>
<trkpt lat="50.651466" lon="4.875190"><time>2026-05-09T19:39:31Z</time></trkpt>
<trkpt lat="50.652156" lon="4.873700"><time>2026-05-09T19:49:31Z</time></trkpt>
<trkpt lat="50.652916" lon="4.872660"><time>2026-05-09T19:59:31Z</time></trkpt>
<trkpt lat="50.654026" lon="4.871760"><time>2026-05-09T20:09:31Z</time></trkpt>
</trkseg>
</trk>
<trk>
<name>brmpr58</name>
<cmt>b</cmt>
<desc>Petit-Rosière Sentier n°58 </desc>
<link href="https://chemins.be/petitrosiere/sentier/58"/><trkseg>
<trkpt lat="50.650764" lon="4.872053"><time>2026-05-09T18:39:31Z</time></trkpt>
<trkpt lat="50.652159" lon="4.871710"><time>2026-05-09T18:49:31Z</time></trkpt>
<trkpt lat="50.653451" lon="4.870852"><time>2026-05-09T18:59:31Z</time></trkpt>
</trkseg>
</trk>
<trk>
<name>brmpr59</name>
<cmt>b</cmt>
<desc>Petit-Rosière Sentier n°59 </desc>
<link href="https://chemins.be/petitrosiere/sentier/59"/><trkseg>
<trkpt lat="50.649427" lon="4.870709"><time>2026-05-09T18:39:31Z</time></trkpt>
<trkpt lat="50.649701" lon="4.870312"><time>2026-05-09T18:49:31Z</time></trkpt>
<trkpt lat="50.650124" lon="4.868774"><time>2026-05-09T18:59:31Z</time></trkpt>
<trkpt lat="50.650810" lon="4.867614"><time>2026-05-09T19:09:31Z</time></trkpt>
</trkseg>
</trk>
<trk>
<name>brmpr6</name>
<cmt>r</cmt>
<desc>Petit-Rosière Chemin n°6 </desc>
<link href="https://chemins.be/petitrosiere/chemin/6"/><trkseg>
<trkpt lat="50.636840" lon="4.852202"><time>2026-05-09T18:39:31Z</time></trkpt>
<trkpt lat="50.636887" lon="4.853286"><time>2026-05-09T18:49:31Z</time></trkpt>
<trkpt lat="50.636752" lon="4.854317"><time>2026-05-09T18:59:31Z</time></trkpt>
<trkpt lat="50.635989" lon="4.855378"><time>2026-05-09T19:09:31Z</time></trkpt>
</trkseg></trk>
<trk>
<name>brmpr6</name>
<cmt>v</cmt>
<desc>Petit-Rosière Chemin n°6 </desc>
<link href="https://chemins.be/petitrosiere/chemin/6"/><trkseg>
<trkpt lat="50.635989" lon="4.855378"><time>2026-05-09T19:09:31Z</time></trkpt>
<trkpt lat="50.633994" lon="4.858105"><time>2026-05-09T19:19:31Z</time></trkpt>
</trkseg>
</trk>
<trk>
<name>brmpr60</name>
<cmt>b</cmt>
<desc>Petit-Rosière Sentier n°60 </desc>
<link href="https://chemins.be/petitrosiere/sentier/60"/><trkseg>
<trkpt lat="50.647259" lon="4.880472"><time>2026-05-09T18:39:31Z</time></trkpt>
<trkpt lat="50.648060" lon="4.880073"><time>2026-05-09T18:49:31Z</time></trkpt>
</trkseg></trk>
<trk>
<name>brmpr60</name>
<cmt>v</cmt>
<desc>Petit-Rosière Sentier n°60 </desc>
<link href="https://chemins.be/petitrosiere/sentier/60"/><trkseg>
<trkpt lat="50.648060" lon="4.880073"><time>2026-05-09T18:49:31Z</time></trkpt>
<trkpt lat="50.648893" lon="4.879397"><time>2026-05-09T18:59:31Z</time></trkpt>
</trkseg>
</trk>
<trk>
<name>brmpr61</name>
<cmt>d</cmt>
<desc>Petit-Rosière Sentier n°61 </desc>
<link href="https://chemins.be/petitrosiere/sentier/61"/><trkseg>
<trkpt lat="50.650319" lon="4.873554"><time>2026-05-09T18:39:31Z</time></trkpt>
<trkpt lat="50.650721" lon="4.874557"><time>2026-05-09T18:49:31Z</time></trkpt>
<trkpt lat="50.650792" lon="4.874912"><time>2026-05-09T18:59:31Z</time></trkpt>
<trkpt lat="50.650765" lon="4.875448"><time>2026-05-09T19:09:31Z</time></trkpt>
<trkpt lat="50.651006" lon="4.875866"><time>2026-05-09T19:19:31Z</time></trkpt>
</trkseg>
</trk>
<trk>
<name>brmpr62</name>
<cmt>v</cmt>
<desc>Petit-Rosière Sentier n°62 </desc>
<link href="https://chemins.be/petitrosiere/sentier/62"/><trkseg>
<trkpt lat="50.644430" lon="4.876629"><time>2026-05-09T18:39:31Z</time></trkpt>
<trkpt lat="50.644270" lon="4.877058"><time>2026-05-09T18:49:31Z</time></trkpt>
</trkseg>
</trk>
<trk>
<name>brmpr62bis</name>
<cmt>r</cmt>
<desc>Petit-Rosière Sentier n°62bis Rue au Delà des Cortils</desc>
<link href="https://chemins.be/petitrosiere/sentier/62bis"/><trkseg>
<trkpt lat="50.642541" lon="4.877779"><time>2026-05-09T18:39:31Z</time></trkpt>
<trkpt lat="50.642299" lon="4.877940"><time>2026-05-09T18:49:31Z</time></trkpt>
<trkpt lat="50.642082" lon="4.878466"><time>2026-05-09T18:59:31Z</time></trkpt>
</trkseg>
</trk>
<trk>
<name>brmpr63</name>
<cmt>v</cmt>
<desc>Petit-Rosière Sentier n°63 </desc>
<link href="https://chemins.be/petitrosiere/sentier/63"/><trkseg>
<trkpt lat="50.648553" lon="4.873574"><time>2026-05-09T18:39:31Z</time></trkpt>
<trkpt lat="50.648795" lon="4.874169"><time>2026-05-09T18:49:31Z</time></trkpt>
</trkseg>
</trk>
<trk>
<name>brmpr64</name>
<cmt>d</cmt>
<desc>Petit-Rosière Sentier n°64 </desc>
<link href="https://chemins.be/petitrosiere/sentier/64"/><trkseg>
<trkpt lat="50.648952" lon="4.877813"><time>2026-05-09T18:39:31Z</time></trkpt>
<trkpt lat="50.648904" lon="4.876746"><time>2026-05-09T18:49:31Z</time></trkpt>
<trkpt lat="50.649129" lon="4.875163"><time>2026-05-09T18:59:31Z</time></trkpt>
</trkseg>
</trk>
<trk>
<name>brmpr65</name>
<cmt>q</cmt>
<desc>Petit-Rosière Sentier n°65 </desc>
<link href="https://chemins.be/petitrosiere/sentier/65"/><trkseg>
<trkpt lat="50.642287" lon="4.877905"><time>2026-05-09T18:39:31Z</time></trkpt>
<trkpt lat="50.641648" lon="4.877251"><time>2026-05-09T18:49:31Z</time></trkpt>
</trkseg>
</trk>
<trk>
<name>brmpr66</name>
<cmt>v</cmt>
<desc>Petit-Rosière Sentier n°66 </desc>
<link href="https://chemins.be/petitrosiere/sentier/66"/><trkseg>
<trkpt lat="50.649338" lon="4.872063"><time>2026-05-09T18:39:31Z</time></trkpt>
<trkpt lat="50.649514" lon="4.872600"><time>2026-05-09T18:49:31Z</time></trkpt>
<trkpt lat="50.649690" lon="4.873120"><time>2026-05-09T18:59:31Z</time></trkpt>
</trkseg>
</trk>
<trk>
<name>brmpr67</name>
<cmt>d</cmt>
<desc>Petit-Rosière Sentier n°67 </desc>
<link href="https://chemins.be/petitrosiere/sentier/67"/><trkseg>
<trkpt lat="50.649672" lon="4.878212"><time>2026-05-09T18:39:31Z</time></trkpt>
<trkpt lat="50.650468" lon="4.880669"><time>2026-05-09T18:49:31Z</time></trkpt>
<trkpt lat="50.650407" lon="4.881302"><time>2026-05-09T18:59:31Z</time></trkpt>
<trkpt lat="50.650543" lon="4.881930"><time>2026-05-09T19:09:31Z</time></trkpt>
</trkseg>
</trk>
<trk>
<name>brmpr9</name>
<cmt>v</cmt>
<desc>Petit-Rosière Chemin n°9 Rue Saint-Nicolas</desc>
<link href="https://chemins.be/petitrosiere/chemin/9"/><trkseg>
<trkpt lat="50.639469" lon="4.851612"><time>2026-05-09T18:39:31Z</time></trkpt>
<trkpt lat="50.639463" lon="4.850917"><time>2026-05-09T18:49:31Z</time></trkpt>
<trkpt lat="50.639566" lon="4.850516"><time>2026-05-09T18:59:31Z</time></trkpt>
<trkpt lat="50.640798" lon="4.849138"><time>2026-05-09T19:09:31Z</time></trkpt>
<trkpt lat="50.642000" lon="4.847492"><time>2026-05-09T19:19:31Z</time></trkpt>
<trkpt lat="50.642990" lon="4.846119"><time>2026-05-09T19:29:31Z</time></trkpt>
</trkseg>
</trk>
<trk>
<name>brmpri1</name>
<cmt>v</cmt>
<desc>Petit-Rosière Sentier n°i1 </desc>
<link href="https://chemins.be/petitrosiere/sentier/i1"/><trkseg>
<trkpt lat="50.647515" lon="4.874973"><time>2026-05-09T18:39:31Z</time></trkpt>
<trkpt lat="50.647426" lon="4.874830"><time>2026-05-09T18:49:31Z</time></trkpt>
<trkpt lat="50.647409" lon="4.874703"><time>2026-05-09T18:59:31Z</time></trkpt>
<trkpt lat="50.647455" lon="4.874463"><time>2026-05-09T19:09:31Z</time></trkpt>
<trkpt lat="50.647726" lon="4.874056"><time>2026-05-09T19:19:31Z</time></trkpt>
<trkpt lat="50.647952" lon="4.873846"><time>2026-05-09T19:29:31Z</time></trkpt>
<trkpt lat="50.647979" lon="4.873818"><time>2026-05-09T19:39:31Z</time></trkpt>
<trkpt lat="50.648015" lon="4.873790"><time>2026-05-09T19:49:31Z</time></trkpt>
<trkpt lat="50.648441" lon="4.873102"><time>2026-05-09T19:59:31Z</time></trkpt>
<trkpt lat="50.648676" lon="4.872808"><time>2026-05-09T20:09:31Z</time></trkpt>
</trkseg>
</trk>
<trk>
<name>brmpri10</name>
<cmt>v</cmt>
<desc>Petit-Rosière Sentier n°i10 </desc>
<link href="https://chemins.be/petitrosiere/sentier/i10"/><trkseg>
<trkpt lat="50.646893" lon="4.876585"><time>2026-05-09T18:39:31Z</time></trkpt>
<trkpt lat="50.646635" lon="4.876804"><time>2026-05-09T18:49:31Z</time></trkpt>
</trkseg>
</trk>
<trk>
<name>brmpri11</name>
<cmt>d</cmt>
<desc>Petit-Rosière Chemin n°i11 </desc>
<link href="https://chemins.be/petitrosiere/chemin/i11"/><trkseg>
<trkpt lat="50.652382" lon="4.880317"><time>2026-05-09T18:39:31Z</time></trkpt>
<trkpt lat="50.652994" lon="4.879802"><time>2026-05-09T18:49:31Z</time></trkpt>
</trkseg>
</trk>
<trk>
<name>brmpri12</name>
<cmt>v</cmt>
<desc>Petit-Rosière Chemin n°i12 </desc>
<link href="https://chemins.be/petitrosiere/chemin/i12"/><trkseg>
<trkpt lat="50.637401" lon="4.845158"><time>2026-05-09T18:39:31Z</time></trkpt>
<trkpt lat="50.637197" lon="4.845286"><time>2026-05-09T18:49:31Z</time></trkpt>
<trkpt lat="50.636727" lon="4.845551"><time>2026-05-09T18:59:31Z</time></trkpt>
</trkseg>
</trk>
<trk>
<name>brmpri2</name>
<cmt>r</cmt>
<desc>Petit-Rosière Chemin n°i2 </desc>
<link href="https://chemins.be/petitrosiere/chemin/i2"/><trkseg>
<trkpt lat="50.645992" lon="4.834900"><time>2026-05-09T18:39:31Z</time></trkpt>
<trkpt lat="50.647619" lon="4.832738"><time>2026-05-09T18:49:31Z</time></trkpt>
</trkseg>
</trk>
<trk>
<name>brmpri3</name>
<cmt>v</cmt>
<desc>Petit-Rosière Sentier n°i3 </desc>
<link href="https://chemins.be/petitrosiere/sentier/i3"/><trkseg>
<trkpt lat="50.643408" lon="4.871125"><time>2026-05-09T18:39:31Z</time></trkpt>
<trkpt lat="50.643363" lon="4.871000"><time>2026-05-09T18:49:31Z</time></trkpt>
<trkpt lat="50.643294" lon="4.870974"><time>2026-05-09T18:59:31Z</time></trkpt>
<trkpt lat="50.643245" lon="4.871051"><time>2026-05-09T19:09:31Z</time></trkpt>
<trkpt lat="50.643204" lon="4.871093"><time>2026-05-09T19:19:31Z</time></trkpt>
<trkpt lat="50.643115" lon="4.871157"><time>2026-05-09T19:29:31Z</time></trkpt>
</trkseg>
</trk>
<trk>
<name>brmpri4</name>
<cmt>v</cmt>
<desc>Petit-Rosière Sentier n°i4 </desc>
<link href="https://chemins.be/petitrosiere/sentier/i4"/><trkseg>
<trkpt lat="50.644660" lon="4.876351"><time>2026-05-09T18:39:31Z</time></trkpt>
<trkpt lat="50.644634" lon="4.876585"><time>2026-05-09T18:49:31Z</time></trkpt>
</trkseg>
</trk>
<trk>
<name>brmpri5</name>
<cmt>v</cmt>
<desc>Petit-Rosière Chemin n°i5 RAVeL</desc>
<link href="https://chemins.be/petitrosiere/chemin/i5"/><trkseg>
<trkpt lat="50.651168" lon="4.891309"><time>2026-05-09T18:39:31Z</time></trkpt>
<trkpt lat="50.652365" lon="4.894024"><time>2026-05-09T18:49:31Z</time></trkpt>
</trkseg>
</trk>
<trk>
<name>brmpri6</name>
<cmt>v</cmt>
<desc>Petit-Rosière Chemin n°i6 </desc>
<link href="https://chemins.be/petitrosiere/chemin/i6"/><trkseg>
<trkpt lat="50.644567" lon="4.856763"><time>2026-05-09T18:39:31Z</time></trkpt>
<trkpt lat="50.645697" lon="4.857987"><time>2026-05-09T18:49:31Z</time></trkpt>
</trkseg>
</trk>
<trk>
<name>brmpri7</name>
<cmt>v</cmt>
<desc>Petit-Rosière Sentier n°i7 </desc>
<link href="https://chemins.be/petitrosiere/sentier/i7"/><trkseg>
<trkpt lat="50.642907" lon="4.892454"><time>2026-05-09T18:39:31Z</time></trkpt>
<trkpt lat="50.642699" lon="4.892502"><time>2026-05-09T18:49:31Z</time></trkpt>
<trkpt lat="50.642410" lon="4.892669"><time>2026-05-09T18:59:31Z</time></trkpt>
</trkseg>
</trk>
<trk>
<name>brmpri8</name>
<cmt>v</cmt>
<desc>Petit-Rosière Sentier n°i8 </desc>
<link href="https://chemins.be/petitrosiere/sentier/i8"/><trkseg>
<trkpt lat="50.642716" lon="4.892406"><time>2026-05-09T18:39:31Z</time></trkpt>
<trkpt lat="50.641954" lon="4.892728"><time>2026-05-09T18:49:31Z</time></trkpt>
</trkseg>
</trk>
<trk>
<name>brmpri9</name>
<cmt>v</cmt>
<desc>Petit-Rosière Sentier n°i9 </desc>
<link href="https://chemins.be/petitrosiere/sentier/i9"/><trkseg>
<trkpt lat="50.647203" lon="4.880921"><time>2026-05-09T18:39:31Z</time></trkpt>
<trkpt lat="50.646729" lon="4.880962"><time>2026-05-09T18:49:31Z</time></trkpt>
<trkpt lat="50.646598" lon="4.880585"><time>2026-05-09T18:59:31Z</time></trkpt>
</trkseg>
</trk>
<trk>
<name>brmprL142</name>
<cmt>v</cmt>
<desc>Petit-Rosière Chemin n°L142 RAVeL 2 L142</desc>
<link href="https://chemins.be/petitrosiere/chemin/L142"/><trkseg>
<trkpt lat="50.637396" lon="4.894611"><time>2026-05-09T18:39:31Z</time></trkpt>
<trkpt lat="50.642706" lon="4.892572"><time>2026-05-09T18:49:31Z</time></trkpt>
<trkpt lat="50.643580" lon="4.892213"><time>2026-05-09T18:59:31Z</time></trkpt>
<trkpt lat="50.646896" lon="4.890811"><time>2026-05-09T19:09:31Z</time></trkpt>
<trkpt lat="50.649016" lon="4.890111"><time>2026-05-09T19:19:31Z</time></trkpt>
<trkpt lat="50.651186" lon="4.891311"><time>2026-05-09T19:29:31Z</time></trkpt>
</trkseg></trk>
<trk>
<name>brmprL142</name>
<cmt>d</cmt>
<desc>Petit-Rosière Chemin n°L142 RAVeL 2 L142</desc>
<link href="https://chemins.be/petitrosiere/chemin/L142"/><trkseg>
<trkpt lat="50.651186" lon="4.891311"><time>2026-05-09T19:29:31Z</time></trkpt>
<trkpt lat="50.651186" lon="4.891311"><time>2026-05-09T19:39:31Z</time></trkpt>
<trkpt lat="50.652946" lon="4.893561"><time>2026-05-09T19:49:31Z</time></trkpt>
</trkseg>
</trk>
<trk>
<name>brmprL147</name>
<cmt>v</cmt>
<desc>Petit-Rosière Chemin n°L147 RAVeL / RAVeL L147</desc>
<link href="https://chemins.be/petitrosiere/chemin/L147"/><trkseg>
<trkpt lat="50.636345" lon="4.841109"><time>2026-05-09T18:39:31Z</time></trkpt>
<trkpt lat="50.638503" lon="4.851864"><time>2026-05-09T18:49:31Z</time></trkpt>
<trkpt lat="50.639925" lon="4.858563"><time>2026-05-09T18:59:31Z</time></trkpt>
<trkpt lat="50.640057" lon="4.858842"><time>2026-05-09T19:09:31Z</time></trkpt>
<trkpt lat="50.643214" lon="4.871177"><time>2026-05-09T19:19:31Z</time></trkpt>
<trkpt lat="50.644586" lon="4.876386"><time>2026-05-09T19:29:31Z</time></trkpt>
<trkpt lat="50.645306" lon="4.879331"><time>2026-05-09T19:39:31Z</time></trkpt>
<trkpt lat="50.646639" lon="4.883305"><time>2026-05-09T19:49:31Z</time></trkpt>
<trkpt lat="50.647104" lon="4.884605"><time>2026-05-09T19:59:31Z</time></trkpt>
<trkpt lat="50.648886" lon="4.887991"><time>2026-05-09T20:09:31Z</time></trkpt>
<trkpt lat="50.650856" lon="4.890741"><time>2026-05-09T20:19:31Z</time></trkpt>
</trkseg>
</trk>
<trk>
<name>brmrm1</name>
<cmt>r</cmt>
<desc>Ramillies Chemin n°1 Rue du Village / Rue de la Station</desc>
<link href="https://chemins.be/ramillies/chemin/1"/><trkseg>
<trkpt lat="50.636873" lon="4.914441"><time>2026-05-09T18:39:31Z</time></trkpt>
<trkpt lat="50.637146" lon="4.913794"><time>2026-05-09T18:49:31Z</time></trkpt>
<trkpt lat="50.637671" lon="4.912980"><time>2026-05-09T18:59:31Z</time></trkpt>
<trkpt lat="50.638025" lon="4.912164"><time>2026-05-09T19:09:31Z</time></trkpt>
</trkseg></trk>
<trk>
<name>brmrm1</name>
<cmt>v</cmt>
<desc>Ramillies Chemin n°1 Rue du Village / Rue de la Station</desc>
<link href="https://chemins.be/ramillies/chemin/1"/><trkseg>
<trkpt lat="50.638025" lon="4.912164"><time>2026-05-09T19:09:31Z</time></trkpt>
<trkpt lat="50.637991" lon="4.911782"><time>2026-05-09T19:19:31Z</time></trkpt>
<trkpt lat="50.637516" lon="4.911437"><time>2026-05-09T19:29:31Z</time></trkpt>
<trkpt lat="50.637320" lon="4.911124"><time>2026-05-09T19:39:31Z</time></trkpt>
<trkpt lat="50.637350" lon="4.910516"><time>2026-05-09T19:49:31Z</time></trkpt>
<trkpt lat="50.637435" lon="4.909817"><time>2026-05-09T19:59:31Z</time></trkpt>
<trkpt lat="50.637272" lon="4.909306"><time>2026-05-09T20:09:31Z</time></trkpt>
</trkseg></trk>
<trk>
<name>brmrm1</name>
<cmt>r</cmt>
<desc>Ramillies Chemin n°1 Rue du Village / Rue de la Station</desc>
<link href="https://chemins.be/ramillies/chemin/1"/><trkseg>
<trkpt lat="50.637272" lon="4.909306"><time>2026-05-09T20:09:31Z</time></trkpt>
<trkpt lat="50.638053" lon="4.908109"><time>2026-05-09T20:19:31Z</time></trkpt>
<trkpt lat="50.640221" lon="4.903614"><time>2026-05-09T20:29:31Z</time></trkpt>
<trkpt lat="50.641616" lon="4.903625"><time>2026-05-09T20:39:31Z</time></trkpt>
<trkpt lat="50.645909" lon="4.901168"><time>2026-05-09T20:49:31Z</time></trkpt>
<trkpt lat="50.648494" lon="4.898980"><time>2026-05-09T20:59:31Z</time></trkpt>
<trkpt lat="50.650536" lon="4.898072"><time>2026-05-09T21:09:31Z</time></trkpt>
<trkpt lat="50.652712" lon="4.897735"><time>2026-05-09T21:19:31Z</time></trkpt>
<trkpt lat="50.652969" lon="4.897577"><time>2026-05-09T21:29:31Z</time></trkpt>
</trkseg></trk>
<trk>
<name>brmrm1</name>
<cmt>v</cmt>
<desc>Ramillies Chemin n°1 Rue du Village / Rue de la Station</desc>
<link href="https://chemins.be/ramillies/chemin/1"/><trkseg>
<trkpt lat="50.652969" lon="4.897577"><time>2026-05-09T21:29:31Z</time></trkpt>
<trkpt lat="50.653452" lon="4.897373"><time>2026-05-09T21:39:31Z</time></trkpt>
</trkseg>
</trk>
<trk>
<name>brmrm10</name>
<cmt>d</cmt>
<desc>Ramillies Chemin n°10 </desc>
<link href="https://chemins.be/ramillies/chemin/10"/><trkseg>
<trkpt lat="50.633883" lon="4.898553"><time>2026-05-09T18:39:31Z</time></trkpt>
<trkpt lat="50.633827" lon="4.896283"><time>2026-05-09T18:49:31Z</time></trkpt>
<trkpt lat="50.633722" lon="4.892084"><time>2026-05-09T18:59:31Z</time></trkpt>
</trkseg>
</trk>
<trk>
<name>brmrm13</name>
<cmt>v</cmt>
<desc>Ramillies Chemin n°13 </desc>
<link href="https://chemins.be/ramillies/chemin/13"/><trkseg>
<trkpt lat="50.632517" lon="4.917932"><time>2026-05-09T18:39:31Z</time></trkpt>
<trkpt lat="50.632294" lon="4.917632"><time>2026-05-09T18:49:31Z</time></trkpt>
<trkpt lat="50.630819" lon="4.916293"><time>2026-05-09T18:59:31Z</time></trkpt>
</trkseg></trk>
<trk>
<name>brmrm13</name>
<cmt>d</cmt>
<desc>Ramillies Chemin n°13 </desc>
<link href="https://chemins.be/ramillies/chemin/13"/><trkseg>
<trkpt lat="50.630819" lon="4.916293"><time>2026-05-09T18:59:31Z</time></trkpt>
<trkpt lat="50.629181" lon="4.915946"><time>2026-05-09T19:09:31Z</time></trkpt>
<trkpt lat="50.627411" lon="4.915266"><time>2026-05-09T19:19:31Z</time></trkpt>
</trkseg></trk>
<trk>
<name>brmrm13</name>
<cmt>v</cmt>
<desc>Ramillies Chemin n°13 </desc>
<link href="https://chemins.be/ramillies/chemin/13"/><trkseg>
<trkpt lat="50.627411" lon="4.915266"><time>2026-05-09T19:19:31Z</time></trkpt>
<trkpt lat="50.625814" lon="4.914652"><time>2026-05-09T19:29:31Z</time></trkpt>
</trkseg>
</trk>
<trk>
<name>brmrm14</name>
<cmt>s</cmt>
<desc>Ramillies Chemin n°14 </desc>
<link href="https://chemins.be/ramillies/chemin/14"/><trkseg>
<trkpt lat="50.627641" lon="4.919860"><time>2026-05-09T18:39:31Z</time></trkpt>
<trkpt lat="50.625749" lon="4.920715"><time>2026-05-09T18:49:31Z</time></trkpt>
</trkseg>
</trk>
<trk>
<name>brmrm16</name>
<cmt>v</cmt>
<desc>Ramillies Chemin n°16 </desc>
<link href="https://chemins.be/ramillies/chemin/16"/><trkseg>
<trkpt lat="50.647539" lon="4.921848"><time>2026-05-09T18:39:31Z</time></trkpt>
<trkpt lat="50.648929" lon="4.922790"><time>2026-05-09T18:49:31Z</time></trkpt>
</trkseg></trk>
<trk>
<name>brmrm16</name>
<cmt>d</cmt>
<desc>Ramillies Chemin n°16 </desc>
<link href="https://chemins.be/ramillies/chemin/16"/><trkseg>
<trkpt lat="50.648929" lon="4.922790"><time>2026-05-09T18:49:31Z</time></trkpt>
<trkpt lat="50.649865" lon="4.923618"><time>2026-05-09T18:59:31Z</time></trkpt>
</trkseg>
</trk>
<trk>
<name>brmrm17</name>
<cmt>s</cmt>
<desc>Ramillies Chemin n°17 </desc>
<link href="https://chemins.be/ramillies/chemin/17"/><trkseg>
<trkpt lat="50.641746" lon="4.933172"><time>2026-05-09T18:39:31Z</time></trkpt>
<trkpt lat="50.643971" lon="4.940050"><time>2026-05-09T18:49:31Z</time></trkpt>
</trkseg>
</trk>
<trk>
<name>brmrm1bis</name>
<cmt>r</cmt>
<desc>Ramillies Chemin n°1bis Rue aux Renards</desc>
<link href="https://chemins.be/ramillies/chemin/1bis"/><trkseg>
<trkpt lat="50.630795" lon="4.916364"><time>2026-05-09T18:39:31Z</time></trkpt>
<trkpt lat="50.629447" lon="4.918228"><time>2026-05-09T18:49:31Z</time></trkpt>
<trkpt lat="50.627839" lon="4.919792"><time>2026-05-09T18:59:31Z</time></trkpt>
</trkseg>
</trk>
<trk>
<name>brmrm2</name>
<cmt>r</cmt>
<desc>Ramillies Chemin n°2 Rue de la Frête</desc>
<link href="https://chemins.be/ramillies/chemin/2"/><trkseg>
<trkpt lat="50.630134" lon="4.919310"><time>2026-05-09T18:39:31Z</time></trkpt>
<trkpt lat="50.632091" lon="4.919983"><time>2026-05-09T18:49:31Z</time></trkpt>
<trkpt lat="50.634613" lon="4.920790"><time>2026-05-09T18:59:31Z</time></trkpt>
</trkseg>
</trk>
<trk>
<name>brmrm21</name>
<cmt>v</cmt>
<desc>Ramillies Chemin n°21 </desc>
<link href="https://chemins.be/ramillies/chemin/21"/><trkseg>
<trkpt lat="50.640259" lon="4.903467"><time>2026-05-09T18:39:31Z</time></trkpt>
<trkpt lat="50.640931" lon="4.900039"><time>2026-05-09T18:49:31Z</time></trkpt>
</trkseg>
</trk>
<trk>
<name>brmrm22</name>
<cmt>r</cmt>
<desc>Ramillies Sentier n°22 Rue du Wayaux</desc>
<link href="https://chemins.be/ramillies/sentier/22"/><trkseg>
<trkpt lat="50.637105" lon="4.914825"><time>2026-05-09T18:39:31Z</time></trkpt>
<trkpt lat="50.636633" lon="4.915724"><time>2026-05-09T18:49:31Z</time></trkpt>
<trkpt lat="50.636631" lon="4.916078"><time>2026-05-09T18:59:31Z</time></trkpt>
<trkpt lat="50.637209" lon="4.917625"><time>2026-05-09T19:09:31Z</time></trkpt>
<trkpt lat="50.638560" lon="4.918843"><time>2026-05-09T19:19:31Z</time></trkpt>
<trkpt lat="50.638987" lon="4.919965"><time>2026-05-09T19:29:31Z</time></trkpt>
</trkseg></trk>
<trk>
<name>brmrm22</name>
<cmt>q</cmt>
<desc>Ramillies Sentier n°22 Rue du Wayaux</desc>
<link href="https://chemins.be/ramillies/sentier/22"/><trkseg>
<trkpt lat="50.638987" lon="4.919965"><time>2026-05-09T19:29:31Z</time></trkpt>
<trkpt lat="50.639324" lon="4.920902"><time>2026-05-09T19:39:31Z</time></trkpt>
<trkpt lat="50.640244" lon="4.922185"><time>2026-05-09T19:49:31Z</time></trkpt>
</trkseg></trk>
<trk>
<name>brmrm22</name>
<cmt>s</cmt>
<desc>Ramillies Sentier n°22 Rue du Wayaux</desc>
<link href="https://chemins.be/ramillies/sentier/22"/><trkseg>
<trkpt lat="50.640244" lon="4.922185"><time>2026-05-09T19:49:31Z</time></trkpt>
<trkpt lat="50.640161" lon="4.925973"><time>2026-05-09T19:59:31Z</time></trkpt>
<trkpt lat="50.639786" lon="4.928602"><time>2026-05-09T20:09:31Z</time></trkpt>
</trkseg>
</trk>
<trk>
<name>brmrm23</name>
<cmt>v</cmt>
<desc>Ramillies Sentier n°23 Rue Léon Delhache</desc>
<link href="https://chemins.be/ramillies/sentier/23"/><trkseg>
<trkpt lat="50.652702" lon="4.907355"><time>2026-05-09T18:39:31Z</time></trkpt>
<trkpt lat="50.652367" lon="4.907804"><time>2026-05-09T18:49:31Z</time></trkpt>
<trkpt lat="50.652071" lon="4.907560"><time>2026-05-09T18:59:31Z</time></trkpt>
<trkpt lat="50.651754" lon="4.908080"><time>2026-05-09T19:09:31Z</time></trkpt>
</trkseg></trk>
<trk>
<name>brmrm23</name>
<cmt>r</cmt>
<desc>Ramillies Sentier n°23 Rue Léon Delhache</desc>
<link href="https://chemins.be/ramillies/sentier/23"/><trkseg>
<trkpt lat="50.651754" lon="4.908080"><time>2026-05-09T19:09:31Z</time></trkpt>
<trkpt lat="50.651806" lon="4.908519"><time>2026-05-09T19:19:31Z</time></trkpt>
</trkseg></trk>
<trk>
<name>brmrm23</name>
<cmt>v</cmt>
<desc>Ramillies Sentier n°23 Rue Léon Delhache</desc>
<link href="https://chemins.be/ramillies/sentier/23"/><trkseg>
<trkpt lat="50.651806" lon="4.908519"><time>2026-05-09T19:19:31Z</time></trkpt>
<trkpt lat="50.650877" lon="4.909173"><time>2026-05-09T19:29:31Z</time></trkpt>
<trkpt lat="50.650974" lon="4.909598"><time>2026-05-09T19:39:31Z</time></trkpt>
</trkseg></trk>
<trk>
<name>brmrm23</name>
<cmt>d</cmt>
<desc>Ramillies Sentier n°23 Rue Léon Delhache</desc>
<link href="https://chemins.be/ramillies/sentier/23"/><trkseg>
<trkpt lat="50.650974" lon="4.909598"><time>2026-05-09T19:39:31Z</time></trkpt>
<trkpt lat="50.650525" lon="4.909830"><time>2026-05-09T19:49:31Z</time></trkpt>
<trkpt lat="50.647649" lon="4.911313"><time>2026-05-09T19:59:31Z</time></trkpt>
</trkseg>
</trk>
<trk>
<name>brmrm24</name>
<cmt>v</cmt>
<desc>Ramillies Sentier n°24 </desc>
<link href="https://chemins.be/ramillies/sentier/24"/><trkseg>
<trkpt lat="50.638025" lon="4.912221"><time>2026-05-09T18:39:31Z</time></trkpt>
<trkpt lat="50.638275" lon="4.912451"><time>2026-05-09T18:49:31Z</time></trkpt>
</trkseg></trk>
<trk>
<name>brmrm24</name>
<cmt>b</cmt>
<desc>Ramillies Sentier n°24 </desc>
<link href="https://chemins.be/ramillies/sentier/24"/><trkseg>
<trkpt lat="50.638275" lon="4.912451"><time>2026-05-09T18:49:31Z</time></trkpt>
<trkpt lat="50.638387" lon="4.912152"><time>2026-05-09T18:59:31Z</time></trkpt>
</trkseg></trk>
<trk>
<name>brmrm24</name>
<cmt>d</cmt>
<desc>Ramillies Sentier n°24 </desc>
<link href="https://chemins.be/ramillies/sentier/24"/><trkseg>
<trkpt lat="50.638387" lon="4.912152"><time>2026-05-09T18:59:31Z</time></trkpt>
<trkpt lat="50.639205" lon="4.909887"><time>2026-05-09T19:09:31Z</time></trkpt>
<trkpt lat="50.640116" lon="4.907226"><time>2026-05-09T19:19:31Z</time></trkpt>
<trkpt lat="50.640144" lon="4.905870"><time>2026-05-09T19:29:31Z</time></trkpt>
<trkpt lat="50.639453" lon="4.905097"><time>2026-05-09T19:39:31Z</time></trkpt>
</trkseg>
</trk>
<trk>
<name>brmrm24bis</name>
<cmt>s</cmt>
<desc>Ramillies Sentier n°24bis </desc>
<link href="https://chemins.be/ramillies/sentier/24bis"/><trkseg>
<trkpt lat="50.640125" lon="4.907155"><time>2026-05-09T18:39:31Z</time></trkpt>
<trkpt lat="50.641760" lon="4.903583"><time>2026-05-09T18:49:31Z</time></trkpt>
</trkseg>
</trk>
<trk>
<name>brmrm25</name>
<cmt>v</cmt>
<desc>Ramillies Sentier n°25 Rue Olivier Dehasse</desc>
<link href="https://chemins.be/ramillies/sentier/25"/><trkseg>
<trkpt lat="50.643784" lon="4.914289"><time>2026-05-09T18:39:31Z</time></trkpt>
<trkpt lat="50.643677" lon="4.914802"><time>2026-05-09T18:49:31Z</time></trkpt>
<trkpt lat="50.643560" lon="4.916653"><time>2026-05-09T18:59:31Z</time></trkpt>
<trkpt lat="50.643303" lon="4.917894"><time>2026-05-09T19:09:31Z</time></trkpt>
</trkseg></trk>
<trk>
<name>brmrm25</name>
<cmt>d</cmt>
<desc>Ramillies Sentier n°25 Rue Olivier Dehasse</desc>
<link href="https://chemins.be/ramillies/sentier/25"/><trkseg>
<trkpt lat="50.643303" lon="4.917894"><time>2026-05-09T19:09:31Z</time></trkpt>
<trkpt lat="50.642701" lon="4.917746"><time>2026-05-09T19:19:31Z</time></trkpt>
<trkpt lat="50.639956" lon="4.918449"><time>2026-05-09T19:29:31Z</time></trkpt>
<trkpt lat="50.638687" lon="4.918745"><time>2026-05-09T19:39:31Z</time></trkpt>
</trkseg>
</trk>
<trk>
<name>brmrm26</name>
<cmt>s</cmt>
<desc>Ramillies Sentier n°26 </desc>
<link href="https://chemins.be/ramillies/sentier/26"/><trkseg>
<trkpt lat="50.647572" lon="4.921804"><time>2026-05-09T18:39:31Z</time></trkpt>
<trkpt lat="50.643444" lon="4.918476"><time>2026-05-09T18:49:31Z</time></trkpt>
<trkpt lat="50.643231" lon="4.917908"><time>2026-05-09T18:59:31Z</time></trkpt>
</trkseg>
</trk>
<trk>
<name>brmrm27</name>
<cmt>r</cmt>
<desc>Ramillies Sentier n°27 </desc>
<link href="https://chemins.be/ramillies/sentier/27"/><trkseg>
<trkpt lat="50.642500" lon="4.914534"><time>2026-05-09T18:39:31Z</time></trkpt>
<trkpt lat="50.641209" lon="4.913925"><time>2026-05-09T18:49:31Z</time></trkpt>
</trkseg></trk>
<trk>
<name>brmrm27</name>
<cmt>d</cmt>
<desc>Ramillies Sentier n°27 </desc>
<link href="https://chemins.be/ramillies/sentier/27"/><trkseg>
<trkpt lat="50.641209" lon="4.913925"><time>2026-05-09T18:49:31Z</time></trkpt>
<trkpt lat="50.640452" lon="4.913481"><time>2026-05-09T18:59:31Z</time></trkpt>
<trkpt lat="50.639738" lon="4.913032"><time>2026-05-09T19:09:31Z</time></trkpt>
<trkpt lat="50.639138" lon="4.912573"><time>2026-05-09T19:19:31Z</time></trkpt>
<trkpt lat="50.638713" lon="4.911295"><time>2026-05-09T19:29:31Z</time></trkpt>
</trkseg></trk>
<trk>
<name>brmrm27</name>
<cmt>s</cmt>
<desc>Ramillies Sentier n°27 </desc>
<link href="https://chemins.be/ramillies/sentier/27"/><trkseg>
<trkpt lat="50.638713" lon="4.911295"><time>2026-05-09T19:29:31Z</time></trkpt>
<trkpt lat="50.638079" lon="4.910355"><time>2026-05-09T19:39:31Z</time></trkpt>
<trkpt lat="50.637470" lon="4.909853"><time>2026-05-09T19:49:31Z</time></trkpt>
</trkseg>
</trk>
<trk>
<name>brmrm28</name>
<cmt>s</cmt>
<desc>Ramillies Sentier n°28 </desc>
<link href="https://chemins.be/ramillies/sentier/28"/><trkseg>
<trkpt lat="50.638493" lon="4.916015"><time>2026-05-09T18:39:31Z</time></trkpt>
<trkpt lat="50.637895" lon="4.916898"><time>2026-05-09T18:49:31Z</time></trkpt>
<trkpt lat="50.637725" lon="4.916755"><time>2026-05-09T18:59:31Z</time></trkpt>
<trkpt lat="50.637254" lon="4.917555"><time>2026-05-09T19:09:31Z</time></trkpt>
<trkpt lat="50.636412" lon="4.918775"><time>2026-05-09T19:19:31Z</time></trkpt>
</trkseg>
</trk>
<trk>
<name>brmrm29</name>
<cmt>r</cmt>
<desc>Ramillies Sentier n°29 Rue de la Frête</desc>
<link href="https://chemins.be/ramillies/sentier/29"/><trkseg>
<trkpt lat="50.636694" lon="4.916262"><time>2026-05-09T18:39:31Z</time></trkpt>
<trkpt lat="50.636197" lon="4.916780"><time>2026-05-09T18:49:31Z</time></trkpt>
<trkpt lat="50.636386" lon="4.918648"><time>2026-05-09T18:59:31Z</time></trkpt>
</trkseg>
</trk>
<trk>
<name>brmrm3</name>
<cmt>r</cmt>
<desc>Ramillies Chemin n°3 Rue du Fodia</desc>
<link href="https://chemins.be/ramillies/chemin/3"/><trkseg>
<trkpt lat="50.651431" lon="4.919530"><time>2026-05-09T18:39:31Z</time></trkpt>
<trkpt lat="50.650504" lon="4.919817"><time>2026-05-09T18:49:31Z</time></trkpt>
<trkpt lat="50.648585" lon="4.921271"><time>2026-05-09T18:59:31Z</time></trkpt>
</trkseg></trk>
<trk>
<name>brmrm3</name>
<cmt>v</cmt>
<desc>Ramillies Chemin n°3 Rue du Fodia</desc>
<link href="https://chemins.be/ramillies/chemin/3"/><trkseg>
<trkpt lat="50.648585" lon="4.921271"><time>2026-05-09T18:59:31Z</time></trkpt>
<trkpt lat="50.647501" lon="4.921818"><time>2026-05-09T19:09:31Z</time></trkpt>
<trkpt lat="50.644696" lon="4.921756"><time>2026-05-09T19:19:31Z</time></trkpt>
<trkpt lat="50.642633" lon="4.920813"><time>2026-05-09T19:29:31Z</time></trkpt>
<trkpt lat="50.640712" lon="4.920197"><time>2026-05-09T19:39:31Z</time></trkpt>
</trkseg></trk>
<trk>
<name>brmrm3</name>
<cmt>r</cmt>
<desc>Ramillies Chemin n°3 Rue du Fodia</desc>
<link href="https://chemins.be/ramillies/chemin/3"/><trkseg>
<trkpt lat="50.640712" lon="4.920197"><time>2026-05-09T19:39:31Z</time></trkpt>
<trkpt lat="50.640056" lon="4.920020"><time>2026-05-09T19:49:31Z</time></trkpt>
</trkseg>
</trk>
<trk>
<name>brmrm30</name>
<cmt>s</cmt>
<desc>Ramillies Sentier n°30 </desc>
<link href="https://chemins.be/ramillies/sentier/30"/><trkseg>
<trkpt lat="50.637199" lon="4.917640"><time>2026-05-09T18:39:31Z</time></trkpt>
<trkpt lat="50.636276" lon="4.917134"><time>2026-05-09T18:49:31Z</time></trkpt>
<trkpt lat="50.635542" lon="4.916594"><time>2026-05-09T18:59:31Z</time></trkpt>
<trkpt lat="50.634640" lon="4.916449"><time>2026-05-09T19:09:31Z</time></trkpt>
</trkseg>
</trk>
<trk>
<name>brmrm31</name>
<cmt>v</cmt>
<desc>Ramillies Sentier n°31 Rue aux Renards</desc>
<link href="https://chemins.be/ramillies/sentier/31"/><trkseg>
<trkpt lat="50.636090" lon="4.914263"><time>2026-05-09T18:39:31Z</time></trkpt>
<trkpt lat="50.635924" lon="4.914053"><time>2026-05-09T18:49:31Z</time></trkpt>
<trkpt lat="50.635413" lon="4.912422"><time>2026-05-09T18:59:31Z</time></trkpt>
</trkseg></trk>
<trk>
<name>brmrm31</name>
<cmt>r</cmt>
<desc>Ramillies Sentier n°31 Rue aux Renards</desc>
<link href="https://chemins.be/ramillies/sentier/31"/><trkseg>
<trkpt lat="50.635413" lon="4.912422"><time>2026-05-09T18:59:31Z</time></trkpt>
<trkpt lat="50.635061" lon="4.911579"><time>2026-05-09T19:09:31Z</time></trkpt>
</trkseg></trk>
<trk>
<name>brmrm31</name>
<cmt>q</cmt>
<desc>Ramillies Sentier n°31 Rue aux Renards</desc>
<link href="https://chemins.be/ramillies/sentier/31"/><trkseg>
<trkpt lat="50.635061" lon="4.911579"><time>2026-05-09T19:09:31Z</time></trkpt>
<trkpt lat="50.634691" lon="4.910048"><time>2026-05-09T19:19:31Z</time></trkpt>
<trkpt lat="50.634890" lon="4.907689"><time>2026-05-09T19:29:31Z</time></trkpt>
<trkpt lat="50.634993" lon="4.904920"><time>2026-05-09T19:39:31Z</time></trkpt>
<trkpt lat="50.635435" lon="4.904543"><time>2026-05-09T19:49:31Z</time></trkpt>
</trkseg>
</trk>
<trk>
<name>brmrm32</name>
<cmt>s</cmt>
<desc>Ramillies Sentier n°32 </desc>
<link href="https://chemins.be/ramillies/sentier/32"/><trkseg>
<trkpt lat="50.641328" lon="4.915369"><time>2026-05-09T18:39:31Z</time></trkpt>
<trkpt lat="50.640342" lon="4.914721"><time>2026-05-09T18:49:31Z</time></trkpt>
<trkpt lat="50.639481" lon="4.914259"><time>2026-05-09T18:59:31Z</time></trkpt>
<trkpt lat="50.639004" lon="4.914367"><time>2026-05-09T19:09:31Z</time></trkpt>
<trkpt lat="50.637353" lon="4.913570"><time>2026-05-09T19:19:31Z</time></trkpt>
</trkseg>
</trk>
<trk>
<name>brmrm33</name>
<cmt>s</cmt>
<desc>Ramillies Sentier n°33 </desc>
<link href="https://chemins.be/ramillies/sentier/33"/><trkseg>
<trkpt lat="50.636814" lon="4.915500"><time>2026-05-09T18:39:31Z</time></trkpt>
<trkpt lat="50.637001" lon="4.915814"><time>2026-05-09T18:49:31Z</time></trkpt>
<trkpt lat="50.638233" lon="4.915715"><time>2026-05-09T18:59:31Z</time></trkpt>
</trkseg>
</trk>
<trk>
<name>brmrm34</name>
<cmt>v</cmt>
<desc>Ramillies Sentier n°34 Rue du Wayaux</desc>
<link href="https://chemins.be/ramillies/sentier/34"/><trkseg>
<trkpt lat="50.639326" lon="4.916618"><time>2026-05-09T18:39:31Z</time></trkpt>
<trkpt lat="50.639315" lon="4.917667"><time>2026-05-09T18:49:31Z</time></trkpt>
</trkseg></trk>
<trk>
<name>brmrm34</name>
<cmt>q</cmt>
<desc>Ramillies Sentier n°34 Rue du Wayaux</desc>
<link href="https://chemins.be/ramillies/sentier/34"/><trkseg>
<trkpt lat="50.639315" lon="4.917667"><time>2026-05-09T18:49:31Z</time></trkpt>
<trkpt lat="50.638578" lon="4.918829"><time>2026-05-09T18:59:31Z</time></trkpt>
<trkpt lat="50.637899" lon="4.919833"><time>2026-05-09T19:09:31Z</time></trkpt>
</trkseg></trk>
<trk>
<name>brmrm34</name>
<cmt>r</cmt>
<desc>Ramillies Sentier n°34 Rue du Wayaux</desc>
<link href="https://chemins.be/ramillies/sentier/34"/><trkseg>
<trkpt lat="50.637899" lon="4.919833"><time>2026-05-09T19:09:31Z</time></trkpt>
<trkpt lat="50.637184" lon="4.920891"><time>2026-05-09T19:19:31Z</time></trkpt>
</trkseg>
</trk>
<trk>
<name>brmrm35</name>
<cmt>s</cmt>
<desc>Ramillies Sentier n°35 Rue Joseph Guilleaume</desc>
<link href="https://chemins.be/ramillies/sentier/35"/><trkseg>
<trkpt lat="50.639974" lon="4.918421"><time>2026-05-09T18:39:31Z</time></trkpt>
<trkpt lat="50.640544" lon="4.917509"><time>2026-05-09T18:49:31Z</time></trkpt>
<trkpt lat="50.641054" lon="4.916256"><time>2026-05-09T18:59:31Z</time></trkpt>
</trkseg></trk>
<trk>
<name>brmrm35</name>
<cmt>r</cmt>
<desc>Ramillies Sentier n°35 Rue Joseph Guilleaume</desc>
<link href="https://chemins.be/ramillies/sentier/35"/><trkseg>
<trkpt lat="50.641054" lon="4.916256"><time>2026-05-09T18:59:31Z</time></trkpt>
<trkpt lat="50.641269" lon="4.916358"><time>2026-05-09T19:09:31Z</time></trkpt>
</trkseg></trk>
<trk>
<name>brmrm35</name>
<cmt>v</cmt>
<desc>Ramillies Sentier n°35 Rue Joseph Guilleaume</desc>
<link href="https://chemins.be/ramillies/sentier/35"/><trkseg>
<trkpt lat="50.641269" lon="4.916358"><time>2026-05-09T19:09:31Z</time></trkpt>
<trkpt lat="50.641410" lon="4.915031"><time>2026-05-09T19:19:31Z</time></trkpt>
<trkpt lat="50.641779" lon="4.914893"><time>2026-05-09T19:29:31Z</time></trkpt>
<trkpt lat="50.642426" lon="4.915056"><time>2026-05-09T19:39:31Z</time></trkpt>
</trkseg></trk>
<trk>
<name>brmrm35</name>
<cmt>r</cmt>
<desc>Ramillies Sentier n°35 Rue Joseph Guilleaume</desc>
<link href="https://chemins.be/ramillies/sentier/35"/><trkseg>
<trkpt lat="50.642426" lon="4.915056"><time>2026-05-09T19:39:31Z</time></trkpt>
<trkpt lat="50.642500" lon="4.914548"><time>2026-05-09T19:49:31Z</time></trkpt>
</trkseg></trk>
<trk>
<name>brmrm35</name>
<cmt>s</cmt>
<desc>Ramillies Sentier n°35 Rue Joseph Guilleaume</desc>
<link href="https://chemins.be/ramillies/sentier/35"/><trkseg>
<trkpt lat="50.642500" lon="4.914548"><time>2026-05-09T19:49:31Z</time></trkpt>
<trkpt lat="50.642780" lon="4.912332"><time>2026-05-09T19:59:31Z</time></trkpt>
<trkpt lat="50.643563" lon="4.910263"><time>2026-05-09T20:09:31Z</time></trkpt>
<trkpt lat="50.643430" lon="4.909823"><time>2026-05-09T20:19:31Z</time></trkpt>
<trkpt lat="50.642242" lon="4.908113"><time>2026-05-09T20:29:31Z</time></trkpt>
<trkpt lat="50.642478" lon="4.907762"><time>2026-05-09T20:39:31Z</time></trkpt>
</trkseg>
</trk>
<trk>
<name>brmrm36</name>
<cmt>d</cmt>
<desc>Ramillies Sentier n°36 </desc>
<link href="https://chemins.be/ramillies/sentier/36"/><trkseg>
<trkpt lat="50.644522" lon="4.928851"><time>2026-05-09T18:39:31Z</time></trkpt>
<trkpt lat="50.644797" lon="4.928847"><time>2026-05-09T18:49:31Z</time></trkpt>
<trkpt lat="50.646441" lon="4.929557"><time>2026-05-09T18:59:31Z</time></trkpt>
<trkpt lat="50.646318" lon="4.930136"><time>2026-05-09T19:09:31Z</time></trkpt>
<trkpt lat="50.649053" lon="4.931037"><time>2026-05-09T19:19:31Z</time></trkpt>
<trkpt lat="50.650468" lon="4.932153"><time>2026-05-09T19:29:31Z</time></trkpt>
</trkseg>
</trk>
<trk>
<name>brmrm37</name>
<cmt>d</cmt>
<desc>Ramillies Sentier n°37 </desc>
<link href="https://chemins.be/ramillies/sentier/37"/><trkseg>
<trkpt lat="50.648509" lon="4.922420"><time>2026-05-09T18:39:31Z</time></trkpt>
<trkpt lat="50.648188" lon="4.921459"><time>2026-05-09T18:49:31Z</time></trkpt>
<trkpt lat="50.647682" lon="4.920180"><time>2026-05-09T18:59:31Z</time></trkpt>
<trkpt lat="50.647350" lon="4.918695"><time>2026-05-09T19:09:31Z</time></trkpt>
</trkseg>
</trk>
<trk>
<name>brmrm38</name>
<cmt>v</cmt>
<desc>Ramillies Chemin n°38 </desc>
<link href="https://chemins.be/ramillies/chemin/38"/><trkseg>
<trkpt lat="50.651309" lon="4.918652"><time>2026-05-09T18:39:31Z</time></trkpt>
<trkpt lat="50.650948" lon="4.919016"><time>2026-05-09T18:49:31Z</time></trkpt>
<trkpt lat="50.650818" lon="4.918977"><time>2026-05-09T18:59:31Z</time></trkpt>
<trkpt lat="50.650501" lon="4.918269"><time>2026-05-09T19:09:31Z</time></trkpt>
<trkpt lat="50.650010" lon="4.917789"><time>2026-05-09T19:19:31Z</time></trkpt>
</trkseg>
</trk>
<trk>
<name>brmrm39</name>
<cmt>v</cmt>
<desc>Ramillies Chemin n°39 Rue de Malcampé</desc>
<link href="https://chemins.be/ramillies/chemin/39"/><trkseg>
<trkpt lat="50.653526" lon="4.908029"><time>2026-05-09T18:39:31Z</time></trkpt>
<trkpt lat="50.654939" lon="4.907508"><time>2026-05-09T18:49:31Z</time></trkpt>
</trkseg>
</trk>
<trk>
<name>brmrm4</name>
<cmt>r</cmt>
<desc>Ramillies Chemin n°4 </desc>
<link href="https://chemins.be/ramillies/chemin/4"/><trkseg>
<trkpt lat="50.634702" lon="4.921031"><time>2026-05-09T18:39:31Z</time></trkpt>
<trkpt lat="50.634222" lon="4.923754"><time>2026-05-09T18:49:31Z</time></trkpt>
<trkpt lat="50.633048" lon="4.926680"><time>2026-05-09T18:59:31Z</time></trkpt>
</trkseg></trk>
<trk>
<name>brmrm4</name>
<cmt>s</cmt>
<desc>Ramillies Chemin n°4 </desc>
<link href="https://chemins.be/ramillies/chemin/4"/><trkseg>
<trkpt lat="50.633048" lon="4.926680"><time>2026-05-09T18:59:31Z</time></trkpt>
<trkpt lat="50.632131" lon="4.928592"><time>2026-05-09T19:09:31Z</time></trkpt>
<trkpt lat="50.632279" lon="4.931421"><time>2026-05-09T19:19:31Z</time></trkpt>
<trkpt lat="50.632090" lon="4.933369"><time>2026-05-09T19:29:31Z</time></trkpt>
</trkseg>
</trk>
<trk>
<name>brmrm40</name>
<cmt>d</cmt>
<desc>Ramillies Sentier n°40 </desc>
<link href="https://chemins.be/ramillies/sentier/40"/><trkseg>
<trkpt lat="50.651009" lon="4.904119"><time>2026-05-09T18:39:31Z</time></trkpt>
<trkpt lat="50.652727" lon="4.897700"><time>2026-05-09T18:49:31Z</time></trkpt>
</trkseg></trk>
<trk>
<name>brmrm40</name>
<cmt>s</cmt>
<desc>Ramillies Sentier n°40 </desc>
<link href="https://chemins.be/ramillies/sentier/40"/><trkseg>
<trkpt lat="50.652727" lon="4.897700"><time>2026-05-09T18:49:31Z</time></trkpt>
<trkpt lat="50.652837" lon="4.897287"><time>2026-05-09T18:59:31Z</time></trkpt>
<trkpt lat="50.653381" lon="4.895450"><time>2026-05-09T19:09:31Z</time></trkpt>
<trkpt lat="50.653860" lon="4.893321"><time>2026-05-09T19:19:31Z</time></trkpt>
</trkseg>
</trk>
<trk>
<name>brmrm41</name>
<cmt>s</cmt>
<desc>Ramillies Sentier n°41 </desc>
<link href="https://chemins.be/ramillies/sentier/41"/><trkseg>
<trkpt lat="50.652743" lon="4.897874"><time>2026-05-09T18:39:31Z</time></trkpt>
<trkpt lat="50.652020" lon="4.896020"><time>2026-05-09T18:49:31Z</time></trkpt>
<trkpt lat="50.651535" lon="4.893076"><time>2026-05-09T18:59:31Z</time></trkpt>
</trkseg>
</trk>
<trk>
<name>brmrm43</name>
<cmt>s</cmt>
<desc>Ramillies Sentier n°43 </desc>
<link href="https://chemins.be/ramillies/sentier/43"/><trkseg>
<trkpt lat="50.652736" lon="4.907242"><time>2026-05-09T18:39:31Z</time></trkpt>
<trkpt lat="50.653635" lon="4.907555"><time>2026-05-09T18:49:31Z</time></trkpt>
<trkpt lat="50.654046" lon="4.907712"><time>2026-05-09T18:59:31Z</time></trkpt>
</trkseg>
</trk>
<trk>
<name>brmrm44</name>
<cmt>s</cmt>
<desc>Ramillies Sentier n°44 </desc>
<link href="https://chemins.be/ramillies/sentier/44"/><trkseg>
<trkpt lat="50.635949" lon="4.910175"><time>2026-05-09T18:39:31Z</time></trkpt>
<trkpt lat="50.634937" lon="4.907435"><time>2026-05-09T18:49:31Z</time></trkpt>
<trkpt lat="50.630906" lon="4.896630"><time>2026-05-09T18:59:31Z</time></trkpt>
</trkseg>
</trk>
<trk>
<name>brmrm45</name>
<cmt>q</cmt>
<desc>Ramillies Sentier n°45 </desc>
<link href="https://chemins.be/ramillies/sentier/45"/><trkseg>
<trkpt lat="50.634020" lon="4.917037"><time>2026-05-09T18:39:31Z</time></trkpt>
<trkpt lat="50.632921" lon="4.913632"><time>2026-05-09T18:49:31Z</time></trkpt>
<trkpt lat="50.630710" lon="4.905677"><time>2026-05-09T18:59:31Z</time></trkpt>
<trkpt lat="50.628945" lon="4.900582"><time>2026-05-09T19:09:31Z</time></trkpt>
</trkseg>
</trk>
<trk>
<name>brmrm46</name>
<cmt>s</cmt>
<desc>Ramillies Sentier n°46 </desc>
<link href="https://chemins.be/ramillies/sentier/46"/><trkseg>
<trkpt lat="50.629137" lon="4.926662"><time>2026-05-09T18:39:31Z</time></trkpt>
<trkpt lat="50.628822" lon="4.926715"><time>2026-05-09T18:49:31Z</time></trkpt>
<trkpt lat="50.628435" lon="4.926965"><time>2026-05-09T18:59:31Z</time></trkpt>
<trkpt lat="50.627103" lon="4.927175"><time>2026-05-09T19:09:31Z</time></trkpt>
</trkseg>
</trk>
<trk>
<name>brmrm47</name>
<cmt>s</cmt>
<desc>Ramillies Sentier n°47 </desc>
<link href="https://chemins.be/ramillies/sentier/47"/><trkseg>
<trkpt lat="50.640480" lon="4.915939"><time>2026-05-09T18:39:31Z</time></trkpt>
<trkpt lat="50.640491" lon="4.915543"><time>2026-05-09T18:49:31Z</time></trkpt>
<trkpt lat="50.640276" lon="4.915399"><time>2026-05-09T18:59:31Z</time></trkpt>
<trkpt lat="50.640306" lon="4.914749"><time>2026-05-09T19:09:31Z</time></trkpt>
<trkpt lat="50.639400" lon="4.914216"><time>2026-05-09T19:19:31Z</time></trkpt>
<trkpt lat="50.639046" lon="4.912982"><time>2026-05-09T19:29:31Z</time></trkpt>
<trkpt lat="50.639093" lon="4.912572"><time>2026-05-09T19:39:31Z</time></trkpt>
</trkseg>
</trk>
<trk>
<name>brmrm48</name>
<cmt>d</cmt>
<desc>Ramillies Sentier n°48 </desc>
<link href="https://chemins.be/ramillies/sentier/48"/><trkseg>
<trkpt lat="50.639358" lon="4.917691"><time>2026-05-09T18:39:31Z</time></trkpt>
<trkpt lat="50.639921" lon="4.918194"><time>2026-05-09T18:49:31Z</time></trkpt>
</trkseg></trk>
<trk>
<name>brmrm48</name>
<cmt>s</cmt>
<desc>Ramillies Sentier n°48 </desc>
<link href="https://chemins.be/ramillies/sentier/48"/><trkseg>
<trkpt lat="50.639921" lon="4.918194"><time>2026-05-09T18:49:31Z</time></trkpt>
<trkpt lat="50.639956" lon="4.918463"><time>2026-05-09T18:59:31Z</time></trkpt>
<trkpt lat="50.640350" lon="4.918722"><time>2026-05-09T19:09:31Z</time></trkpt>
<trkpt lat="50.641646" lon="4.920349"><time>2026-05-09T19:19:31Z</time></trkpt>
</trkseg>
</trk>
<trk>
<name>brmrm5</name>
<cmt>v</cmt>
<desc>Ramillies Chemin n°5 </desc>
<link href="https://chemins.be/ramillies/chemin/5"/><trkseg>
<trkpt lat="50.636225" lon="4.918979"><time>2026-05-09T18:39:31Z</time></trkpt>
<trkpt lat="50.637166" lon="4.920833"><time>2026-05-09T18:49:31Z</time></trkpt>
</trkseg>
</trk>
<trk>
<name>brmrm6</name>
<cmt>r</cmt>
<desc>Ramillies Chemin n°6 Rue de Fagneton</desc>
<link href="https://chemins.be/ramillies/chemin/6"/><trkseg>
<trkpt lat="50.647199" lon="4.892728"><time>2026-05-09T18:39:31Z</time></trkpt>
<trkpt lat="50.648550" lon="4.899044"><time>2026-05-09T18:49:31Z</time></trkpt>
</trkseg></trk>
<trk>
<name>brmrm6</name>
<cmt>s</cmt>
<desc>Ramillies Chemin n°6 Rue de Fagneton</desc>
<link href="https://chemins.be/ramillies/chemin/6"/><trkseg>
<trkpt lat="50.648550" lon="4.899044"><time>2026-05-09T18:49:31Z</time></trkpt>
<trkpt lat="50.649380" lon="4.901226"><time>2026-05-09T18:59:31Z</time></trkpt>
<trkpt lat="50.650926" lon="4.904308"><time>2026-05-09T19:09:31Z</time></trkpt>
<trkpt lat="50.651709" lon="4.904960"><time>2026-05-09T19:19:31Z</time></trkpt>
</trkseg>
</trk>
<trk>
<name>brmrm7</name>
<cmt>v</cmt>
<desc>Ramillies Chemin n°7 Rue d'Offus / Rue du Fodia / Rue du Folxdia</desc>
<link href="https://chemins.be/ramillies/chemin/7"/><trkseg>
<trkpt lat="50.654248" lon="4.903329"><time>2026-05-09T18:39:31Z</time></trkpt>
<trkpt lat="50.653929" lon="4.906280"><time>2026-05-09T18:49:31Z</time></trkpt>
<trkpt lat="50.653544" lon="4.907917"><time>2026-05-09T18:59:31Z</time></trkpt>
<trkpt lat="50.653263" lon="4.908380"><time>2026-05-09T19:09:31Z</time></trkpt>
</trkseg></trk>
<trk>
<name>brmrm7</name>
<cmt>r</cmt>
<desc>Ramillies Chemin n°7 Rue d'Offus / Rue du Fodia / Rue du Folxdia</desc>
<link href="https://chemins.be/ramillies/chemin/7"/><trkseg>
<trkpt lat="50.653263" lon="4.908380"><time>2026-05-09T19:09:31Z</time></trkpt>
<trkpt lat="50.652192" lon="4.910517"><time>2026-05-09T19:19:31Z</time></trkpt>
<trkpt lat="50.651503" lon="4.913719"><time>2026-05-09T19:29:31Z</time></trkpt>
<trkpt lat="50.651412" lon="4.919756"><time>2026-05-09T19:39:31Z</time></trkpt>
</trkseg></trk>
<trk>
<name>brmrm7</name>
<cmt>d</cmt>
<desc>Ramillies Chemin n°7 Rue d'Offus / Rue du Fodia / Rue du Folxdia</desc>
<link href="https://chemins.be/ramillies/chemin/7"/><trkseg>
<trkpt lat="50.651412" lon="4.919756"><time>2026-05-09T19:39:31Z</time></trkpt>
<trkpt lat="50.651321" lon="4.920248"><time>2026-05-09T19:49:31Z</time></trkpt>
<trkpt lat="50.649861" lon="4.923611"><time>2026-05-09T19:59:31Z</time></trkpt>
</trkseg></trk>
<trk>
<name>brmrm7</name>
<cmt>v</cmt>
<desc>Ramillies Chemin n°7 Rue d'Offus / Rue du Fodia / Rue du Folxdia</desc>
<link href="https://chemins.be/ramillies/chemin/7"/><trkseg>
<trkpt lat="50.649861" lon="4.923611"><time>2026-05-09T19:59:31Z</time></trkpt>
<trkpt lat="50.649271" lon="4.924491"><time>2026-05-09T20:09:31Z</time></trkpt>
<trkpt lat="50.647372" lon="4.926115"><time>2026-05-09T20:19:31Z</time></trkpt>
<trkpt lat="50.644586" lon="4.928961"><time>2026-05-09T20:29:31Z</time></trkpt>
</trkseg>
</trk>
<trk>
<name>brmrm8</name>
<cmt>s</cmt>
<desc>Ramillies Chemin n°8 </desc>
<link href="https://chemins.be/ramillies/chemin/8"/><trkseg>
<trkpt lat="50.650447" lon="4.919918"><time>2026-05-09T18:39:31Z</time></trkpt>
<trkpt lat="50.649260" lon="4.919047"><time>2026-05-09T18:49:31Z</time></trkpt>
<trkpt lat="50.648722" lon="4.919313"><time>2026-05-09T18:59:31Z</time></trkpt>
<trkpt lat="50.646681" lon="4.918369"><time>2026-05-09T19:09:31Z</time></trkpt>
</trkseg>
</trk>
<trk>
<name>brmrm9</name>
<cmt>r</cmt>
<desc>Ramillies Chemin n°9 </desc>
<link href="https://chemins.be/ramillies/chemin/9"/><trkseg>
<trkpt lat="50.645381" lon="4.913776"><time>2026-05-09T18:39:31Z</time></trkpt>
<trkpt lat="50.644810" lon="4.912822"><time>2026-05-09T18:49:31Z</time></trkpt>
<trkpt lat="50.644883" lon="4.912540"><time>2026-05-09T18:59:31Z</time></trkpt>
</trkseg></trk>
<trk>
<name>brmrm9</name>
<cmt>s</cmt>
<desc>Ramillies Chemin n°9 </desc>
<link href="https://chemins.be/ramillies/chemin/9"/><trkseg>
<trkpt lat="50.644883" lon="4.912540"><time>2026-05-09T18:59:31Z</time></trkpt>
<trkpt lat="50.643935" lon="4.911483"><time>2026-05-09T19:09:31Z</time></trkpt>
<trkpt lat="50.643867" lon="4.910577"><time>2026-05-09T19:19:31Z</time></trkpt>
<trkpt lat="50.643662" lon="4.910235"><time>2026-05-09T19:29:31Z</time></trkpt>
</trkseg>
</trk>
<trk>
<name>brmrmi1</name>
<cmt>v</cmt>
<desc>Ramillies Sentier n°i1 </desc>
<link href="https://chemins.be/ramillies/sentier/i1"/><trkseg>
<trkpt lat="50.653978" lon="4.894947"><time>2026-05-09T18:39:31Z</time></trkpt>
<trkpt lat="50.653549" lon="4.895676"><time>2026-05-09T18:49:31Z</time></trkpt>
</trkseg>
</trk>
<trk>
<name>brmrmi2</name>
<cmt>d</cmt>
<desc>Ramillies Chemin n°i2 </desc>
<link href="https://chemins.be/ramillies/chemin/i2"/><trkseg>
<trkpt lat="50.640494" lon="4.913493"><time>2026-05-09T18:39:31Z</time></trkpt>
<trkpt lat="50.640262" lon="4.914689"><time>2026-05-09T18:49:31Z</time></trkpt>
</trkseg>
</trk>
<trk>
<name>brmrmi3</name>
<cmt>v</cmt>
<desc>Ramillies Chemin n°i3 </desc>
<link href="https://chemins.be/ramillies/chemin/i3"/><trkseg>
<trkpt lat="50.631409" lon="4.915104"><time>2026-05-09T18:39:31Z</time></trkpt>
<trkpt lat="50.630372" lon="4.906566"><time>2026-05-09T18:49:31Z</time></trkpt>
</trkseg>
</trk>
<trk>
<name>brmrmi4</name>
<cmt>q</cmt>
<desc>Ramillies Sentier n°i4 </desc>
<link href="https://chemins.be/ramillies/sentier/i4"/><trkseg>
<trkpt lat="50.642434" lon="4.915558"><time>2026-05-09T18:39:31Z</time></trkpt>
<trkpt lat="50.642790" lon="4.915984"><time>2026-05-09T18:49:31Z</time></trkpt>
</trkseg>
</trk>
<trk>
<name>brmrmi5</name>
<cmt>v</cmt>
<desc>Ramillies Chemin n°i5 RAVeL</desc>
<link href="https://chemins.be/ramillies/chemin/i5"/><trkseg>
<trkpt lat="50.652345" lon="4.894044"><time>2026-05-09T18:39:31Z</time></trkpt>
<trkpt lat="50.653964" lon="4.896362"><time>2026-05-09T18:49:31Z</time></trkpt>
</trkseg>
</trk>
<trk>
<name>brmrmL142</name>
<cmt>v</cmt>
<desc>Ramillies Chemin n°L142 RAVeL 2 L142</desc>
<link href="https://chemins.be/ramillies/chemin/L142"/><trkseg>
<trkpt lat="50.628289" lon="4.898554"><time>2026-05-09T18:39:31Z</time></trkpt>
<trkpt lat="50.630990" lon="4.897552"><time>2026-05-09T18:49:31Z</time></trkpt>
<trkpt lat="50.637169" lon="4.894921"><time>2026-05-09T18:59:31Z</time></trkpt>
</trkseg>
</trk>
<trk>
<name>brmrmL147</name>
<cmt>d</cmt>
<desc>Ramillies Chemin n°L147 RAVeL</desc>
<link href="https://chemins.be/ramillies/chemin/L147"/><trkseg>
<trkpt lat="50.651577" lon="4.891674"><time>2026-05-09T18:39:31Z</time></trkpt>
<trkpt lat="50.654937" lon="4.896180"><time>2026-05-09T18:49:31Z</time></trkpt>
</trkseg>
</trk>
<trk>
<name>brmrmp1</name>
<cmt>r</cmt>
<desc>Ramillies Chemin particulier n°p1 </desc>
<link href="https://chemins.be/ramillies/chemin/p1"/><trkseg>
<trkpt lat="50.644587" lon="4.930285"><time>2026-05-09T18:39:31Z</time></trkpt>
<trkpt lat="50.645167" lon="4.930701"><time>2026-05-09T18:49:31Z</time></trkpt>
</trkseg>
</trk>
</gpx>